<?xml version="1.0" encoding="UTF-8" standalone="no" ?>
<gpx xmlns="http://www.topografix.com/GPX/1/1" xmlns:xsi="http://www.w3.org/2001/XMLSchema-instance" xsi:schemaLocation="http://www.topografix.com/GPX/1/1 http://www.topografix.com/GPX/1/1/gpx.xsd" version="1.1" creator="VisuGPX - https://www.visugpx.com">
  <metadata>
    <name>2020-07-13 17:38:46</name>
  </metadata>
  <trk>
    <name><![CDATA[2020-07-13 17:38:46]]></name>
    <trkseg>
      <trkpt lat="46.0056" lon="4.36581">
        <ele>431.77</ele>
        <time>2020-07-12T17:24:35Z</time>
      </trkpt>
      <trkpt lat="46.0056" lon="4.36581">
        <ele>431.77</ele>
        <time>2020-07-12T17:24:36Z</time>
      </trkpt>
      <trkpt lat="46.00561" lon="4.36581">
        <ele>446.19</ele>
        <time>2020-07-12T17:24:41Z</time>
      </trkpt>
      <trkpt lat="46.00561" lon="4.36581">
        <ele>446.19</ele>
        <time>2020-07-12T17:24:42Z</time>
      </trkpt>
      <trkpt lat="46.0056" lon="4.36582">
        <ele>446.19</ele>
        <time>2020-07-12T17:25:10Z</time>
      </trkpt>
      <trkpt lat="46.0056" lon="4.36582">
        <ele>445.71</ele>
        <time>2020-07-12T17:25:16Z</time>
      </trkpt>
      <trkpt lat="46.0056" lon="4.36582">
        <ele>445.23</ele>
        <time>2020-07-12T17:25:17Z</time>
      </trkpt>
      <trkpt lat="45.98118" lon="4.39451">
        <ele>607.69</ele>
        <time>2020-07-13T07:36:39Z</time>
      </trkpt>
      <trkpt lat="45.98118" lon="4.39452">
        <ele>609.13</ele>
        <time>2020-07-13T07:36:42Z</time>
      </trkpt>
      <trkpt lat="45.98117" lon="4.39451">
        <ele>657.68</ele>
        <time>2020-07-13T07:36:53Z</time>
      </trkpt>
      <trkpt lat="45.98114" lon="4.39457">
        <ele>657.68</ele>
        <time>2020-07-13T07:37:06Z</time>
      </trkpt>
      <trkpt lat="45.98112" lon="4.39461">
        <ele>659.12</ele>
        <time>2020-07-13T07:37:11Z</time>
      </trkpt>
      <trkpt lat="45.98111" lon="4.39465">
        <ele>659.12</ele>
        <time>2020-07-13T07:37:14Z</time>
      </trkpt>
      <trkpt lat="45.9811" lon="4.3947">
        <ele>660.08</ele>
        <time>2020-07-13T07:37:18Z</time>
      </trkpt>
      <trkpt lat="45.98108" lon="4.3949">
        <ele>662.01</ele>
        <time>2020-07-13T07:37:36Z</time>
      </trkpt>
      <trkpt lat="45.98108" lon="4.39506">
        <ele>662.97</ele>
        <time>2020-07-13T07:37:49Z</time>
      </trkpt>
      <trkpt lat="45.98107" lon="4.39527">
        <ele>665.85</ele>
        <time>2020-07-13T07:38:05Z</time>
      </trkpt>
      <trkpt lat="45.98093" lon="4.39535">
        <ele>668.73</ele>
        <time>2020-07-13T07:38:22Z</time>
      </trkpt>
      <trkpt lat="45.98081" lon="4.39545">
        <ele>671.14</ele>
        <time>2020-07-13T07:38:39Z</time>
      </trkpt>
      <trkpt lat="45.98067" lon="4.3956">
        <ele>674.98</ele>
        <time>2020-07-13T07:38:58Z</time>
      </trkpt>
      <trkpt lat="45.98052" lon="4.3957">
        <ele>676.42</ele>
        <time>2020-07-13T07:39:15Z</time>
      </trkpt>
      <trkpt lat="45.98048" lon="4.39578">
        <ele>678.35</ele>
        <time>2020-07-13T07:39:29Z</time>
      </trkpt>
      <trkpt lat="45.98036" lon="4.39586">
        <ele>680.27</ele>
        <time>2020-07-13T07:39:44Z</time>
      </trkpt>
      <trkpt lat="45.98025" lon="4.396">
        <ele>681.71</ele>
        <time>2020-07-13T07:40:01Z</time>
      </trkpt>
      <trkpt lat="45.98016" lon="4.39611">
        <ele>683.63</ele>
        <time>2020-07-13T07:40:16Z</time>
      </trkpt>
      <trkpt lat="45.98005" lon="4.39624">
        <ele>686.04</ele>
        <time>2020-07-13T07:40:35Z</time>
      </trkpt>
      <trkpt lat="45.98" lon="4.39636">
        <ele>687.96</ele>
        <time>2020-07-13T07:40:51Z</time>
      </trkpt>
      <trkpt lat="45.97992" lon="4.39657">
        <ele>689.88</ele>
        <time>2020-07-13T07:41:11Z</time>
      </trkpt>
      <trkpt lat="45.9799" lon="4.39676">
        <ele>691.81</ele>
        <time>2020-07-13T07:41:28Z</time>
      </trkpt>
      <trkpt lat="45.97987" lon="4.39698">
        <ele>693.73</ele>
        <time>2020-07-13T07:41:48Z</time>
      </trkpt>
      <trkpt lat="45.97987" lon="4.39703">
        <ele>694.69</ele>
        <time>2020-07-13T07:41:53Z</time>
      </trkpt>
      <trkpt lat="45.97985" lon="4.39726">
        <ele>696.13</ele>
        <time>2020-07-13T07:42:10Z</time>
      </trkpt>
      <trkpt lat="45.97985" lon="4.39736">
        <ele>698.05</ele>
        <time>2020-07-13T07:42:19Z</time>
      </trkpt>
      <trkpt lat="45.97983" lon="4.39755">
        <ele>699.5</ele>
        <time>2020-07-13T07:42:37Z</time>
      </trkpt>
      <trkpt lat="45.97982" lon="4.39777">
        <ele>700.94</ele>
        <time>2020-07-13T07:42:55Z</time>
      </trkpt>
      <trkpt lat="45.97984" lon="4.398">
        <ele>703.34</ele>
        <time>2020-07-13T07:43:13Z</time>
      </trkpt>
      <trkpt lat="45.97988" lon="4.39821">
        <ele>705.26</ele>
        <time>2020-07-13T07:43:29Z</time>
      </trkpt>
      <trkpt lat="45.97995" lon="4.39839">
        <ele>707.67</ele>
        <time>2020-07-13T07:43:48Z</time>
      </trkpt>
      <trkpt lat="45.98001" lon="4.3985">
        <ele>710.07</ele>
        <time>2020-07-13T07:44:06Z</time>
      </trkpt>
      <trkpt lat="45.98008" lon="4.39863">
        <ele>712.47</ele>
        <time>2020-07-13T07:44:25Z</time>
      </trkpt>
      <trkpt lat="45.98016" lon="4.39875">
        <ele>715.36</ele>
        <time>2020-07-13T07:44:49Z</time>
      </trkpt>
      <trkpt lat="45.98028" lon="4.39883">
        <ele>718.72</ele>
        <time>2020-07-13T07:45:08Z</time>
      </trkpt>
      <trkpt lat="45.98035" lon="4.3989">
        <ele>719.68</ele>
        <time>2020-07-13T07:45:27Z</time>
      </trkpt>
      <trkpt lat="45.98033" lon="4.39889">
        <ele>720.16</ele>
        <time>2020-07-13T07:45:50Z</time>
      </trkpt>
      <trkpt lat="45.98032" lon="4.39897">
        <ele>720.16</ele>
        <time>2020-07-13T07:46:07Z</time>
      </trkpt>
      <trkpt lat="45.98032" lon="4.39906">
        <ele>719.2</ele>
        <time>2020-07-13T07:46:26Z</time>
      </trkpt>
      <trkpt lat="45.98034" lon="4.39897">
        <ele>720.65</ele>
        <time>2020-07-13T07:46:46Z</time>
      </trkpt>
      <trkpt lat="45.98035" lon="4.39894">
        <ele>720.65</ele>
        <time>2020-07-13T07:47:10Z</time>
      </trkpt>
      <trkpt lat="45.98033" lon="4.39889">
        <ele>720.65</ele>
        <time>2020-07-13T07:47:34Z</time>
      </trkpt>
      <trkpt lat="45.98039" lon="4.39888">
        <ele>720.65</ele>
        <time>2020-07-13T07:47:53Z</time>
      </trkpt>
      <trkpt lat="45.9804" lon="4.39883">
        <ele>720.65</ele>
        <time>2020-07-13T07:48:14Z</time>
      </trkpt>
      <trkpt lat="45.98039" lon="4.39891">
        <ele>720.65</ele>
        <time>2020-07-13T07:48:39Z</time>
      </trkpt>
      <trkpt lat="45.98043" lon="4.39896">
        <ele>722.57</ele>
        <time>2020-07-13T07:48:44Z</time>
      </trkpt>
      <trkpt lat="45.9805" lon="4.3992">
        <ele>724.01</ele>
        <time>2020-07-13T07:49:04Z</time>
      </trkpt>
      <trkpt lat="45.98057" lon="4.39941">
        <ele>724.97</ele>
        <time>2020-07-13T07:49:20Z</time>
      </trkpt>
      <trkpt lat="45.98061" lon="4.39957">
        <ele>725.93</ele>
        <time>2020-07-13T07:49:35Z</time>
      </trkpt>
      <trkpt lat="45.98064" lon="4.39974">
        <ele>728.34</ele>
        <time>2020-07-13T07:49:51Z</time>
      </trkpt>
      <trkpt lat="45.98068" lon="4.39994">
        <ele>729.3</ele>
        <time>2020-07-13T07:50:08Z</time>
      </trkpt>
      <trkpt lat="45.9807" lon="4.40002">
        <ele>730.26</ele>
        <time>2020-07-13T07:50:14Z</time>
      </trkpt>
      <trkpt lat="45.98074" lon="4.40022">
        <ele>731.7</ele>
        <time>2020-07-13T07:50:30Z</time>
      </trkpt>
      <trkpt lat="45.98076" lon="4.40037">
        <ele>733.62</ele>
        <time>2020-07-13T07:50:42Z</time>
      </trkpt>
      <trkpt lat="45.98076" lon="4.40042">
        <ele>733.62</ele>
        <time>2020-07-13T07:50:46Z</time>
      </trkpt>
      <trkpt lat="45.98077" lon="4.40057">
        <ele>736.03</ele>
        <time>2020-07-13T07:51:00Z</time>
      </trkpt>
      <trkpt lat="45.98078" lon="4.40065">
        <ele>736.99</ele>
        <time>2020-07-13T07:51:12Z</time>
      </trkpt>
      <trkpt lat="45.9807" lon="4.40075">
        <ele>737.95</ele>
        <time>2020-07-13T07:51:24Z</time>
      </trkpt>
      <trkpt lat="45.98062" lon="4.40082">
        <ele>738.43</ele>
        <time>2020-07-13T07:51:35Z</time>
      </trkpt>
      <trkpt lat="45.98056" lon="4.4009">
        <ele>737.47</ele>
        <time>2020-07-13T07:51:44Z</time>
      </trkpt>
      <trkpt lat="45.98051" lon="4.40096">
        <ele>736.51</ele>
        <time>2020-07-13T07:51:52Z</time>
      </trkpt>
      <trkpt lat="45.98048" lon="4.40098">
        <ele>736.03</ele>
        <time>2020-07-13T07:51:55Z</time>
      </trkpt>
      <trkpt lat="45.98035" lon="4.40109">
        <ele>734.58</ele>
        <time>2020-07-13T07:52:11Z</time>
      </trkpt>
      <trkpt lat="45.9803" lon="4.40113">
        <ele>734.1</ele>
        <time>2020-07-13T07:52:17Z</time>
      </trkpt>
      <trkpt lat="45.98028" lon="4.40114">
        <ele>733.62</ele>
        <time>2020-07-13T07:52:19Z</time>
      </trkpt>
      <trkpt lat="45.98017" lon="4.40128">
        <ele>731.7</ele>
        <time>2020-07-13T07:52:35Z</time>
      </trkpt>
      <trkpt lat="45.98006" lon="4.40143">
        <ele>729.78</ele>
        <time>2020-07-13T07:52:51Z</time>
      </trkpt>
      <trkpt lat="45.98005" lon="4.40145">
        <ele>729.78</ele>
        <time>2020-07-13T07:52:54Z</time>
      </trkpt>
      <trkpt lat="45.97997" lon="4.40155">
        <ele>728.34</ele>
        <time>2020-07-13T07:53:05Z</time>
      </trkpt>
      <trkpt lat="45.97984" lon="4.40173">
        <ele>727.37</ele>
        <time>2020-07-13T07:53:23Z</time>
      </trkpt>
      <trkpt lat="45.97972" lon="4.40175">
        <ele>726.89</ele>
        <time>2020-07-13T07:53:36Z</time>
      </trkpt>
      <trkpt lat="45.97957" lon="4.40161">
        <ele>727.86</ele>
        <time>2020-07-13T07:53:55Z</time>
      </trkpt>
      <trkpt lat="45.97942" lon="4.40146">
        <ele>729.78</ele>
        <time>2020-07-13T07:54:14Z</time>
      </trkpt>
      <trkpt lat="45.97933" lon="4.40126">
        <ele>731.7</ele>
        <time>2020-07-13T07:54:31Z</time>
      </trkpt>
      <trkpt lat="45.97922" lon="4.4011">
        <ele>734.1</ele>
        <time>2020-07-13T07:54:51Z</time>
      </trkpt>
      <trkpt lat="45.97913" lon="4.40092">
        <ele>736.51</ele>
        <time>2020-07-13T07:55:12Z</time>
      </trkpt>
      <trkpt lat="45.97898" lon="4.40073">
        <ele>736.99</ele>
        <time>2020-07-13T07:55:31Z</time>
      </trkpt>
      <trkpt lat="45.97884" lon="4.40062">
        <ele>735.55</ele>
        <time>2020-07-13T07:55:45Z</time>
      </trkpt>
      <trkpt lat="45.97873" lon="4.40076">
        <ele>737.47</ele>
        <time>2020-07-13T07:56:05Z</time>
      </trkpt>
      <trkpt lat="45.97866" lon="4.40099">
        <ele>739.39</ele>
        <time>2020-07-13T07:56:29Z</time>
      </trkpt>
      <trkpt lat="45.9785" lon="4.40129">
        <ele>740.83</ele>
        <time>2020-07-13T07:56:52Z</time>
      </trkpt>
      <trkpt lat="45.97841" lon="4.40148">
        <ele>741.31</ele>
        <time>2020-07-13T07:57:08Z</time>
      </trkpt>
      <trkpt lat="45.97839" lon="4.40155">
        <ele>741.31</ele>
        <time>2020-07-13T07:57:13Z</time>
      </trkpt>
      <trkpt lat="45.97827" lon="4.40183">
        <ele>741.79</ele>
        <time>2020-07-13T07:57:34Z</time>
      </trkpt>
      <trkpt lat="45.97814" lon="4.402">
        <ele>743.24</ele>
        <time>2020-07-13T07:57:52Z</time>
      </trkpt>
      <trkpt lat="45.97807" lon="4.40218">
        <ele>743.72</ele>
        <time>2020-07-13T07:58:06Z</time>
      </trkpt>
      <trkpt lat="45.97792" lon="4.40237">
        <ele>744.68</ele>
        <time>2020-07-13T07:58:23Z</time>
      </trkpt>
      <trkpt lat="45.97781" lon="4.40253">
        <ele>745.16</ele>
        <time>2020-07-13T07:58:39Z</time>
      </trkpt>
      <trkpt lat="45.9777" lon="4.40271">
        <ele>745.64</ele>
        <time>2020-07-13T07:58:55Z</time>
      </trkpt>
      <trkpt lat="45.97763" lon="4.40286">
        <ele>746.12</ele>
        <time>2020-07-13T07:59:07Z</time>
      </trkpt>
      <trkpt lat="45.97754" lon="4.40309">
        <ele>748.52</ele>
        <time>2020-07-13T07:59:25Z</time>
      </trkpt>
      <trkpt lat="45.97745" lon="4.40329">
        <ele>749.49</ele>
        <time>2020-07-13T07:59:42Z</time>
      </trkpt>
      <trkpt lat="45.97734" lon="4.4035">
        <ele>749.97</ele>
        <time>2020-07-13T07:59:59Z</time>
      </trkpt>
      <trkpt lat="45.97722" lon="4.40372">
        <ele>750.45</ele>
        <time>2020-07-13T08:00:18Z</time>
      </trkpt>
      <trkpt lat="45.97709" lon="4.40395">
        <ele>750.93</ele>
        <time>2020-07-13T08:00:38Z</time>
      </trkpt>
      <trkpt lat="45.97696" lon="4.40417">
        <ele>751.89</ele>
        <time>2020-07-13T08:00:57Z</time>
      </trkpt>
      <trkpt lat="45.97688" lon="4.40425">
        <ele>752.37</ele>
        <time>2020-07-13T08:01:06Z</time>
      </trkpt>
      <trkpt lat="45.97673" lon="4.40444">
        <ele>753.33</ele>
        <time>2020-07-13T08:01:25Z</time>
      </trkpt>
      <trkpt lat="45.97662" lon="4.40462">
        <ele>754.29</ele>
        <time>2020-07-13T08:01:40Z</time>
      </trkpt>
      <trkpt lat="45.97651" lon="4.4049">
        <ele>755.25</ele>
        <time>2020-07-13T08:01:59Z</time>
      </trkpt>
      <trkpt lat="45.97642" lon="4.4051">
        <ele>756.69</ele>
        <time>2020-07-13T08:02:14Z</time>
      </trkpt>
      <trkpt lat="45.97632" lon="4.40528">
        <ele>757.66</ele>
        <time>2020-07-13T08:02:29Z</time>
      </trkpt>
      <trkpt lat="45.97622" lon="4.40546">
        <ele>759.1</ele>
        <time>2020-07-13T08:02:44Z</time>
      </trkpt>
      <trkpt lat="45.97612" lon="4.40567">
        <ele>760.06</ele>
        <time>2020-07-13T08:03:00Z</time>
      </trkpt>
      <trkpt lat="45.97602" lon="4.40585">
        <ele>761.5</ele>
        <time>2020-07-13T08:03:16Z</time>
      </trkpt>
      <trkpt lat="45.9759" lon="4.40604">
        <ele>763.9</ele>
        <time>2020-07-13T08:03:33Z</time>
      </trkpt>
      <trkpt lat="45.97577" lon="4.40628">
        <ele>764.87</ele>
        <time>2020-07-13T08:03:52Z</time>
      </trkpt>
      <trkpt lat="45.97571" lon="4.40655">
        <ele>765.83</ele>
        <time>2020-07-13T08:04:08Z</time>
      </trkpt>
      <trkpt lat="45.9757" lon="4.40663">
        <ele>766.31</ele>
        <time>2020-07-13T08:04:13Z</time>
      </trkpt>
      <trkpt lat="45.97568" lon="4.40691">
        <ele>767.27</ele>
        <time>2020-07-13T08:04:29Z</time>
      </trkpt>
      <trkpt lat="45.97566" lon="4.40715">
        <ele>768.23</ele>
        <time>2020-07-13T08:04:45Z</time>
      </trkpt>
      <trkpt lat="45.97563" lon="4.40743">
        <ele>769.19</ele>
        <time>2020-07-13T08:05:01Z</time>
      </trkpt>
      <trkpt lat="45.97564" lon="4.4077">
        <ele>769.67</ele>
        <time>2020-07-13T08:05:18Z</time>
      </trkpt>
      <trkpt lat="45.97566" lon="4.4079">
        <ele>770.15</ele>
        <time>2020-07-13T08:05:32Z</time>
      </trkpt>
      <trkpt lat="45.97567" lon="4.4081">
        <ele>770.15</ele>
        <time>2020-07-13T08:05:48Z</time>
      </trkpt>
      <trkpt lat="45.97575" lon="4.40836">
        <ele>770.63</ele>
        <time>2020-07-13T08:06:07Z</time>
      </trkpt>
      <trkpt lat="45.97582" lon="4.40843">
        <ele>771.11</ele>
        <time>2020-07-13T08:06:20Z</time>
      </trkpt>
      <trkpt lat="45.97583" lon="4.40838">
        <ele>771.6</ele>
        <time>2020-07-13T08:06:41Z</time>
      </trkpt>
      <trkpt lat="45.97586" lon="4.4084">
        <ele>772.08</ele>
        <time>2020-07-13T08:07:05Z</time>
      </trkpt>
      <trkpt lat="45.97582" lon="4.40837">
        <ele>772.08</ele>
        <time>2020-07-13T08:07:30Z</time>
      </trkpt>
      <trkpt lat="45.97583" lon="4.40831">
        <ele>773.04</ele>
        <time>2020-07-13T08:07:52Z</time>
      </trkpt>
      <trkpt lat="45.97585" lon="4.40817">
        <ele>774.48</ele>
        <time>2020-07-13T08:08:12Z</time>
      </trkpt>
      <trkpt lat="45.97589" lon="4.40799">
        <ele>776.88</ele>
        <time>2020-07-13T08:08:29Z</time>
      </trkpt>
      <trkpt lat="45.97596" lon="4.40784">
        <ele>777.84</ele>
        <time>2020-07-13T08:08:46Z</time>
      </trkpt>
      <trkpt lat="45.97603" lon="4.40765">
        <ele>779.29</ele>
        <time>2020-07-13T08:09:05Z</time>
      </trkpt>
      <trkpt lat="45.97619" lon="4.40753">
        <ele>780.73</ele>
        <time>2020-07-13T08:09:24Z</time>
      </trkpt>
      <trkpt lat="45.97629" lon="4.40735">
        <ele>782.65</ele>
        <time>2020-07-13T08:09:48Z</time>
      </trkpt>
      <trkpt lat="45.97647" lon="4.40708">
        <ele>785.05</ele>
        <time>2020-07-13T08:10:12Z</time>
      </trkpt>
      <trkpt lat="45.97662" lon="4.40698">
        <ele>786.98</ele>
        <time>2020-07-13T08:10:34Z</time>
      </trkpt>
      <trkpt lat="45.97673" lon="4.40687">
        <ele>787.94</ele>
        <time>2020-07-13T08:10:57Z</time>
      </trkpt>
      <trkpt lat="45.97692" lon="4.40671">
        <ele>788.42</ele>
        <time>2020-07-13T08:11:21Z</time>
      </trkpt>
      <trkpt lat="45.97712" lon="4.40663">
        <ele>788.9</ele>
        <time>2020-07-13T08:11:41Z</time>
      </trkpt>
      <trkpt lat="45.97737" lon="4.40655">
        <ele>788.9</ele>
        <time>2020-07-13T08:12:01Z</time>
      </trkpt>
      <trkpt lat="45.9776" lon="4.40643">
        <ele>789.38</ele>
        <time>2020-07-13T08:12:22Z</time>
      </trkpt>
      <trkpt lat="45.97781" lon="4.40613">
        <ele>789.86</ele>
        <time>2020-07-13T08:12:42Z</time>
      </trkpt>
      <trkpt lat="45.97802" lon="4.40607">
        <ele>790.34</ele>
        <time>2020-07-13T08:13:02Z</time>
      </trkpt>
      <trkpt lat="45.97827" lon="4.40596">
        <ele>791.3</ele>
        <time>2020-07-13T08:13:20Z</time>
      </trkpt>
      <trkpt lat="45.97844" lon="4.40583">
        <ele>791.3</ele>
        <time>2020-07-13T08:13:35Z</time>
      </trkpt>
      <trkpt lat="45.97846" lon="4.4058">
        <ele>791.3</ele>
        <time>2020-07-13T08:13:37Z</time>
      </trkpt>
      <trkpt lat="45.97856" lon="4.40564">
        <ele>791.78</ele>
        <time>2020-07-13T08:13:51Z</time>
      </trkpt>
      <trkpt lat="45.97866" lon="4.40544">
        <ele>791.78</ele>
        <time>2020-07-13T08:14:07Z</time>
      </trkpt>
      <trkpt lat="45.97869" lon="4.40538">
        <ele>792.26</ele>
        <time>2020-07-13T08:14:12Z</time>
      </trkpt>
      <trkpt lat="45.97878" lon="4.40516">
        <ele>792.74</ele>
        <time>2020-07-13T08:14:31Z</time>
      </trkpt>
      <trkpt lat="45.97882" lon="4.40515">
        <ele>794.19</ele>
        <time>2020-07-13T08:14:51Z</time>
      </trkpt>
      <trkpt lat="45.9789" lon="4.40526">
        <ele>797.55</ele>
        <time>2020-07-13T08:15:10Z</time>
      </trkpt>
      <trkpt lat="45.97896" lon="4.40546">
        <ele>799.95</ele>
        <time>2020-07-13T08:15:32Z</time>
      </trkpt>
      <trkpt lat="45.97902" lon="4.40558">
        <ele>802.84</ele>
        <time>2020-07-13T08:15:53Z</time>
      </trkpt>
      <trkpt lat="45.97906" lon="4.40571">
        <ele>806.2</ele>
        <time>2020-07-13T08:16:14Z</time>
      </trkpt>
      <trkpt lat="45.9791" lon="4.40589">
        <ele>809.57</ele>
        <time>2020-07-13T08:16:39Z</time>
      </trkpt>
      <trkpt lat="45.97921" lon="4.40602">
        <ele>812.93</ele>
        <time>2020-07-13T08:16:59Z</time>
      </trkpt>
      <trkpt lat="45.97925" lon="4.40615">
        <ele>815.34</ele>
        <time>2020-07-13T08:17:19Z</time>
      </trkpt>
      <trkpt lat="45.97929" lon="4.40633">
        <ele>818.7</ele>
        <time>2020-07-13T08:17:41Z</time>
      </trkpt>
      <trkpt lat="45.97938" lon="4.40651">
        <ele>821.58</ele>
        <time>2020-07-13T08:18:02Z</time>
      </trkpt>
      <trkpt lat="45.97941" lon="4.40671">
        <ele>824.47</ele>
        <time>2020-07-13T08:18:23Z</time>
      </trkpt>
      <trkpt lat="45.97951" lon="4.40687">
        <ele>827.83</ele>
        <time>2020-07-13T08:18:43Z</time>
      </trkpt>
      <trkpt lat="45.97957" lon="4.40699">
        <ele>828.79</ele>
        <time>2020-07-13T08:18:58Z</time>
      </trkpt>
      <trkpt lat="45.97965" lon="4.4071">
        <ele>829.27</ele>
        <time>2020-07-13T08:19:08Z</time>
      </trkpt>
      <trkpt lat="45.97969" lon="4.40713">
        <ele>829.27</ele>
        <time>2020-07-13T08:19:13Z</time>
      </trkpt>
      <trkpt lat="45.97974" lon="4.40722">
        <ele>829.27</ele>
        <time>2020-07-13T08:19:20Z</time>
      </trkpt>
      <trkpt lat="45.97982" lon="4.40747">
        <ele>829.27</ele>
        <time>2020-07-13T08:19:40Z</time>
      </trkpt>
      <trkpt lat="45.97992" lon="4.40774">
        <ele>829.76</ele>
        <time>2020-07-13T08:20:00Z</time>
      </trkpt>
      <trkpt lat="45.97993" lon="4.40776">
        <ele>829.76</ele>
        <time>2020-07-13T08:20:01Z</time>
      </trkpt>
      <trkpt lat="45.98004" lon="4.40805">
        <ele>830.24</ele>
        <time>2020-07-13T08:20:19Z</time>
      </trkpt>
      <trkpt lat="45.98015" lon="4.40828">
        <ele>830.24</ele>
        <time>2020-07-13T08:20:36Z</time>
      </trkpt>
      <trkpt lat="45.98025" lon="4.40858">
        <ele>830.72</ele>
        <time>2020-07-13T08:20:54Z</time>
      </trkpt>
      <trkpt lat="45.98034" lon="4.40883">
        <ele>830.72</ele>
        <time>2020-07-13T08:21:13Z</time>
      </trkpt>
      <trkpt lat="45.98043" lon="4.40908">
        <ele>829.76</ele>
        <time>2020-07-13T08:21:30Z</time>
      </trkpt>
      <trkpt lat="45.98049" lon="4.40928">
        <ele>829.76</ele>
        <time>2020-07-13T08:21:46Z</time>
      </trkpt>
      <trkpt lat="45.98059" lon="4.40956">
        <ele>830.72</ele>
        <time>2020-07-13T08:22:05Z</time>
      </trkpt>
      <trkpt lat="45.98073" lon="4.4098">
        <ele>830.72</ele>
        <time>2020-07-13T08:22:22Z</time>
      </trkpt>
      <trkpt lat="45.98084" lon="4.41001">
        <ele>830.72</ele>
        <time>2020-07-13T08:22:39Z</time>
      </trkpt>
      <trkpt lat="45.98092" lon="4.41024">
        <ele>830.72</ele>
        <time>2020-07-13T08:22:56Z</time>
      </trkpt>
      <trkpt lat="45.98097" lon="4.41045">
        <ele>830.72</ele>
        <time>2020-07-13T08:23:14Z</time>
      </trkpt>
      <trkpt lat="45.98093" lon="4.4107">
        <ele>833.6</ele>
        <time>2020-07-13T08:23:33Z</time>
      </trkpt>
      <trkpt lat="45.98095" lon="4.41111">
        <ele>835.04</ele>
        <time>2020-07-13T08:23:54Z</time>
      </trkpt>
      <trkpt lat="45.98101" lon="4.41138">
        <ele>835.52</ele>
        <time>2020-07-13T08:24:11Z</time>
      </trkpt>
      <trkpt lat="45.98112" lon="4.41169">
        <ele>833.6</ele>
        <time>2020-07-13T08:24:30Z</time>
      </trkpt>
      <trkpt lat="45.98115" lon="4.41174">
        <ele>833.6</ele>
        <time>2020-07-13T08:24:35Z</time>
      </trkpt>
      <trkpt lat="45.98125" lon="4.41194">
        <ele>833.6</ele>
        <time>2020-07-13T08:24:50Z</time>
      </trkpt>
      <trkpt lat="45.98123" lon="4.41228">
        <ele>833.6</ele>
        <time>2020-07-13T08:25:06Z</time>
      </trkpt>
      <trkpt lat="45.98123" lon="4.41243">
        <ele>833.6</ele>
        <time>2020-07-13T08:25:14Z</time>
      </trkpt>
      <trkpt lat="45.98124" lon="4.41251">
        <ele>833.6</ele>
        <time>2020-07-13T08:25:18Z</time>
      </trkpt>
      <trkpt lat="45.98131" lon="4.41276">
        <ele>833.6</ele>
        <time>2020-07-13T08:25:34Z</time>
      </trkpt>
      <trkpt lat="45.98136" lon="4.413">
        <ele>833.6</ele>
        <time>2020-07-13T08:25:49Z</time>
      </trkpt>
      <trkpt lat="45.98137" lon="4.41315">
        <ele>835.04</ele>
        <time>2020-07-13T08:25:59Z</time>
      </trkpt>
      <trkpt lat="45.98135" lon="4.41339">
        <ele>835.52</ele>
        <time>2020-07-13T08:26:14Z</time>
      </trkpt>
      <trkpt lat="45.9814" lon="4.41347">
        <ele>836</ele>
        <time>2020-07-13T08:26:21Z</time>
      </trkpt>
      <trkpt lat="45.98152" lon="4.41361">
        <ele>837.93</ele>
        <time>2020-07-13T08:26:38Z</time>
      </trkpt>
      <trkpt lat="45.98163" lon="4.41382">
        <ele>840.33</ele>
        <time>2020-07-13T08:26:59Z</time>
      </trkpt>
      <trkpt lat="45.98174" lon="4.41401">
        <ele>841.29</ele>
        <time>2020-07-13T08:27:17Z</time>
      </trkpt>
      <trkpt lat="45.98188" lon="4.41419">
        <ele>843.69</ele>
        <time>2020-07-13T08:27:39Z</time>
      </trkpt>
      <trkpt lat="45.98198" lon="4.41438">
        <ele>845.14</ele>
        <time>2020-07-13T08:27:55Z</time>
      </trkpt>
      <trkpt lat="45.98207" lon="4.41452">
        <ele>846.1</ele>
        <time>2020-07-13T08:28:09Z</time>
      </trkpt>
      <trkpt lat="45.98214" lon="4.41463">
        <ele>847.54</ele>
        <time>2020-07-13T08:28:21Z</time>
      </trkpt>
      <trkpt lat="45.98223" lon="4.41475">
        <ele>848.98</ele>
        <time>2020-07-13T08:28:35Z</time>
      </trkpt>
      <trkpt lat="45.98231" lon="4.41491">
        <ele>849.46</ele>
        <time>2020-07-13T08:28:49Z</time>
      </trkpt>
      <trkpt lat="45.98237" lon="4.41507">
        <ele>849.46</ele>
        <time>2020-07-13T08:29:02Z</time>
      </trkpt>
      <trkpt lat="45.98248" lon="4.41524">
        <ele>849.46</ele>
        <time>2020-07-13T08:29:19Z</time>
      </trkpt>
      <trkpt lat="45.98257" lon="4.41534">
        <ele>848.98</ele>
        <time>2020-07-13T08:29:36Z</time>
      </trkpt>
      <trkpt lat="45.98258" lon="4.4153">
        <ele>848.98</ele>
        <time>2020-07-13T08:30:00Z</time>
      </trkpt>
      <trkpt lat="45.98254" lon="4.4152">
        <ele>848.98</ele>
        <time>2020-07-13T08:30:20Z</time>
      </trkpt>
      <trkpt lat="45.98245" lon="4.41501">
        <ele>848.98</ele>
        <time>2020-07-13T08:30:40Z</time>
      </trkpt>
      <trkpt lat="45.98241" lon="4.41494">
        <ele>848.98</ele>
        <time>2020-07-13T08:30:47Z</time>
      </trkpt>
      <trkpt lat="45.98239" lon="4.41491">
        <ele>848.5</ele>
        <time>2020-07-13T08:30:50Z</time>
      </trkpt>
      <trkpt lat="45.9823" lon="4.41476">
        <ele>848.5</ele>
        <time>2020-07-13T08:31:05Z</time>
      </trkpt>
      <trkpt lat="45.98227" lon="4.41472">
        <ele>847.54</ele>
        <time>2020-07-13T08:31:10Z</time>
      </trkpt>
      <trkpt lat="45.98224" lon="4.41468">
        <ele>847.06</ele>
        <time>2020-07-13T08:31:14Z</time>
      </trkpt>
      <trkpt lat="45.98222" lon="4.41464">
        <ele>847.06</ele>
        <time>2020-07-13T08:31:18Z</time>
      </trkpt>
      <trkpt lat="45.98213" lon="4.41452">
        <ele>845.14</ele>
        <time>2020-07-13T08:31:30Z</time>
      </trkpt>
      <trkpt lat="45.98208" lon="4.41445">
        <ele>845.14</ele>
        <time>2020-07-13T08:31:38Z</time>
      </trkpt>
      <trkpt lat="45.98205" lon="4.41439">
        <ele>844.18</ele>
        <time>2020-07-13T08:31:44Z</time>
      </trkpt>
      <trkpt lat="45.98194" lon="4.41425">
        <ele>842.73</ele>
        <time>2020-07-13T08:31:59Z</time>
      </trkpt>
      <trkpt lat="45.9818" lon="4.41407">
        <ele>840.81</ele>
        <time>2020-07-13T08:32:17Z</time>
      </trkpt>
      <trkpt lat="45.9818" lon="4.41406">
        <ele>840.33</ele>
        <time>2020-07-13T08:32:18Z</time>
      </trkpt>
      <trkpt lat="45.98175" lon="4.41399">
        <ele>839.85</ele>
        <time>2020-07-13T08:32:25Z</time>
      </trkpt>
      <trkpt lat="45.98159" lon="4.4138">
        <ele>837.45</ele>
        <time>2020-07-13T08:32:44Z</time>
      </trkpt>
      <trkpt lat="45.98145" lon="4.41369">
        <ele>836.48</ele>
        <time>2020-07-13T08:33:00Z</time>
      </trkpt>
      <trkpt lat="45.9813" lon="4.41357">
        <ele>834.08</ele>
        <time>2020-07-13T08:33:15Z</time>
      </trkpt>
      <trkpt lat="45.98129" lon="4.41357">
        <ele>834.08</ele>
        <time>2020-07-13T08:33:16Z</time>
      </trkpt>
      <trkpt lat="45.98113" lon="4.41351">
        <ele>832.16</ele>
        <time>2020-07-13T08:33:32Z</time>
      </trkpt>
      <trkpt lat="45.98099" lon="4.41349">
        <ele>830.72</ele>
        <time>2020-07-13T08:33:50Z</time>
      </trkpt>
      <trkpt lat="45.98089" lon="4.41352">
        <ele>829.27</ele>
        <time>2020-07-13T08:34:10Z</time>
      </trkpt>
      <trkpt lat="45.98084" lon="4.4135">
        <ele>829.27</ele>
        <time>2020-07-13T08:34:29Z</time>
      </trkpt>
      <trkpt lat="45.98084" lon="4.41352">
        <ele>829.27</ele>
        <time>2020-07-13T08:34:47Z</time>
      </trkpt>
      <trkpt lat="45.98085" lon="4.41353">
        <ele>825.43</ele>
        <time>2020-07-13T08:35:01Z</time>
      </trkpt>
      <trkpt lat="45.98085" lon="4.41353">
        <ele>830.72</ele>
        <time>2020-07-13T08:35:02Z</time>
      </trkpt>
      <trkpt lat="45.98083" lon="4.41356">
        <ele>825.91</ele>
        <time>2020-07-13T08:35:22Z</time>
      </trkpt>
      <trkpt lat="45.98083" lon="4.41356">
        <ele>829.76</ele>
        <time>2020-07-13T08:35:26Z</time>
      </trkpt>
      <trkpt lat="45.98082" lon="4.41354">
        <ele>829.76</ele>
        <time>2020-07-13T08:35:54Z</time>
      </trkpt>
      <trkpt lat="45.98086" lon="4.41358">
        <ele>829.76</ele>
        <time>2020-07-13T08:36:20Z</time>
      </trkpt>
      <trkpt lat="45.98089" lon="4.41359">
        <ele>829.76</ele>
        <time>2020-07-13T08:36:43Z</time>
      </trkpt>
      <trkpt lat="45.98091" lon="4.41355">
        <ele>829.76</ele>
        <time>2020-07-13T08:37:10Z</time>
      </trkpt>
      <trkpt lat="45.98091" lon="4.41354">
        <ele>829.76</ele>
        <time>2020-07-13T08:37:35Z</time>
      </trkpt>
      <trkpt lat="45.98092" lon="4.41354">
        <ele>829.76</ele>
        <time>2020-07-13T08:37:53Z</time>
      </trkpt>
      <trkpt lat="45.98094" lon="4.41351">
        <ele>829.76</ele>
        <time>2020-07-13T08:38:19Z</time>
      </trkpt>
      <trkpt lat="45.9809" lon="4.41354">
        <ele>829.76</ele>
        <time>2020-07-13T08:38:48Z</time>
      </trkpt>
      <trkpt lat="45.9809" lon="4.41353">
        <ele>829.76</ele>
        <time>2020-07-13T08:39:17Z</time>
      </trkpt>
      <trkpt lat="45.98088" lon="4.41352">
        <ele>829.76</ele>
        <time>2020-07-13T08:39:37Z</time>
      </trkpt>
      <trkpt lat="45.98085" lon="4.4135">
        <ele>826.39</ele>
        <time>2020-07-13T08:39:54Z</time>
      </trkpt>
      <trkpt lat="45.98085" lon="4.41351">
        <ele>832.64</ele>
        <time>2020-07-13T08:39:55Z</time>
      </trkpt>
      <trkpt lat="45.98085" lon="4.41351">
        <ele>829.76</ele>
        <time>2020-07-13T08:39:56Z</time>
      </trkpt>
      <trkpt lat="45.98086" lon="4.41353">
        <ele>829.27</ele>
        <time>2020-07-13T08:40:14Z</time>
      </trkpt>
      <trkpt lat="45.98086" lon="4.41352">
        <ele>829.27</ele>
        <time>2020-07-13T08:40:40Z</time>
      </trkpt>
      <trkpt lat="45.98085" lon="4.41352">
        <ele>829.27</ele>
        <time>2020-07-13T08:40:57Z</time>
      </trkpt>
      <trkpt lat="45.98091" lon="4.41352">
        <ele>829.27</ele>
        <time>2020-07-13T08:41:17Z</time>
      </trkpt>
      <trkpt lat="45.98091" lon="4.41354">
        <ele>829.27</ele>
        <time>2020-07-13T08:41:44Z</time>
      </trkpt>
      <trkpt lat="45.98088" lon="4.41354">
        <ele>829.27</ele>
        <time>2020-07-13T08:42:05Z</time>
      </trkpt>
      <trkpt lat="45.98088" lon="4.41356">
        <ele>829.27</ele>
        <time>2020-07-13T08:42:34Z</time>
      </trkpt>
      <trkpt lat="45.98082" lon="4.41352">
        <ele>829.27</ele>
        <time>2020-07-13T08:43:09Z</time>
      </trkpt>
      <trkpt lat="45.9809" lon="4.41361">
        <ele>829.27</ele>
        <time>2020-07-13T08:43:38Z</time>
      </trkpt>
      <trkpt lat="45.98093" lon="4.41359">
        <ele>828.79</ele>
        <time>2020-07-13T08:44:06Z</time>
      </trkpt>
      <trkpt lat="45.98084" lon="4.41358">
        <ele>828.79</ele>
        <time>2020-07-13T08:44:39Z</time>
      </trkpt>
      <trkpt lat="45.98085" lon="4.41351">
        <ele>828.79</ele>
        <time>2020-07-13T08:45:11Z</time>
      </trkpt>
      <trkpt lat="45.98086" lon="4.41353">
        <ele>828.79</ele>
        <time>2020-07-13T08:45:38Z</time>
      </trkpt>
      <trkpt lat="45.98086" lon="4.41354">
        <ele>828.79</ele>
        <time>2020-07-13T08:46:00Z</time>
      </trkpt>
      <trkpt lat="45.98085" lon="4.41352">
        <ele>828.31</ele>
        <time>2020-07-13T08:46:33Z</time>
      </trkpt>
      <trkpt lat="45.98094" lon="4.41361">
        <ele>828.31</ele>
        <time>2020-07-13T08:46:58Z</time>
      </trkpt>
      <trkpt lat="45.98096" lon="4.41356">
        <ele>828.31</ele>
        <time>2020-07-13T08:47:28Z</time>
      </trkpt>
      <trkpt lat="45.98092" lon="4.41357">
        <ele>827.83</ele>
        <time>2020-07-13T08:48:05Z</time>
      </trkpt>
      <trkpt lat="45.98087" lon="4.41355">
        <ele>827.83</ele>
        <time>2020-07-13T08:48:42Z</time>
      </trkpt>
      <trkpt lat="45.98086" lon="4.41355">
        <ele>827.83</ele>
        <time>2020-07-13T08:49:09Z</time>
      </trkpt>
      <trkpt lat="45.98087" lon="4.41354">
        <ele>827.35</ele>
        <time>2020-07-13T08:49:37Z</time>
      </trkpt>
      <trkpt lat="45.98087" lon="4.41353">
        <ele>827.35</ele>
        <time>2020-07-13T08:50:01Z</time>
      </trkpt>
      <trkpt lat="45.98085" lon="4.41353">
        <ele>827.35</ele>
        <time>2020-07-13T08:50:33Z</time>
      </trkpt>
      <trkpt lat="45.98087" lon="4.41352">
        <ele>827.35</ele>
        <time>2020-07-13T08:50:57Z</time>
      </trkpt>
      <trkpt lat="45.98088" lon="4.41351">
        <ele>826.87</ele>
        <time>2020-07-13T08:51:18Z</time>
      </trkpt>
      <trkpt lat="45.98087" lon="4.4135">
        <ele>826.87</ele>
        <time>2020-07-13T08:51:51Z</time>
      </trkpt>
      <trkpt lat="45.98085" lon="4.41355">
        <ele>826.87</ele>
        <time>2020-07-13T08:52:13Z</time>
      </trkpt>
      <trkpt lat="45.98085" lon="4.41357">
        <ele>825.91</ele>
        <time>2020-07-13T08:52:32Z</time>
      </trkpt>
      <trkpt lat="45.98087" lon="4.41355">
        <ele>826.87</ele>
        <time>2020-07-13T08:53:00Z</time>
      </trkpt>
      <trkpt lat="45.98085" lon="4.41362">
        <ele>826.87</ele>
        <time>2020-07-13T08:53:25Z</time>
      </trkpt>
      <trkpt lat="45.98079" lon="4.41381">
        <ele>824.95</ele>
        <time>2020-07-13T08:53:43Z</time>
      </trkpt>
      <trkpt lat="45.98078" lon="4.41401">
        <ele>824.47</ele>
        <time>2020-07-13T08:54:00Z</time>
      </trkpt>
      <trkpt lat="45.98073" lon="4.41426">
        <ele>823.51</ele>
        <time>2020-07-13T08:54:17Z</time>
      </trkpt>
      <trkpt lat="45.98071" lon="4.41447">
        <ele>822.55</ele>
        <time>2020-07-13T08:54:39Z</time>
      </trkpt>
      <trkpt lat="45.98066" lon="4.41468">
        <ele>821.58</ele>
        <time>2020-07-13T08:54:58Z</time>
      </trkpt>
      <trkpt lat="45.9806" lon="4.41501">
        <ele>819.66</ele>
        <time>2020-07-13T08:55:18Z</time>
      </trkpt>
      <trkpt lat="45.98057" lon="4.41533">
        <ele>817.26</ele>
        <time>2020-07-13T08:55:38Z</time>
      </trkpt>
      <trkpt lat="45.98052" lon="4.41559">
        <ele>816.78</ele>
        <time>2020-07-13T08:55:58Z</time>
      </trkpt>
      <trkpt lat="45.98053" lon="4.41596">
        <ele>814.37</ele>
        <time>2020-07-13T08:56:20Z</time>
      </trkpt>
      <trkpt lat="45.98045" lon="4.41621">
        <ele>812.45</ele>
        <time>2020-07-13T08:56:42Z</time>
      </trkpt>
      <trkpt lat="45.98041" lon="4.41647">
        <ele>810.53</ele>
        <time>2020-07-13T08:57:02Z</time>
      </trkpt>
      <trkpt lat="45.98035" lon="4.4167">
        <ele>809.57</ele>
        <time>2020-07-13T08:57:19Z</time>
      </trkpt>
      <trkpt lat="45.98033" lon="4.41681">
        <ele>809.09</ele>
        <time>2020-07-13T08:57:26Z</time>
      </trkpt>
      <trkpt lat="45.98031" lon="4.41715">
        <ele>807.64</ele>
        <time>2020-07-13T08:57:45Z</time>
      </trkpt>
      <trkpt lat="45.98032" lon="4.41749">
        <ele>807.16</ele>
        <time>2020-07-13T08:58:02Z</time>
      </trkpt>
      <trkpt lat="45.98035" lon="4.4178">
        <ele>806.68</ele>
        <time>2020-07-13T08:58:21Z</time>
      </trkpt>
      <trkpt lat="45.98037" lon="4.418">
        <ele>804.76</ele>
        <time>2020-07-13T08:58:37Z</time>
      </trkpt>
      <trkpt lat="45.98044" lon="4.41827">
        <ele>803.32</ele>
        <time>2020-07-13T08:58:55Z</time>
      </trkpt>
      <trkpt lat="45.98053" lon="4.41851">
        <ele>800.44</ele>
        <time>2020-07-13T08:59:14Z</time>
      </trkpt>
      <trkpt lat="45.98064" lon="4.41868">
        <ele>798.51</ele>
        <time>2020-07-13T08:59:32Z</time>
      </trkpt>
      <trkpt lat="45.98068" lon="4.41873">
        <ele>798.03</ele>
        <time>2020-07-13T08:59:37Z</time>
      </trkpt>
      <trkpt lat="45.98088" lon="4.4189">
        <ele>796.59</ele>
        <time>2020-07-13T08:59:59Z</time>
      </trkpt>
      <trkpt lat="45.98105" lon="4.419">
        <ele>794.67</ele>
        <time>2020-07-13T09:00:17Z</time>
      </trkpt>
      <trkpt lat="45.98118" lon="4.41909">
        <ele>793.22</ele>
        <time>2020-07-13T09:00:32Z</time>
      </trkpt>
      <trkpt lat="45.98128" lon="4.4193">
        <ele>793.22</ele>
        <time>2020-07-13T09:00:49Z</time>
      </trkpt>
      <trkpt lat="45.98134" lon="4.41956">
        <ele>792.74</ele>
        <time>2020-07-13T09:01:09Z</time>
      </trkpt>
      <trkpt lat="45.98143" lon="4.41983">
        <ele>792.74</ele>
        <time>2020-07-13T09:01:27Z</time>
      </trkpt>
      <trkpt lat="45.9815" lon="4.42012">
        <ele>792.74</ele>
        <time>2020-07-13T09:01:46Z</time>
      </trkpt>
      <trkpt lat="45.98156" lon="4.42038">
        <ele>794.19</ele>
        <time>2020-07-13T09:02:03Z</time>
      </trkpt>
      <trkpt lat="45.98167" lon="4.42063">
        <ele>794.67</ele>
        <time>2020-07-13T09:02:21Z</time>
      </trkpt>
      <trkpt lat="45.9818" lon="4.42086">
        <ele>794.67</ele>
        <time>2020-07-13T09:02:37Z</time>
      </trkpt>
      <trkpt lat="45.98191" lon="4.42113">
        <ele>795.15</ele>
        <time>2020-07-13T09:02:56Z</time>
      </trkpt>
      <trkpt lat="45.98202" lon="4.4213">
        <ele>794.19</ele>
        <time>2020-07-13T09:03:10Z</time>
      </trkpt>
      <trkpt lat="45.98204" lon="4.42134">
        <ele>793.71</ele>
        <time>2020-07-13T09:03:14Z</time>
      </trkpt>
      <trkpt lat="45.98211" lon="4.42153">
        <ele>792.74</ele>
        <time>2020-07-13T09:03:32Z</time>
      </trkpt>
      <trkpt lat="45.98217" lon="4.42155">
        <ele>792.74</ele>
        <time>2020-07-13T09:03:49Z</time>
      </trkpt>
      <trkpt lat="45.98219" lon="4.42161">
        <ele>792.26</ele>
        <time>2020-07-13T09:04:05Z</time>
      </trkpt>
      <trkpt lat="45.98229" lon="4.42163">
        <ele>792.26</ele>
        <time>2020-07-13T09:04:26Z</time>
      </trkpt>
      <trkpt lat="45.98238" lon="4.42178">
        <ele>791.3</ele>
        <time>2020-07-13T09:04:41Z</time>
      </trkpt>
      <trkpt lat="45.98241" lon="4.42182">
        <ele>791.3</ele>
        <time>2020-07-13T09:04:44Z</time>
      </trkpt>
      <trkpt lat="45.9826" lon="4.42209">
        <ele>790.82</ele>
        <time>2020-07-13T09:05:04Z</time>
      </trkpt>
      <trkpt lat="45.98281" lon="4.42226">
        <ele>789.86</ele>
        <time>2020-07-13T09:05:23Z</time>
      </trkpt>
      <trkpt lat="45.983" lon="4.42242">
        <ele>789.38</ele>
        <time>2020-07-13T09:05:42Z</time>
      </trkpt>
      <trkpt lat="45.98318" lon="4.42273">
        <ele>788.9</ele>
        <time>2020-07-13T09:06:04Z</time>
      </trkpt>
      <trkpt lat="45.98335" lon="4.42297">
        <ele>788.42</ele>
        <time>2020-07-13T09:06:28Z</time>
      </trkpt>
      <trkpt lat="45.98346" lon="4.42328">
        <ele>788.42</ele>
        <time>2020-07-13T09:06:48Z</time>
      </trkpt>
      <trkpt lat="45.98361" lon="4.42353">
        <ele>788.42</ele>
        <time>2020-07-13T09:07:11Z</time>
      </trkpt>
      <trkpt lat="45.98376" lon="4.42361">
        <ele>787.94</ele>
        <time>2020-07-13T09:07:34Z</time>
      </trkpt>
      <trkpt lat="45.98392" lon="4.42377">
        <ele>787.46</ele>
        <time>2020-07-13T09:07:52Z</time>
      </trkpt>
      <trkpt lat="45.9842" lon="4.42385">
        <ele>786.98</ele>
        <time>2020-07-13T09:08:14Z</time>
      </trkpt>
      <trkpt lat="45.98443" lon="4.42389">
        <ele>786.98</ele>
        <time>2020-07-13T09:08:35Z</time>
      </trkpt>
      <trkpt lat="45.98461" lon="4.42409">
        <ele>786.98</ele>
        <time>2020-07-13T09:08:55Z</time>
      </trkpt>
      <trkpt lat="45.98476" lon="4.42425">
        <ele>786.98</ele>
        <time>2020-07-13T09:09:16Z</time>
      </trkpt>
      <trkpt lat="45.98493" lon="4.42437">
        <ele>789.38</ele>
        <time>2020-07-13T09:09:35Z</time>
      </trkpt>
      <trkpt lat="45.98513" lon="4.42457">
        <ele>790.34</ele>
        <time>2020-07-13T09:09:54Z</time>
      </trkpt>
      <trkpt lat="45.98534" lon="4.42481">
        <ele>791.3</ele>
        <time>2020-07-13T09:10:14Z</time>
      </trkpt>
      <trkpt lat="45.98549" lon="4.42492">
        <ele>792.74</ele>
        <time>2020-07-13T09:10:33Z</time>
      </trkpt>
      <trkpt lat="45.98553" lon="4.42491">
        <ele>792.74</ele>
        <time>2020-07-13T09:10:36Z</time>
      </trkpt>
      <trkpt lat="45.98574" lon="4.42493">
        <ele>793.71</ele>
        <time>2020-07-13T09:10:55Z</time>
      </trkpt>
      <trkpt lat="45.98596" lon="4.42487">
        <ele>794.67</ele>
        <time>2020-07-13T09:11:15Z</time>
      </trkpt>
      <trkpt lat="45.986" lon="4.42488">
        <ele>795.15</ele>
        <time>2020-07-13T09:11:19Z</time>
      </trkpt>
      <trkpt lat="45.98606" lon="4.42487">
        <ele>795.15</ele>
        <time>2020-07-13T09:11:24Z</time>
      </trkpt>
      <trkpt lat="45.98608" lon="4.42487">
        <ele>795.15</ele>
        <time>2020-07-13T09:11:26Z</time>
      </trkpt>
      <trkpt lat="45.98625" lon="4.42482">
        <ele>795.15</ele>
        <time>2020-07-13T09:11:43Z</time>
      </trkpt>
      <trkpt lat="45.98637" lon="4.42475">
        <ele>795.15</ele>
        <time>2020-07-13T09:11:52Z</time>
      </trkpt>
      <trkpt lat="45.9865" lon="4.42474">
        <ele>795.15</ele>
        <time>2020-07-13T09:12:09Z</time>
      </trkpt>
      <trkpt lat="45.98653" lon="4.42472">
        <ele>793.71</ele>
        <time>2020-07-13T09:12:19Z</time>
      </trkpt>
      <trkpt lat="45.98665" lon="4.42462">
        <ele>790.82</ele>
        <time>2020-07-13T09:12:39Z</time>
      </trkpt>
      <trkpt lat="45.98685" lon="4.42467">
        <ele>787.46</ele>
        <time>2020-07-13T09:12:57Z</time>
      </trkpt>
      <trkpt lat="45.98693" lon="4.42476">
        <ele>784.57</ele>
        <time>2020-07-13T09:13:15Z</time>
      </trkpt>
      <trkpt lat="45.98703" lon="4.42486">
        <ele>781.69</ele>
        <time>2020-07-13T09:13:34Z</time>
      </trkpt>
      <trkpt lat="45.98713" lon="4.42501">
        <ele>779.77</ele>
        <time>2020-07-13T09:13:50Z</time>
      </trkpt>
      <trkpt lat="45.98717" lon="4.42504">
        <ele>778.81</ele>
        <time>2020-07-13T09:13:56Z</time>
      </trkpt>
      <trkpt lat="45.9872" lon="4.42506">
        <ele>777.84</ele>
        <time>2020-07-13T09:13:59Z</time>
      </trkpt>
      <trkpt lat="45.98733" lon="4.42514">
        <ele>776.88</ele>
        <time>2020-07-13T09:14:11Z</time>
      </trkpt>
      <trkpt lat="45.98751" lon="4.42524">
        <ele>775.44</ele>
        <time>2020-07-13T09:14:25Z</time>
      </trkpt>
      <trkpt lat="45.98769" lon="4.42543">
        <ele>774.96</ele>
        <time>2020-07-13T09:14:45Z</time>
      </trkpt>
      <trkpt lat="45.98777" lon="4.42559">
        <ele>774.48</ele>
        <time>2020-07-13T09:14:59Z</time>
      </trkpt>
      <trkpt lat="45.9878" lon="4.42566">
        <ele>774.48</ele>
        <time>2020-07-13T09:15:18Z</time>
      </trkpt>
      <trkpt lat="45.98786" lon="4.42585">
        <ele>774</ele>
        <time>2020-07-13T09:15:35Z</time>
      </trkpt>
      <trkpt lat="45.98786" lon="4.42587">
        <ele>773.52</ele>
        <time>2020-07-13T09:15:36Z</time>
      </trkpt>
      <trkpt lat="45.98784" lon="4.42611">
        <ele>772.56</ele>
        <time>2020-07-13T09:15:53Z</time>
      </trkpt>
      <trkpt lat="45.98781" lon="4.42637">
        <ele>771.6</ele>
        <time>2020-07-13T09:16:11Z</time>
      </trkpt>
      <trkpt lat="45.98774" lon="4.42662">
        <ele>769.19</ele>
        <time>2020-07-13T09:16:28Z</time>
      </trkpt>
      <trkpt lat="45.98772" lon="4.42683">
        <ele>767.75</ele>
        <time>2020-07-13T09:16:42Z</time>
      </trkpt>
      <trkpt lat="45.9877" lon="4.42708">
        <ele>766.79</ele>
        <time>2020-07-13T09:16:59Z</time>
      </trkpt>
      <trkpt lat="45.98768" lon="4.42737">
        <ele>764.87</ele>
        <time>2020-07-13T09:17:17Z</time>
      </trkpt>
      <trkpt lat="45.98768" lon="4.42767">
        <ele>764.87</ele>
        <time>2020-07-13T09:17:33Z</time>
      </trkpt>
      <trkpt lat="45.98766" lon="4.42792">
        <ele>763.9</ele>
        <time>2020-07-13T09:17:49Z</time>
      </trkpt>
      <trkpt lat="45.98765" lon="4.42796">
        <ele>763.9</ele>
        <time>2020-07-13T09:17:51Z</time>
      </trkpt>
      <trkpt lat="45.9876" lon="4.42832">
        <ele>763.42</ele>
        <time>2020-07-13T09:18:14Z</time>
      </trkpt>
      <trkpt lat="45.98759" lon="4.42858">
        <ele>762.94</ele>
        <time>2020-07-13T09:18:29Z</time>
      </trkpt>
      <trkpt lat="45.9876" lon="4.42868">
        <ele>762.94</ele>
        <time>2020-07-13T09:18:34Z</time>
      </trkpt>
      <trkpt lat="45.98763" lon="4.42905">
        <ele>762.94</ele>
        <time>2020-07-13T09:18:53Z</time>
      </trkpt>
      <trkpt lat="45.98763" lon="4.42915">
        <ele>762.94</ele>
        <time>2020-07-13T09:18:59Z</time>
      </trkpt>
      <trkpt lat="45.9876" lon="4.42943">
        <ele>762.94</ele>
        <time>2020-07-13T09:19:15Z</time>
      </trkpt>
      <trkpt lat="45.9876" lon="4.42968">
        <ele>761.5</ele>
        <time>2020-07-13T09:19:30Z</time>
      </trkpt>
      <trkpt lat="45.98759" lon="4.42995">
        <ele>760.54</ele>
        <time>2020-07-13T09:19:47Z</time>
      </trkpt>
      <trkpt lat="45.98754" lon="4.43022">
        <ele>759.58</ele>
        <time>2020-07-13T09:20:03Z</time>
      </trkpt>
      <trkpt lat="45.98751" lon="4.43048">
        <ele>759.58</ele>
        <time>2020-07-13T09:20:19Z</time>
      </trkpt>
      <trkpt lat="45.98747" lon="4.43069">
        <ele>759.58</ele>
        <time>2020-07-13T09:20:32Z</time>
      </trkpt>
      <trkpt lat="45.98741" lon="4.43094">
        <ele>761.02</ele>
        <time>2020-07-13T09:20:47Z</time>
      </trkpt>
      <trkpt lat="45.98741" lon="4.43098">
        <ele>761.02</ele>
        <time>2020-07-13T09:20:50Z</time>
      </trkpt>
      <trkpt lat="45.98736" lon="4.43104">
        <ele>760.54</ele>
        <time>2020-07-13T09:20:55Z</time>
      </trkpt>
      <trkpt lat="45.98733" lon="4.43111">
        <ele>759.58</ele>
        <time>2020-07-13T09:21:00Z</time>
      </trkpt>
      <trkpt lat="45.98722" lon="4.43127">
        <ele>758.14</ele>
        <time>2020-07-13T09:21:15Z</time>
      </trkpt>
      <trkpt lat="45.9871" lon="4.43141">
        <ele>756.69</ele>
        <time>2020-07-13T09:21:29Z</time>
      </trkpt>
      <trkpt lat="45.98697" lon="4.43156">
        <ele>754.77</ele>
        <time>2020-07-13T09:21:45Z</time>
      </trkpt>
      <trkpt lat="45.98694" lon="4.43159">
        <ele>754.77</ele>
        <time>2020-07-13T09:21:48Z</time>
      </trkpt>
      <trkpt lat="45.98681" lon="4.43172">
        <ele>754.29</ele>
        <time>2020-07-13T09:22:03Z</time>
      </trkpt>
      <trkpt lat="45.98665" lon="4.43199">
        <ele>753.81</ele>
        <time>2020-07-13T09:22:22Z</time>
      </trkpt>
      <trkpt lat="45.98661" lon="4.43205">
        <ele>753.81</ele>
        <time>2020-07-13T09:22:27Z</time>
      </trkpt>
      <trkpt lat="45.98645" lon="4.43233">
        <ele>753.33</ele>
        <time>2020-07-13T09:22:46Z</time>
      </trkpt>
      <trkpt lat="45.98631" lon="4.43255">
        <ele>755.25</ele>
        <time>2020-07-13T09:23:04Z</time>
      </trkpt>
      <trkpt lat="45.98619" lon="4.43274">
        <ele>756.21</ele>
        <time>2020-07-13T09:23:20Z</time>
      </trkpt>
      <trkpt lat="45.98612" lon="4.43298">
        <ele>758.14</ele>
        <time>2020-07-13T09:23:36Z</time>
      </trkpt>
      <trkpt lat="45.98597" lon="4.43318">
        <ele>759.58</ele>
        <time>2020-07-13T09:23:53Z</time>
      </trkpt>
      <trkpt lat="45.98586" lon="4.43344">
        <ele>759.1</ele>
        <time>2020-07-13T09:24:11Z</time>
      </trkpt>
      <trkpt lat="45.98578" lon="4.43375">
        <ele>759.1</ele>
        <time>2020-07-13T09:24:27Z</time>
      </trkpt>
      <trkpt lat="45.98572" lon="4.43399">
        <ele>757.66</ele>
        <time>2020-07-13T09:24:42Z</time>
      </trkpt>
      <trkpt lat="45.98563" lon="4.43431">
        <ele>756.69</ele>
        <time>2020-07-13T09:24:59Z</time>
      </trkpt>
      <trkpt lat="45.98555" lon="4.43454">
        <ele>756.21</ele>
        <time>2020-07-13T09:25:14Z</time>
      </trkpt>
      <trkpt lat="45.9855" lon="4.43474">
        <ele>756.21</ele>
        <time>2020-07-13T09:25:28Z</time>
      </trkpt>
      <trkpt lat="45.98549" lon="4.43507">
        <ele>755.73</ele>
        <time>2020-07-13T09:25:45Z</time>
      </trkpt>
      <trkpt lat="45.98544" lon="4.43521">
        <ele>755.25</ele>
        <time>2020-07-13T09:25:56Z</time>
      </trkpt>
      <trkpt lat="45.98542" lon="4.43545">
        <ele>753.81</ele>
        <time>2020-07-13T09:26:10Z</time>
      </trkpt>
      <trkpt lat="45.98538" lon="4.4356">
        <ele>752.85</ele>
        <time>2020-07-13T09:26:19Z</time>
      </trkpt>
      <trkpt lat="45.98537" lon="4.43566">
        <ele>751.41</ele>
        <time>2020-07-13T09:26:24Z</time>
      </trkpt>
      <trkpt lat="45.98536" lon="4.4357">
        <ele>750.45</ele>
        <time>2020-07-13T09:26:27Z</time>
      </trkpt>
      <trkpt lat="45.98536" lon="4.43596">
        <ele>749.49</ele>
        <time>2020-07-13T09:26:45Z</time>
      </trkpt>
      <trkpt lat="45.98532" lon="4.43624">
        <ele>747.08</ele>
        <time>2020-07-13T09:27:03Z</time>
      </trkpt>
      <trkpt lat="45.98532" lon="4.43631">
        <ele>746.6</ele>
        <time>2020-07-13T09:27:08Z</time>
      </trkpt>
      <trkpt lat="45.98528" lon="4.43661">
        <ele>744.2</ele>
        <time>2020-07-13T09:27:27Z</time>
      </trkpt>
      <trkpt lat="45.98524" lon="4.4369">
        <ele>742.76</ele>
        <time>2020-07-13T09:27:44Z</time>
      </trkpt>
      <trkpt lat="45.98521" lon="4.4372">
        <ele>741.31</ele>
        <time>2020-07-13T09:28:02Z</time>
      </trkpt>
      <trkpt lat="45.98515" lon="4.43746">
        <ele>740.83</ele>
        <time>2020-07-13T09:28:18Z</time>
      </trkpt>
      <trkpt lat="45.98509" lon="4.43774">
        <ele>738.91</ele>
        <time>2020-07-13T09:28:35Z</time>
      </trkpt>
      <trkpt lat="45.98505" lon="4.43798">
        <ele>737.95</ele>
        <time>2020-07-13T09:28:50Z</time>
      </trkpt>
      <trkpt lat="45.98495" lon="4.43819">
        <ele>736.51</ele>
        <time>2020-07-13T09:29:07Z</time>
      </trkpt>
      <trkpt lat="45.98494" lon="4.43822">
        <ele>736.51</ele>
        <time>2020-07-13T09:29:09Z</time>
      </trkpt>
      <trkpt lat="45.98491" lon="4.4383">
        <ele>735.07</ele>
        <time>2020-07-13T09:29:27Z</time>
      </trkpt>
      <trkpt lat="45.98485" lon="4.43834">
        <ele>735.07</ele>
        <time>2020-07-13T09:29:41Z</time>
      </trkpt>
      <trkpt lat="45.98478" lon="4.43844">
        <ele>735.07</ele>
        <time>2020-07-13T09:29:54Z</time>
      </trkpt>
      <trkpt lat="45.98476" lon="4.43849">
        <ele>735.07</ele>
        <time>2020-07-13T09:30:15Z</time>
      </trkpt>
      <trkpt lat="45.98475" lon="4.43853">
        <ele>735.07</ele>
        <time>2020-07-13T09:30:36Z</time>
      </trkpt>
      <trkpt lat="45.98475" lon="4.43853">
        <ele>735.55</ele>
        <time>2020-07-13T09:30:58Z</time>
      </trkpt>
      <trkpt lat="45.98479" lon="4.43852">
        <ele>735.55</ele>
        <time>2020-07-13T09:31:21Z</time>
      </trkpt>
      <trkpt lat="45.98477" lon="4.43852">
        <ele>735.55</ele>
        <time>2020-07-13T09:31:45Z</time>
      </trkpt>
      <trkpt lat="45.98477" lon="4.43853">
        <ele>734.1</ele>
        <time>2020-07-13T09:31:48Z</time>
      </trkpt>
      <trkpt lat="45.98477" lon="4.43852">
        <ele>734.1</ele>
        <time>2020-07-13T09:32:06Z</time>
      </trkpt>
      <trkpt lat="45.98476" lon="4.43853">
        <ele>734.1</ele>
        <time>2020-07-13T09:32:26Z</time>
      </trkpt>
      <trkpt lat="45.98476" lon="4.43852">
        <ele>734.1</ele>
        <time>2020-07-13T09:33:00Z</time>
      </trkpt>
      <trkpt lat="45.98477" lon="4.43853">
        <ele>734.1</ele>
        <time>2020-07-13T09:33:26Z</time>
      </trkpt>
      <trkpt lat="45.98477" lon="4.43855">
        <ele>734.1</ele>
        <time>2020-07-13T09:33:45Z</time>
      </trkpt>
      <trkpt lat="45.98479" lon="4.43857">
        <ele>733.62</ele>
        <time>2020-07-13T09:34:14Z</time>
      </trkpt>
      <trkpt lat="45.9848" lon="4.43859">
        <ele>733.62</ele>
        <time>2020-07-13T09:34:35Z</time>
      </trkpt>
      <trkpt lat="45.98483" lon="4.43854">
        <ele>733.62</ele>
        <time>2020-07-13T09:34:53Z</time>
      </trkpt>
      <trkpt lat="45.98485" lon="4.43853">
        <ele>733.62</ele>
        <time>2020-07-13T09:35:12Z</time>
      </trkpt>
      <trkpt lat="45.98485" lon="4.43853">
        <ele>733.62</ele>
        <time>2020-07-13T09:35:32Z</time>
      </trkpt>
      <trkpt lat="45.98478" lon="4.43851">
        <ele>733.62</ele>
        <time>2020-07-13T09:35:47Z</time>
      </trkpt>
      <trkpt lat="45.98477" lon="4.43856">
        <ele>733.14</ele>
        <time>2020-07-13T09:36:07Z</time>
      </trkpt>
      <trkpt lat="45.98473" lon="4.43867">
        <ele>734.58</ele>
        <time>2020-07-13T09:36:20Z</time>
      </trkpt>
      <trkpt lat="45.98459" lon="4.43881">
        <ele>736.51</ele>
        <time>2020-07-13T09:36:38Z</time>
      </trkpt>
      <trkpt lat="45.98452" lon="4.43888">
        <ele>737.95</ele>
        <time>2020-07-13T09:36:53Z</time>
      </trkpt>
      <trkpt lat="45.9843" lon="4.43885">
        <ele>739.87</ele>
        <time>2020-07-13T09:37:12Z</time>
      </trkpt>
      <trkpt lat="45.98419" lon="4.43886">
        <ele>742.76</ele>
        <time>2020-07-13T09:37:33Z</time>
      </trkpt>
      <trkpt lat="45.98406" lon="4.4389">
        <ele>744.68</ele>
        <time>2020-07-13T09:37:52Z</time>
      </trkpt>
      <trkpt lat="45.98393" lon="4.43891">
        <ele>747.08</ele>
        <time>2020-07-13T09:38:10Z</time>
      </trkpt>
      <trkpt lat="45.98381" lon="4.43892">
        <ele>749.49</ele>
        <time>2020-07-13T09:38:29Z</time>
      </trkpt>
      <trkpt lat="45.98367" lon="4.43893">
        <ele>751.89</ele>
        <time>2020-07-13T09:38:46Z</time>
      </trkpt>
      <trkpt lat="45.98354" lon="4.43898">
        <ele>753.81</ele>
        <time>2020-07-13T09:39:04Z</time>
      </trkpt>
      <trkpt lat="45.98342" lon="4.43903">
        <ele>756.69</ele>
        <time>2020-07-13T09:39:22Z</time>
      </trkpt>
      <trkpt lat="45.98335" lon="4.43907">
        <ele>757.66</ele>
        <time>2020-07-13T09:39:40Z</time>
      </trkpt>
      <trkpt lat="45.98325" lon="4.43918">
        <ele>760.54</ele>
        <time>2020-07-13T09:40:04Z</time>
      </trkpt>
      <trkpt lat="45.98309" lon="4.43927">
        <ele>763.42</ele>
        <time>2020-07-13T09:40:23Z</time>
      </trkpt>
      <trkpt lat="45.98296" lon="4.43928">
        <ele>766.31</ele>
        <time>2020-07-13T09:40:44Z</time>
      </trkpt>
      <trkpt lat="45.98275" lon="4.43937">
        <ele>769.19</ele>
        <time>2020-07-13T09:41:04Z</time>
      </trkpt>
      <trkpt lat="45.98269" lon="4.43948">
        <ele>770.15</ele>
        <time>2020-07-13T09:41:15Z</time>
      </trkpt>
      <trkpt lat="45.9826" lon="4.43961">
        <ele>771.6</ele>
        <time>2020-07-13T09:41:27Z</time>
      </trkpt>
      <trkpt lat="45.98251" lon="4.43971">
        <ele>774</ele>
        <time>2020-07-13T09:41:42Z</time>
      </trkpt>
      <trkpt lat="45.98238" lon="4.43983">
        <ele>775.44</ele>
        <time>2020-07-13T09:41:58Z</time>
      </trkpt>
      <trkpt lat="45.98228" lon="4.43995">
        <ele>777.36</ele>
        <time>2020-07-13T09:42:16Z</time>
      </trkpt>
      <trkpt lat="45.98222" lon="4.44015">
        <ele>780.25</ele>
        <time>2020-07-13T09:42:35Z</time>
      </trkpt>
      <trkpt lat="45.98224" lon="4.44035">
        <ele>783.13</ele>
        <time>2020-07-13T09:42:54Z</time>
      </trkpt>
      <trkpt lat="45.98234" lon="4.44045">
        <ele>786.02</ele>
        <time>2020-07-13T09:43:12Z</time>
      </trkpt>
      <trkpt lat="45.98245" lon="4.4406">
        <ele>788.9</ele>
        <time>2020-07-13T09:43:32Z</time>
      </trkpt>
      <trkpt lat="45.98259" lon="4.44086">
        <ele>789.38</ele>
        <time>2020-07-13T09:43:49Z</time>
      </trkpt>
      <trkpt lat="45.98264" lon="4.44101">
        <ele>791.78</ele>
        <time>2020-07-13T09:44:07Z</time>
      </trkpt>
      <trkpt lat="45.98265" lon="4.44118">
        <ele>793.71</ele>
        <time>2020-07-13T09:44:24Z</time>
      </trkpt>
      <trkpt lat="45.98267" lon="4.44141">
        <ele>796.11</ele>
        <time>2020-07-13T09:44:42Z</time>
      </trkpt>
      <trkpt lat="45.98268" lon="4.44161">
        <ele>798.03</ele>
        <time>2020-07-13T09:44:58Z</time>
      </trkpt>
      <trkpt lat="45.98267" lon="4.44177">
        <ele>798.51</ele>
        <time>2020-07-13T09:45:10Z</time>
      </trkpt>
      <trkpt lat="45.98264" lon="4.44196">
        <ele>799.95</ele>
        <time>2020-07-13T09:45:26Z</time>
      </trkpt>
      <trkpt lat="45.98262" lon="4.44217">
        <ele>802.36</ele>
        <time>2020-07-13T09:45:42Z</time>
      </trkpt>
      <trkpt lat="45.9826" lon="4.44228">
        <ele>802.36</ele>
        <time>2020-07-13T09:45:51Z</time>
      </trkpt>
      <trkpt lat="45.98261" lon="4.44233">
        <ele>802.36</ele>
        <time>2020-07-13T09:45:55Z</time>
      </trkpt>
      <trkpt lat="45.98262" lon="4.44246">
        <ele>803.8</ele>
        <time>2020-07-13T09:46:04Z</time>
      </trkpt>
      <trkpt lat="45.98257" lon="4.44267">
        <ele>804.28</ele>
        <time>2020-07-13T09:46:21Z</time>
      </trkpt>
      <trkpt lat="45.98257" lon="4.4427">
        <ele>804.28</ele>
        <time>2020-07-13T09:46:23Z</time>
      </trkpt>
      <trkpt lat="45.98251" lon="4.44295">
        <ele>805.24</ele>
        <time>2020-07-13T09:46:40Z</time>
      </trkpt>
      <trkpt lat="45.9825" lon="4.44317">
        <ele>805.72</ele>
        <time>2020-07-13T09:46:55Z</time>
      </trkpt>
      <trkpt lat="45.9825" lon="4.44323">
        <ele>805.72</ele>
        <time>2020-07-13T09:46:59Z</time>
      </trkpt>
      <trkpt lat="45.98249" lon="4.44327">
        <ele>805.72</ele>
        <time>2020-07-13T09:47:02Z</time>
      </trkpt>
      <trkpt lat="45.9825" lon="4.44353">
        <ele>806.2</ele>
        <time>2020-07-13T09:47:18Z</time>
      </trkpt>
      <trkpt lat="45.98254" lon="4.44372">
        <ele>806.2</ele>
        <time>2020-07-13T09:47:27Z</time>
      </trkpt>
      <trkpt lat="45.98259" lon="4.44399">
        <ele>808.13</ele>
        <time>2020-07-13T09:47:43Z</time>
      </trkpt>
      <trkpt lat="45.98256" lon="4.44422">
        <ele>808.13</ele>
        <time>2020-07-13T09:47:57Z</time>
      </trkpt>
      <trkpt lat="45.98256" lon="4.44424">
        <ele>808.13</ele>
        <time>2020-07-13T09:47:58Z</time>
      </trkpt>
      <trkpt lat="45.98253" lon="4.4443">
        <ele>808.61</ele>
        <time>2020-07-13T09:48:02Z</time>
      </trkpt>
      <trkpt lat="45.98249" lon="4.44457">
        <ele>809.09</ele>
        <time>2020-07-13T09:48:19Z</time>
      </trkpt>
      <trkpt lat="45.98242" lon="4.44478">
        <ele>809.09</ele>
        <time>2020-07-13T09:48:32Z</time>
      </trkpt>
      <trkpt lat="45.98237" lon="4.44497">
        <ele>809.09</ele>
        <time>2020-07-13T09:48:45Z</time>
      </trkpt>
      <trkpt lat="45.98233" lon="4.44503">
        <ele>809.09</ele>
        <time>2020-07-13T09:48:49Z</time>
      </trkpt>
      <trkpt lat="45.98223" lon="4.44524">
        <ele>809.57</ele>
        <time>2020-07-13T09:49:05Z</time>
      </trkpt>
      <trkpt lat="45.98218" lon="4.44532">
        <ele>810.05</ele>
        <time>2020-07-13T09:49:12Z</time>
      </trkpt>
      <trkpt lat="45.98208" lon="4.44549">
        <ele>810.53</ele>
        <time>2020-07-13T09:49:25Z</time>
      </trkpt>
      <trkpt lat="45.98196" lon="4.44563">
        <ele>811.49</ele>
        <time>2020-07-13T09:49:39Z</time>
      </trkpt>
      <trkpt lat="45.98187" lon="4.44574">
        <ele>811.97</ele>
        <time>2020-07-13T09:49:51Z</time>
      </trkpt>
      <trkpt lat="45.98179" lon="4.44578">
        <ele>812.93</ele>
        <time>2020-07-13T09:49:59Z</time>
      </trkpt>
      <trkpt lat="45.98164" lon="4.44584">
        <ele>814.37</ele>
        <time>2020-07-13T09:50:15Z</time>
      </trkpt>
      <trkpt lat="45.98155" lon="4.44584">
        <ele>815.34</ele>
        <time>2020-07-13T09:50:25Z</time>
      </trkpt>
      <trkpt lat="45.98141" lon="4.44585">
        <ele>816.3</ele>
        <time>2020-07-13T09:50:39Z</time>
      </trkpt>
      <trkpt lat="45.98139" lon="4.44585">
        <ele>816.78</ele>
        <time>2020-07-13T09:50:42Z</time>
      </trkpt>
      <trkpt lat="45.98134" lon="4.44586">
        <ele>817.26</ele>
        <time>2020-07-13T09:50:47Z</time>
      </trkpt>
      <trkpt lat="45.9813" lon="4.44587">
        <ele>818.22</ele>
        <time>2020-07-13T09:50:52Z</time>
      </trkpt>
      <trkpt lat="45.98127" lon="4.44588">
        <ele>818.22</ele>
        <time>2020-07-13T09:50:55Z</time>
      </trkpt>
      <trkpt lat="45.98117" lon="4.44592">
        <ele>820.14</ele>
        <time>2020-07-13T09:51:10Z</time>
      </trkpt>
      <trkpt lat="45.98106" lon="4.44595">
        <ele>822.06</ele>
        <time>2020-07-13T09:51:25Z</time>
      </trkpt>
      <trkpt lat="45.98097" lon="4.44596">
        <ele>823.03</ele>
        <time>2020-07-13T09:51:39Z</time>
      </trkpt>
      <trkpt lat="45.98093" lon="4.44597">
        <ele>823.51</ele>
        <time>2020-07-13T09:51:45Z</time>
      </trkpt>
      <trkpt lat="45.98082" lon="4.44599">
        <ele>824.95</ele>
        <time>2020-07-13T09:51:59Z</time>
      </trkpt>
      <trkpt lat="45.98068" lon="4.44599">
        <ele>825.91</ele>
        <time>2020-07-13T09:52:15Z</time>
      </trkpt>
      <trkpt lat="45.9805" lon="4.44594">
        <ele>826.39</ele>
        <time>2020-07-13T09:52:30Z</time>
      </trkpt>
      <trkpt lat="45.98034" lon="4.44593">
        <ele>827.35</ele>
        <time>2020-07-13T09:52:45Z</time>
      </trkpt>
      <trkpt lat="45.98019" lon="4.446">
        <ele>827.83</ele>
        <time>2020-07-13T09:53:00Z</time>
      </trkpt>
      <trkpt lat="45.98008" lon="4.44606">
        <ele>829.27</ele>
        <time>2020-07-13T09:53:13Z</time>
      </trkpt>
      <trkpt lat="45.97995" lon="4.44616">
        <ele>831.2</ele>
        <time>2020-07-13T09:53:29Z</time>
      </trkpt>
      <trkpt lat="45.97981" lon="4.44622">
        <ele>832.16</ele>
        <time>2020-07-13T09:53:46Z</time>
      </trkpt>
      <trkpt lat="45.97962" lon="4.44625">
        <ele>833.6</ele>
        <time>2020-07-13T09:54:06Z</time>
      </trkpt>
      <trkpt lat="45.97942" lon="4.44634">
        <ele>834.08</ele>
        <time>2020-07-13T09:54:26Z</time>
      </trkpt>
      <trkpt lat="45.97927" lon="4.44646">
        <ele>836</ele>
        <time>2020-07-13T09:54:44Z</time>
      </trkpt>
      <trkpt lat="45.97911" lon="4.44653">
        <ele>837.45</ele>
        <time>2020-07-13T09:55:03Z</time>
      </trkpt>
      <trkpt lat="45.97888" lon="4.44671">
        <ele>838.89</ele>
        <time>2020-07-13T09:55:25Z</time>
      </trkpt>
      <trkpt lat="45.97866" lon="4.44681">
        <ele>840.33</ele>
        <time>2020-07-13T09:55:42Z</time>
      </trkpt>
      <trkpt lat="45.97847" lon="4.44685">
        <ele>840.81</ele>
        <time>2020-07-13T09:56:04Z</time>
      </trkpt>
      <trkpt lat="45.97842" lon="4.44684">
        <ele>839.85</ele>
        <time>2020-07-13T09:56:10Z</time>
      </trkpt>
      <trkpt lat="45.9782" lon="4.44682">
        <ele>839.85</ele>
        <time>2020-07-13T09:56:29Z</time>
      </trkpt>
      <trkpt lat="45.97806" lon="4.44688">
        <ele>839.85</ele>
        <time>2020-07-13T09:56:44Z</time>
      </trkpt>
      <trkpt lat="45.97805" lon="4.44688">
        <ele>839.85</ele>
        <time>2020-07-13T09:56:45Z</time>
      </trkpt>
      <trkpt lat="45.97797" lon="4.44691">
        <ele>839.85</ele>
        <time>2020-07-13T09:56:52Z</time>
      </trkpt>
      <trkpt lat="45.97782" lon="4.44694">
        <ele>839.85</ele>
        <time>2020-07-13T09:57:07Z</time>
      </trkpt>
      <trkpt lat="45.97765" lon="4.447">
        <ele>841.77</ele>
        <time>2020-07-13T09:57:23Z</time>
      </trkpt>
      <trkpt lat="45.97753" lon="4.44708">
        <ele>843.69</ele>
        <time>2020-07-13T09:57:40Z</time>
      </trkpt>
      <trkpt lat="45.9774" lon="4.44711">
        <ele>845.62</ele>
        <time>2020-07-13T09:57:56Z</time>
      </trkpt>
      <trkpt lat="45.97721" lon="4.44715">
        <ele>847.54</ele>
        <time>2020-07-13T09:58:11Z</time>
      </trkpt>
      <trkpt lat="45.97708" lon="4.44725">
        <ele>850.42</ele>
        <time>2020-07-13T09:58:28Z</time>
      </trkpt>
      <trkpt lat="45.97694" lon="4.44734">
        <ele>852.83</ele>
        <time>2020-07-13T09:58:46Z</time>
      </trkpt>
      <trkpt lat="45.97682" lon="4.44743">
        <ele>854.75</ele>
        <time>2020-07-13T09:59:04Z</time>
      </trkpt>
      <trkpt lat="45.97682" lon="4.44735">
        <ele>857.63</ele>
        <time>2020-07-13T09:59:21Z</time>
      </trkpt>
      <trkpt lat="45.97684" lon="4.4474">
        <ele>857.63</ele>
        <time>2020-07-13T09:59:45Z</time>
      </trkpt>
      <trkpt lat="45.97684" lon="4.44744">
        <ele>856.67</ele>
        <time>2020-07-13T10:00:12Z</time>
      </trkpt>
      <trkpt lat="45.97678" lon="4.44746">
        <ele>857.63</ele>
        <time>2020-07-13T10:00:45Z</time>
      </trkpt>
      <trkpt lat="45.97673" lon="4.44749">
        <ele>857.63</ele>
        <time>2020-07-13T10:01:16Z</time>
      </trkpt>
      <trkpt lat="45.97674" lon="4.44744">
        <ele>858.11</ele>
        <time>2020-07-13T10:01:44Z</time>
      </trkpt>
      <trkpt lat="45.97674" lon="4.44743">
        <ele>858.59</ele>
        <time>2020-07-13T10:02:12Z</time>
      </trkpt>
      <trkpt lat="45.9768" lon="4.44744">
        <ele>857.15</ele>
        <time>2020-07-13T10:02:35Z</time>
      </trkpt>
      <trkpt lat="45.97678" lon="4.44771">
        <ele>855.23</ele>
        <time>2020-07-13T10:02:52Z</time>
      </trkpt>
      <trkpt lat="45.9765" lon="4.44788">
        <ele>854.75</ele>
        <time>2020-07-13T10:03:11Z</time>
      </trkpt>
      <trkpt lat="45.97638" lon="4.44797">
        <ele>853.31</ele>
        <time>2020-07-13T10:03:22Z</time>
      </trkpt>
      <trkpt lat="45.9762" lon="4.44815">
        <ele>852.35</ele>
        <time>2020-07-13T10:03:37Z</time>
      </trkpt>
      <trkpt lat="45.97592" lon="4.44837">
        <ele>851.87</ele>
        <time>2020-07-13T10:03:56Z</time>
      </trkpt>
      <trkpt lat="45.9757" lon="4.44854">
        <ele>851.87</ele>
        <time>2020-07-13T10:04:12Z</time>
      </trkpt>
      <trkpt lat="45.97555" lon="4.44885">
        <ele>849.94</ele>
        <time>2020-07-13T10:04:31Z</time>
      </trkpt>
      <trkpt lat="45.97545" lon="4.44913">
        <ele>847.54</ele>
        <time>2020-07-13T10:04:47Z</time>
      </trkpt>
      <trkpt lat="45.97529" lon="4.44954">
        <ele>844.66</ele>
        <time>2020-07-13T10:05:10Z</time>
      </trkpt>
      <trkpt lat="45.97511" lon="4.44987">
        <ele>842.25</ele>
        <time>2020-07-13T10:05:29Z</time>
      </trkpt>
      <trkpt lat="45.97497" lon="4.44995">
        <ele>840.81</ele>
        <time>2020-07-13T10:05:41Z</time>
      </trkpt>
      <trkpt lat="45.97465" lon="4.45014">
        <ele>838.89</ele>
        <time>2020-07-13T10:06:05Z</time>
      </trkpt>
      <trkpt lat="45.97439" lon="4.45028">
        <ele>836</ele>
        <time>2020-07-13T10:06:24Z</time>
      </trkpt>
      <trkpt lat="45.97423" lon="4.45045">
        <ele>833.12</ele>
        <time>2020-07-13T10:06:41Z</time>
      </trkpt>
      <trkpt lat="45.97408" lon="4.45056">
        <ele>829.76</ele>
        <time>2020-07-13T10:06:58Z</time>
      </trkpt>
      <trkpt lat="45.97393" lon="4.4506">
        <ele>826.87</ele>
        <time>2020-07-13T10:07:16Z</time>
      </trkpt>
      <trkpt lat="45.97382" lon="4.45075">
        <ele>823.99</ele>
        <time>2020-07-13T10:07:33Z</time>
      </trkpt>
      <trkpt lat="45.97373" lon="4.45096">
        <ele>820.62</ele>
        <time>2020-07-13T10:07:49Z</time>
      </trkpt>
      <trkpt lat="45.97366" lon="4.45114">
        <ele>817.74</ele>
        <time>2020-07-13T10:08:03Z</time>
      </trkpt>
      <trkpt lat="45.97355" lon="4.45135">
        <ele>814.85</ele>
        <time>2020-07-13T10:08:21Z</time>
      </trkpt>
      <trkpt lat="45.9734" lon="4.45154">
        <ele>811.97</ele>
        <time>2020-07-13T10:08:41Z</time>
      </trkpt>
      <trkpt lat="45.97324" lon="4.45173">
        <ele>809.57</ele>
        <time>2020-07-13T10:09:00Z</time>
      </trkpt>
      <trkpt lat="45.97311" lon="4.45186">
        <ele>806.68</ele>
        <time>2020-07-13T10:09:17Z</time>
      </trkpt>
      <trkpt lat="45.97305" lon="4.45206">
        <ele>804.28</ele>
        <time>2020-07-13T10:09:34Z</time>
      </trkpt>
      <trkpt lat="45.97301" lon="4.45227">
        <ele>802.36</ele>
        <time>2020-07-13T10:09:51Z</time>
      </trkpt>
      <trkpt lat="45.973" lon="4.45229">
        <ele>802.36</ele>
        <time>2020-07-13T10:09:52Z</time>
      </trkpt>
      <trkpt lat="45.97288" lon="4.45241">
        <ele>800.92</ele>
        <time>2020-07-13T10:10:07Z</time>
      </trkpt>
      <trkpt lat="45.97278" lon="4.45237">
        <ele>799.95</ele>
        <time>2020-07-13T10:10:24Z</time>
      </trkpt>
      <trkpt lat="45.97279" lon="4.45236">
        <ele>796.59</ele>
        <time>2020-07-13T10:10:29Z</time>
      </trkpt>
      <trkpt lat="45.97279" lon="4.45236">
        <ele>800.44</ele>
        <time>2020-07-13T10:10:30Z</time>
      </trkpt>
      <trkpt lat="45.9728" lon="4.45237">
        <ele>798.99</ele>
        <time>2020-07-13T10:10:31Z</time>
      </trkpt>
      <trkpt lat="45.97282" lon="4.45244">
        <ele>798.51</ele>
        <time>2020-07-13T10:11:05Z</time>
      </trkpt>
      <trkpt lat="45.97281" lon="4.45245">
        <ele>801.88</ele>
        <time>2020-07-13T10:11:16Z</time>
      </trkpt>
      <trkpt lat="45.97279" lon="4.45243">
        <ele>799.95</ele>
        <time>2020-07-13T10:11:17Z</time>
      </trkpt>
      <trkpt lat="45.97281" lon="4.45244">
        <ele>798.99</ele>
        <time>2020-07-13T10:11:30Z</time>
      </trkpt>
      <trkpt lat="45.97281" lon="4.45247">
        <ele>798.51</ele>
        <time>2020-07-13T10:12:04Z</time>
      </trkpt>
      <trkpt lat="45.97281" lon="4.45241">
        <ele>792.74</ele>
        <time>2020-07-13T10:12:13Z</time>
      </trkpt>
      <trkpt lat="45.97281" lon="4.4524">
        <ele>799.47</ele>
        <time>2020-07-13T10:12:14Z</time>
      </trkpt>
      <trkpt lat="45.97281" lon="4.45237">
        <ele>798.03</ele>
        <time>2020-07-13T10:12:17Z</time>
      </trkpt>
      <trkpt lat="45.97283" lon="4.45236">
        <ele>800.44</ele>
        <time>2020-07-13T10:12:24Z</time>
      </trkpt>
      <trkpt lat="45.97281" lon="4.4524">
        <ele>798.99</ele>
        <time>2020-07-13T10:12:26Z</time>
      </trkpt>
      <trkpt lat="45.97283" lon="4.45248">
        <ele>798.51</ele>
        <time>2020-07-13T10:12:44Z</time>
      </trkpt>
      <trkpt lat="45.97281" lon="4.45253">
        <ele>798.03</ele>
        <time>2020-07-13T10:13:05Z</time>
      </trkpt>
      <trkpt lat="45.97281" lon="4.45251">
        <ele>798.03</ele>
        <time>2020-07-13T10:13:38Z</time>
      </trkpt>
      <trkpt lat="45.97282" lon="4.45252">
        <ele>797.55</ele>
        <time>2020-07-13T10:14:14Z</time>
      </trkpt>
      <trkpt lat="45.97284" lon="4.45251">
        <ele>797.55</ele>
        <time>2020-07-13T10:14:48Z</time>
      </trkpt>
      <trkpt lat="45.97282" lon="4.45246">
        <ele>798.51</ele>
        <time>2020-07-13T10:15:09Z</time>
      </trkpt>
      <trkpt lat="45.97281" lon="4.45244">
        <ele>793.22</ele>
        <time>2020-07-13T10:15:25Z</time>
      </trkpt>
      <trkpt lat="45.97281" lon="4.45244">
        <ele>793.22</ele>
        <time>2020-07-13T10:15:26Z</time>
      </trkpt>
      <trkpt lat="45.97281" lon="4.45244">
        <ele>804.76</ele>
        <time>2020-07-13T10:15:27Z</time>
      </trkpt>
      <trkpt lat="45.97282" lon="4.45244">
        <ele>798.03</ele>
        <time>2020-07-13T10:15:28Z</time>
      </trkpt>
      <trkpt lat="45.97284" lon="4.45244">
        <ele>797.55</ele>
        <time>2020-07-13T10:15:53Z</time>
      </trkpt>
      <trkpt lat="45.97279" lon="4.45242">
        <ele>797.55</ele>
        <time>2020-07-13T10:16:14Z</time>
      </trkpt>
      <trkpt lat="45.9728" lon="4.45243">
        <ele>797.07</ele>
        <time>2020-07-13T10:16:34Z</time>
      </trkpt>
      <trkpt lat="45.97279" lon="4.45237">
        <ele>796.59</ele>
        <time>2020-07-13T10:16:54Z</time>
      </trkpt>
      <trkpt lat="45.97276" lon="4.45237">
        <ele>798.03</ele>
        <time>2020-07-13T10:17:13Z</time>
      </trkpt>
      <trkpt lat="45.97274" lon="4.45234">
        <ele>798.03</ele>
        <time>2020-07-13T10:17:17Z</time>
      </trkpt>
      <trkpt lat="45.97268" lon="4.45226">
        <ele>796.59</ele>
        <time>2020-07-13T10:17:25Z</time>
      </trkpt>
      <trkpt lat="45.97261" lon="4.45212">
        <ele>795.63</ele>
        <time>2020-07-13T10:17:39Z</time>
      </trkpt>
      <trkpt lat="45.9725" lon="4.45191">
        <ele>793.22</ele>
        <time>2020-07-13T10:18:01Z</time>
      </trkpt>
      <trkpt lat="45.97242" lon="4.4517">
        <ele>791.3</ele>
        <time>2020-07-13T10:18:18Z</time>
      </trkpt>
      <trkpt lat="45.97233" lon="4.45147">
        <ele>787.94</ele>
        <time>2020-07-13T10:18:36Z</time>
      </trkpt>
      <trkpt lat="45.97232" lon="4.45145">
        <ele>787.94</ele>
        <time>2020-07-13T10:18:38Z</time>
      </trkpt>
      <trkpt lat="45.97231" lon="4.45142">
        <ele>786.98</ele>
        <time>2020-07-13T10:18:40Z</time>
      </trkpt>
      <trkpt lat="45.9722" lon="4.45113">
        <ele>784.09</ele>
        <time>2020-07-13T10:19:02Z</time>
      </trkpt>
      <trkpt lat="45.97213" lon="4.45088">
        <ele>781.21</ele>
        <time>2020-07-13T10:19:22Z</time>
      </trkpt>
      <trkpt lat="45.97209" lon="4.45061">
        <ele>780.25</ele>
        <time>2020-07-13T10:19:38Z</time>
      </trkpt>
      <trkpt lat="45.97206" lon="4.45042">
        <ele>779.29</ele>
        <time>2020-07-13T10:19:52Z</time>
      </trkpt>
      <trkpt lat="45.97201" lon="4.45025">
        <ele>777.36</ele>
        <time>2020-07-13T10:20:05Z</time>
      </trkpt>
      <trkpt lat="45.97197" lon="4.45012">
        <ele>775.44</ele>
        <time>2020-07-13T10:20:22Z</time>
      </trkpt>
      <trkpt lat="45.97197" lon="4.45006">
        <ele>774</ele>
        <time>2020-07-13T10:20:46Z</time>
      </trkpt>
      <trkpt lat="45.97195" lon="4.44996">
        <ele>773.04</ele>
        <time>2020-07-13T10:21:00Z</time>
      </trkpt>
      <trkpt lat="45.97187" lon="4.44985">
        <ele>771.11</ele>
        <time>2020-07-13T10:21:16Z</time>
      </trkpt>
      <trkpt lat="45.97181" lon="4.44977">
        <ele>770.15</ele>
        <time>2020-07-13T10:21:33Z</time>
      </trkpt>
      <trkpt lat="45.97173" lon="4.44954">
        <ele>767.75</ele>
        <time>2020-07-13T10:21:53Z</time>
      </trkpt>
      <trkpt lat="45.97165" lon="4.4493">
        <ele>763.9</ele>
        <time>2020-07-13T10:22:13Z</time>
      </trkpt>
      <trkpt lat="45.97155" lon="4.44905">
        <ele>761.5</ele>
        <time>2020-07-13T10:22:33Z</time>
      </trkpt>
      <trkpt lat="45.97143" lon="4.44878">
        <ele>759.58</ele>
        <time>2020-07-13T10:22:53Z</time>
      </trkpt>
      <trkpt lat="45.97133" lon="4.44846">
        <ele>758.62</ele>
        <time>2020-07-13T10:23:13Z</time>
      </trkpt>
      <trkpt lat="45.97128" lon="4.44835">
        <ele>757.18</ele>
        <time>2020-07-13T10:23:21Z</time>
      </trkpt>
      <trkpt lat="45.97119" lon="4.44813">
        <ele>755.73</ele>
        <time>2020-07-13T10:23:36Z</time>
      </trkpt>
      <trkpt lat="45.97111" lon="4.44785">
        <ele>754.77</ele>
        <time>2020-07-13T10:23:57Z</time>
      </trkpt>
      <trkpt lat="45.97109" lon="4.44755">
        <ele>752.85</ele>
        <time>2020-07-13T10:24:16Z</time>
      </trkpt>
      <trkpt lat="45.97104" lon="4.44724">
        <ele>749.97</ele>
        <time>2020-07-13T10:24:36Z</time>
      </trkpt>
      <trkpt lat="45.97097" lon="4.44707">
        <ele>748.04</ele>
        <time>2020-07-13T10:24:52Z</time>
      </trkpt>
      <trkpt lat="45.97089" lon="4.447">
        <ele>746.12</ele>
        <time>2020-07-13T10:25:02Z</time>
      </trkpt>
      <trkpt lat="45.97081" lon="4.44705">
        <ele>745.64</ele>
        <time>2020-07-13T10:25:24Z</time>
      </trkpt>
      <trkpt lat="45.97072" lon="4.44701">
        <ele>744.2</ele>
        <time>2020-07-13T10:25:43Z</time>
      </trkpt>
      <trkpt lat="45.97071" lon="4.447">
        <ele>744.2</ele>
        <time>2020-07-13T10:26:03Z</time>
      </trkpt>
      <trkpt lat="45.97064" lon="4.4469">
        <ele>745.16</ele>
        <time>2020-07-13T10:26:20Z</time>
      </trkpt>
      <trkpt lat="45.97055" lon="4.44677">
        <ele>748.04</ele>
        <time>2020-07-13T10:26:35Z</time>
      </trkpt>
      <trkpt lat="45.97047" lon="4.44661">
        <ele>749</ele>
        <time>2020-07-13T10:26:52Z</time>
      </trkpt>
      <trkpt lat="45.97035" lon="4.44641">
        <ele>750.45</ele>
        <time>2020-07-13T10:27:11Z</time>
      </trkpt>
      <trkpt lat="45.97021" lon="4.44621">
        <ele>750.45</ele>
        <time>2020-07-13T10:27:28Z</time>
      </trkpt>
      <trkpt lat="45.97008" lon="4.44604">
        <ele>750.93</ele>
        <time>2020-07-13T10:27:45Z</time>
      </trkpt>
      <trkpt lat="45.96991" lon="4.44591">
        <ele>751.41</ele>
        <time>2020-07-13T10:28:04Z</time>
      </trkpt>
      <trkpt lat="45.9698" lon="4.44579">
        <ele>751.89</ele>
        <time>2020-07-13T10:28:21Z</time>
      </trkpt>
      <trkpt lat="45.96977" lon="4.44574">
        <ele>752.37</ele>
        <time>2020-07-13T10:28:30Z</time>
      </trkpt>
      <trkpt lat="45.96956" lon="4.44561">
        <ele>753.81</ele>
        <time>2020-07-13T10:28:49Z</time>
      </trkpt>
      <trkpt lat="45.96951" lon="4.4456">
        <ele>753.81</ele>
        <time>2020-07-13T10:28:54Z</time>
      </trkpt>
      <trkpt lat="45.96934" lon="4.44559">
        <ele>753.81</ele>
        <time>2020-07-13T10:29:10Z</time>
      </trkpt>
      <trkpt lat="45.96917" lon="4.44554">
        <ele>753.33</ele>
        <time>2020-07-13T10:29:24Z</time>
      </trkpt>
      <trkpt lat="45.96898" lon="4.44552">
        <ele>754.77</ele>
        <time>2020-07-13T10:29:39Z</time>
      </trkpt>
      <trkpt lat="45.96879" lon="4.44551">
        <ele>755.25</ele>
        <time>2020-07-13T10:29:55Z</time>
      </trkpt>
      <trkpt lat="45.96862" lon="4.44544">
        <ele>755.73</ele>
        <time>2020-07-13T10:30:11Z</time>
      </trkpt>
      <trkpt lat="45.96852" lon="4.44537">
        <ele>755.73</ele>
        <time>2020-07-13T10:30:22Z</time>
      </trkpt>
      <trkpt lat="45.96836" lon="4.44533">
        <ele>756.69</ele>
        <time>2020-07-13T10:30:38Z</time>
      </trkpt>
      <trkpt lat="45.96831" lon="4.44533">
        <ele>757.66</ele>
        <time>2020-07-13T10:30:43Z</time>
      </trkpt>
      <trkpt lat="45.96811" lon="4.44533">
        <ele>758.14</ele>
        <time>2020-07-13T10:30:59Z</time>
      </trkpt>
      <trkpt lat="45.96794" lon="4.44536">
        <ele>757.66</ele>
        <time>2020-07-13T10:31:15Z</time>
      </trkpt>
      <trkpt lat="45.96793" lon="4.44537">
        <ele>757.66</ele>
        <time>2020-07-13T10:31:16Z</time>
      </trkpt>
      <trkpt lat="45.96777" lon="4.44538">
        <ele>757.18</ele>
        <time>2020-07-13T10:31:31Z</time>
      </trkpt>
      <trkpt lat="45.96757" lon="4.44537">
        <ele>757.18</ele>
        <time>2020-07-13T10:31:48Z</time>
      </trkpt>
      <trkpt lat="45.96737" lon="4.44537">
        <ele>757.18</ele>
        <time>2020-07-13T10:32:06Z</time>
      </trkpt>
      <trkpt lat="45.96721" lon="4.44538">
        <ele>758.62</ele>
        <time>2020-07-13T10:32:21Z</time>
      </trkpt>
      <trkpt lat="45.96706" lon="4.44537">
        <ele>758.62</ele>
        <time>2020-07-13T10:32:36Z</time>
      </trkpt>
      <trkpt lat="45.96688" lon="4.44534">
        <ele>759.1</ele>
        <time>2020-07-13T10:32:53Z</time>
      </trkpt>
      <trkpt lat="45.96682" lon="4.4453">
        <ele>759.1</ele>
        <time>2020-07-13T10:33:09Z</time>
      </trkpt>
      <trkpt lat="45.96681" lon="4.4453">
        <ele>759.1</ele>
        <time>2020-07-13T10:33:27Z</time>
      </trkpt>
      <trkpt lat="45.96683" lon="4.44525">
        <ele>759.1</ele>
        <time>2020-07-13T10:33:52Z</time>
      </trkpt>
      <trkpt lat="45.96683" lon="4.44521">
        <ele>759.58</ele>
        <time>2020-07-13T10:34:07Z</time>
      </trkpt>
      <trkpt lat="45.96685" lon="4.44522">
        <ele>759.58</ele>
        <time>2020-07-13T10:34:17Z</time>
      </trkpt>
      <trkpt lat="45.96699" lon="4.44517">
        <ele>759.58</ele>
        <time>2020-07-13T10:34:29Z</time>
      </trkpt>
      <trkpt lat="45.96714" lon="4.44506">
        <ele>759.58</ele>
        <time>2020-07-13T10:34:43Z</time>
      </trkpt>
      <trkpt lat="45.96728" lon="4.44497">
        <ele>760.54</ele>
        <time>2020-07-13T10:34:57Z</time>
      </trkpt>
      <trkpt lat="45.96745" lon="4.44487">
        <ele>761.5</ele>
        <time>2020-07-13T10:35:13Z</time>
      </trkpt>
      <trkpt lat="45.96762" lon="4.4448">
        <ele>761.98</ele>
        <time>2020-07-13T10:35:29Z</time>
      </trkpt>
      <trkpt lat="45.96768" lon="4.44476">
        <ele>763.9</ele>
        <time>2020-07-13T10:35:37Z</time>
      </trkpt>
      <trkpt lat="45.96784" lon="4.44467">
        <ele>765.35</ele>
        <time>2020-07-13T10:35:54Z</time>
      </trkpt>
      <trkpt lat="45.96785" lon="4.44466">
        <ele>766.31</ele>
        <time>2020-07-13T10:35:56Z</time>
      </trkpt>
      <trkpt lat="45.96791" lon="4.44464">
        <ele>767.27</ele>
        <time>2020-07-13T10:36:02Z</time>
      </trkpt>
      <trkpt lat="45.96798" lon="4.4446">
        <ele>768.23</ele>
        <time>2020-07-13T10:36:13Z</time>
      </trkpt>
      <trkpt lat="45.96805" lon="4.44449">
        <ele>770.15</ele>
        <time>2020-07-13T10:36:29Z</time>
      </trkpt>
      <trkpt lat="45.96814" lon="4.44441">
        <ele>771.11</ele>
        <time>2020-07-13T10:36:45Z</time>
      </trkpt>
      <trkpt lat="45.96814" lon="4.4444">
        <ele>771.11</ele>
        <time>2020-07-13T10:36:46Z</time>
      </trkpt>
      <trkpt lat="45.96822" lon="4.44429">
        <ele>774</ele>
        <time>2020-07-13T10:37:02Z</time>
      </trkpt>
      <trkpt lat="45.96827" lon="4.44424">
        <ele>774.96</ele>
        <time>2020-07-13T10:37:18Z</time>
      </trkpt>
      <trkpt lat="45.96836" lon="4.44418">
        <ele>777.36</ele>
        <time>2020-07-13T10:37:36Z</time>
      </trkpt>
      <trkpt lat="45.96843" lon="4.44414">
        <ele>780.25</ele>
        <time>2020-07-13T10:37:50Z</time>
      </trkpt>
      <trkpt lat="45.96844" lon="4.44413">
        <ele>778.81</ele>
        <time>2020-07-13T10:37:51Z</time>
      </trkpt>
      <trkpt lat="45.96849" lon="4.44408">
        <ele>780.25</ele>
        <time>2020-07-13T10:37:58Z</time>
      </trkpt>
      <trkpt lat="45.96858" lon="4.44402">
        <ele>781.69</ele>
        <time>2020-07-13T10:38:11Z</time>
      </trkpt>
      <trkpt lat="45.96869" lon="4.44396">
        <ele>782.65</ele>
        <time>2020-07-13T10:38:24Z</time>
      </trkpt>
      <trkpt lat="45.96869" lon="4.44395">
        <ele>783.61</ele>
        <time>2020-07-13T10:38:25Z</time>
      </trkpt>
      <trkpt lat="45.96871" lon="4.44395">
        <ele>782.17</ele>
        <time>2020-07-13T10:38:28Z</time>
      </trkpt>
      <trkpt lat="45.96873" lon="4.44394">
        <ele>783.13</ele>
        <time>2020-07-13T10:38:30Z</time>
      </trkpt>
      <trkpt lat="45.96884" lon="4.44388">
        <ele>785.05</ele>
        <time>2020-07-13T10:38:44Z</time>
      </trkpt>
      <trkpt lat="45.96885" lon="4.44387">
        <ele>785.05</ele>
        <time>2020-07-13T10:38:45Z</time>
      </trkpt>
      <trkpt lat="45.96897" lon="4.44382">
        <ele>785.53</ele>
        <time>2020-07-13T10:39:01Z</time>
      </trkpt>
      <trkpt lat="45.96905" lon="4.44379">
        <ele>787.46</ele>
        <time>2020-07-13T10:39:16Z</time>
      </trkpt>
      <trkpt lat="45.96908" lon="4.44377">
        <ele>786.98</ele>
        <time>2020-07-13T10:39:21Z</time>
      </trkpt>
      <trkpt lat="45.9691" lon="4.44377">
        <ele>788.42</ele>
        <time>2020-07-13T10:39:23Z</time>
      </trkpt>
      <trkpt lat="45.96911" lon="4.44376">
        <ele>788.42</ele>
        <time>2020-07-13T10:39:25Z</time>
      </trkpt>
      <trkpt lat="45.96923" lon="4.44366">
        <ele>789.86</ele>
        <time>2020-07-13T10:39:41Z</time>
      </trkpt>
      <trkpt lat="45.96931" lon="4.44361">
        <ele>793.22</ele>
        <time>2020-07-13T10:39:53Z</time>
      </trkpt>
      <trkpt lat="45.96933" lon="4.44359">
        <ele>791.78</ele>
        <time>2020-07-13T10:39:56Z</time>
      </trkpt>
      <trkpt lat="45.96934" lon="4.44358">
        <ele>793.22</ele>
        <time>2020-07-13T10:39:57Z</time>
      </trkpt>
      <trkpt lat="45.96937" lon="4.44355">
        <ele>792.26</ele>
        <time>2020-07-13T10:40:02Z</time>
      </trkpt>
      <trkpt lat="45.96938" lon="4.44354">
        <ele>793.71</ele>
        <time>2020-07-13T10:40:03Z</time>
      </trkpt>
      <trkpt lat="45.96951" lon="4.44348">
        <ele>795.63</ele>
        <time>2020-07-13T10:40:21Z</time>
      </trkpt>
      <trkpt lat="45.96953" lon="4.44348">
        <ele>795.63</ele>
        <time>2020-07-13T10:40:24Z</time>
      </trkpt>
      <trkpt lat="45.96964" lon="4.44344">
        <ele>797.55</ele>
        <time>2020-07-13T10:40:37Z</time>
      </trkpt>
      <trkpt lat="45.96968" lon="4.44343">
        <ele>798.99</ele>
        <time>2020-07-13T10:40:42Z</time>
      </trkpt>
      <trkpt lat="45.9698" lon="4.44341">
        <ele>800.44</ele>
        <time>2020-07-13T10:40:57Z</time>
      </trkpt>
      <trkpt lat="45.96988" lon="4.44344">
        <ele>801.88</ele>
        <time>2020-07-13T10:41:10Z</time>
      </trkpt>
      <trkpt lat="45.96996" lon="4.44342">
        <ele>802.36</ele>
        <time>2020-07-13T10:41:24Z</time>
      </trkpt>
      <trkpt lat="45.97" lon="4.44341">
        <ele>804.28</ele>
        <time>2020-07-13T10:41:29Z</time>
      </trkpt>
      <trkpt lat="45.9701" lon="4.44345">
        <ele>805.72</ele>
        <time>2020-07-13T10:41:41Z</time>
      </trkpt>
      <trkpt lat="45.97015" lon="4.44345">
        <ele>806.68</ele>
        <time>2020-07-13T10:41:48Z</time>
      </trkpt>
      <trkpt lat="45.97026" lon="4.44349">
        <ele>808.13</ele>
        <time>2020-07-13T10:42:01Z</time>
      </trkpt>
      <trkpt lat="45.97036" lon="4.44353">
        <ele>810.05</ele>
        <time>2020-07-13T10:42:13Z</time>
      </trkpt>
      <trkpt lat="45.97045" lon="4.44357">
        <ele>810.53</ele>
        <time>2020-07-13T10:42:28Z</time>
      </trkpt>
      <trkpt lat="45.97058" lon="4.44362">
        <ele>811.01</ele>
        <time>2020-07-13T10:42:43Z</time>
      </trkpt>
      <trkpt lat="45.97079" lon="4.44371">
        <ele>811.49</ele>
        <time>2020-07-13T10:43:02Z</time>
      </trkpt>
      <trkpt lat="45.97095" lon="4.44376">
        <ele>812.45</ele>
        <time>2020-07-13T10:43:22Z</time>
      </trkpt>
      <trkpt lat="45.97113" lon="4.44383">
        <ele>812.45</ele>
        <time>2020-07-13T10:43:37Z</time>
      </trkpt>
      <trkpt lat="45.97131" lon="4.44394">
        <ele>812.93</ele>
        <time>2020-07-13T10:43:53Z</time>
      </trkpt>
      <trkpt lat="45.97139" lon="4.444">
        <ele>813.41</ele>
        <time>2020-07-13T10:44:01Z</time>
      </trkpt>
      <trkpt lat="45.97156" lon="4.44412">
        <ele>813.89</ele>
        <time>2020-07-13T10:44:18Z</time>
      </trkpt>
      <trkpt lat="45.97157" lon="4.44412">
        <ele>813.89</ele>
        <time>2020-07-13T10:44:20Z</time>
      </trkpt>
      <trkpt lat="45.97169" lon="4.44416">
        <ele>814.37</ele>
        <time>2020-07-13T10:44:31Z</time>
      </trkpt>
      <trkpt lat="45.97176" lon="4.4442">
        <ele>814.85</ele>
        <time>2020-07-13T10:44:38Z</time>
      </trkpt>
      <trkpt lat="45.97189" lon="4.44426">
        <ele>815.34</ele>
        <time>2020-07-13T10:44:51Z</time>
      </trkpt>
      <trkpt lat="45.97206" lon="4.4443">
        <ele>815.34</ele>
        <time>2020-07-13T10:45:08Z</time>
      </trkpt>
      <trkpt lat="45.97226" lon="4.44435">
        <ele>815.82</ele>
        <time>2020-07-13T10:45:25Z</time>
      </trkpt>
      <trkpt lat="45.97228" lon="4.44435">
        <ele>815.82</ele>
        <time>2020-07-13T10:45:27Z</time>
      </trkpt>
      <trkpt lat="45.97242" lon="4.44442">
        <ele>815.82</ele>
        <time>2020-07-13T10:45:42Z</time>
      </trkpt>
      <trkpt lat="45.97263" lon="4.44443">
        <ele>816.3</ele>
        <time>2020-07-13T10:46:01Z</time>
      </trkpt>
      <trkpt lat="45.97266" lon="4.44443">
        <ele>815.82</ele>
        <time>2020-07-13T10:46:04Z</time>
      </trkpt>
      <trkpt lat="45.97274" lon="4.44453">
        <ele>816.78</ele>
        <time>2020-07-13T10:46:20Z</time>
      </trkpt>
      <trkpt lat="45.97267" lon="4.44449">
        <ele>816.78</ele>
        <time>2020-07-13T10:46:40Z</time>
      </trkpt>
      <trkpt lat="45.97261" lon="4.4445">
        <ele>814.85</ele>
        <time>2020-07-13T10:46:59Z</time>
      </trkpt>
      <trkpt lat="45.97263" lon="4.44452">
        <ele>814.85</ele>
        <time>2020-07-13T10:47:27Z</time>
      </trkpt>
      <trkpt lat="45.97259" lon="4.44445">
        <ele>814.37</ele>
        <time>2020-07-13T10:47:52Z</time>
      </trkpt>
      <trkpt lat="45.97262" lon="4.44449">
        <ele>810.05</ele>
        <time>2020-07-13T10:48:03Z</time>
      </trkpt>
      <trkpt lat="45.97262" lon="4.44449">
        <ele>818.22</ele>
        <time>2020-07-13T10:48:04Z</time>
      </trkpt>
      <trkpt lat="45.97262" lon="4.44449">
        <ele>813.41</ele>
        <time>2020-07-13T10:48:05Z</time>
      </trkpt>
      <trkpt lat="45.97261" lon="4.44449">
        <ele>814.85</ele>
        <time>2020-07-13T10:48:09Z</time>
      </trkpt>
      <trkpt lat="45.97252" lon="4.44448">
        <ele>814.85</ele>
        <time>2020-07-13T10:48:22Z</time>
      </trkpt>
      <trkpt lat="45.97252" lon="4.44449">
        <ele>813.89</ele>
        <time>2020-07-13T10:48:24Z</time>
      </trkpt>
      <trkpt lat="45.97255" lon="4.44453">
        <ele>813.41</ele>
        <time>2020-07-13T10:48:46Z</time>
      </trkpt>
      <trkpt lat="45.97257" lon="4.4445">
        <ele>818.22</ele>
        <time>2020-07-13T10:48:48Z</time>
      </trkpt>
      <trkpt lat="45.97257" lon="4.4445">
        <ele>814.85</ele>
        <time>2020-07-13T10:48:49Z</time>
      </trkpt>
      <trkpt lat="45.97266" lon="4.44443">
        <ele>814.37</ele>
        <time>2020-07-13T10:49:13Z</time>
      </trkpt>
      <trkpt lat="45.97266" lon="4.44454">
        <ele>814.37</ele>
        <time>2020-07-13T10:49:52Z</time>
      </trkpt>
      <trkpt lat="45.97266" lon="4.44454">
        <ele>807.16</ele>
        <time>2020-07-13T10:50:00Z</time>
      </trkpt>
      <trkpt lat="45.97265" lon="4.44454">
        <ele>814.85</ele>
        <time>2020-07-13T10:50:01Z</time>
      </trkpt>
      <trkpt lat="45.97261" lon="4.44447">
        <ele>814.37</ele>
        <time>2020-07-13T10:50:42Z</time>
      </trkpt>
      <trkpt lat="45.97262" lon="4.44445">
        <ele>814.37</ele>
        <time>2020-07-13T10:51:26Z</time>
      </trkpt>
      <trkpt lat="45.97261" lon="4.44449">
        <ele>809.57</ele>
        <time>2020-07-13T10:51:37Z</time>
      </trkpt>
      <trkpt lat="45.97261" lon="4.44449">
        <ele>814.37</ele>
        <time>2020-07-13T10:51:38Z</time>
      </trkpt>
      <trkpt lat="45.97269" lon="4.44439">
        <ele>814.37</ele>
        <time>2020-07-13T10:51:57Z</time>
      </trkpt>
      <trkpt lat="45.97268" lon="4.4444">
        <ele>815.34</ele>
        <time>2020-07-13T10:52:04Z</time>
      </trkpt>
      <trkpt lat="45.97259" lon="4.44451">
        <ele>814.85</ele>
        <time>2020-07-13T10:52:26Z</time>
      </trkpt>
      <trkpt lat="45.97257" lon="4.44453">
        <ele>814.85</ele>
        <time>2020-07-13T10:52:56Z</time>
      </trkpt>
      <trkpt lat="45.97261" lon="4.4445">
        <ele>814.85</ele>
        <time>2020-07-13T10:53:28Z</time>
      </trkpt>
      <trkpt lat="45.97262" lon="4.4445">
        <ele>813.41</ele>
        <time>2020-07-13T10:53:54Z</time>
      </trkpt>
      <trkpt lat="45.97261" lon="4.44447">
        <ele>813.89</ele>
        <time>2020-07-13T10:54:12Z</time>
      </trkpt>
      <trkpt lat="45.97264" lon="4.44448">
        <ele>813.89</ele>
        <time>2020-07-13T10:54:36Z</time>
      </trkpt>
      <trkpt lat="45.97264" lon="4.4445">
        <ele>813.89</ele>
        <time>2020-07-13T10:55:08Z</time>
      </trkpt>
      <trkpt lat="45.97261" lon="4.44452">
        <ele>813.89</ele>
        <time>2020-07-13T10:55:40Z</time>
      </trkpt>
      <trkpt lat="45.9726" lon="4.44456">
        <ele>813.89</ele>
        <time>2020-07-13T10:56:04Z</time>
      </trkpt>
      <trkpt lat="45.97261" lon="4.44452">
        <ele>813.89</ele>
        <time>2020-07-13T10:56:28Z</time>
      </trkpt>
      <trkpt lat="45.97261" lon="4.44454">
        <ele>813.89</ele>
        <time>2020-07-13T10:56:52Z</time>
      </trkpt>
      <trkpt lat="45.97263" lon="4.44453">
        <ele>813.89</ele>
        <time>2020-07-13T10:57:25Z</time>
      </trkpt>
      <trkpt lat="45.97259" lon="4.44454">
        <ele>813.89</ele>
        <time>2020-07-13T10:57:53Z</time>
      </trkpt>
      <trkpt lat="45.97265" lon="4.44449">
        <ele>813.89</ele>
        <time>2020-07-13T10:58:28Z</time>
      </trkpt>
      <trkpt lat="45.97263" lon="4.4445">
        <ele>813.89</ele>
        <time>2020-07-13T10:58:55Z</time>
      </trkpt>
      <trkpt lat="45.97264" lon="4.44448">
        <ele>814.37</ele>
        <time>2020-07-13T10:59:30Z</time>
      </trkpt>
      <trkpt lat="45.97264" lon="4.44452">
        <ele>814.37</ele>
        <time>2020-07-13T10:59:59Z</time>
      </trkpt>
      <trkpt lat="45.97266" lon="4.4445">
        <ele>814.37</ele>
        <time>2020-07-13T11:00:26Z</time>
      </trkpt>
      <trkpt lat="45.97263" lon="4.44452">
        <ele>815.82</ele>
        <time>2020-07-13T11:01:05Z</time>
      </trkpt>
      <trkpt lat="45.97261" lon="4.44452">
        <ele>815.82</ele>
        <time>2020-07-13T11:01:33Z</time>
      </trkpt>
      <trkpt lat="45.97263" lon="4.44451">
        <ele>815.82</ele>
        <time>2020-07-13T11:02:06Z</time>
      </trkpt>
      <trkpt lat="45.97263" lon="4.4445">
        <ele>815.82</ele>
        <time>2020-07-13T11:02:42Z</time>
      </trkpt>
      <trkpt lat="45.97263" lon="4.44452">
        <ele>815.82</ele>
        <time>2020-07-13T11:03:11Z</time>
      </trkpt>
      <trkpt lat="45.97266" lon="4.4445">
        <ele>815.82</ele>
        <time>2020-07-13T11:03:46Z</time>
      </trkpt>
      <trkpt lat="45.97264" lon="4.44454">
        <ele>815.82</ele>
        <time>2020-07-13T11:04:17Z</time>
      </trkpt>
      <trkpt lat="45.97264" lon="4.44451">
        <ele>816.3</ele>
        <time>2020-07-13T11:04:49Z</time>
      </trkpt>
      <trkpt lat="45.97262" lon="4.44454">
        <ele>816.3</ele>
        <time>2020-07-13T11:05:13Z</time>
      </trkpt>
      <trkpt lat="45.9726" lon="4.44451">
        <ele>815.82</ele>
        <time>2020-07-13T11:05:40Z</time>
      </trkpt>
      <trkpt lat="45.97261" lon="4.44448">
        <ele>815.82</ele>
        <time>2020-07-13T11:05:58Z</time>
      </trkpt>
      <trkpt lat="45.97261" lon="4.44447">
        <ele>815.82</ele>
        <time>2020-07-13T11:06:32Z</time>
      </trkpt>
      <trkpt lat="45.97263" lon="4.44449">
        <ele>815.82</ele>
        <time>2020-07-13T11:06:55Z</time>
      </trkpt>
      <trkpt lat="45.97263" lon="4.4445">
        <ele>815.82</ele>
        <time>2020-07-13T11:07:13Z</time>
      </trkpt>
      <trkpt lat="45.97263" lon="4.44452">
        <ele>815.82</ele>
        <time>2020-07-13T11:07:35Z</time>
      </trkpt>
      <trkpt lat="45.97261" lon="4.44453">
        <ele>815.82</ele>
        <time>2020-07-13T11:07:59Z</time>
      </trkpt>
      <trkpt lat="45.97261" lon="4.44447">
        <ele>815.82</ele>
        <time>2020-07-13T11:08:17Z</time>
      </trkpt>
      <trkpt lat="45.97261" lon="4.44451">
        <ele>815.82</ele>
        <time>2020-07-13T11:08:43Z</time>
      </trkpt>
      <trkpt lat="45.97262" lon="4.44452">
        <ele>815.82</ele>
        <time>2020-07-13T11:09:17Z</time>
      </trkpt>
      <trkpt lat="45.97261" lon="4.44451">
        <ele>815.82</ele>
        <time>2020-07-13T11:09:37Z</time>
      </trkpt>
      <trkpt lat="45.9726" lon="4.44449">
        <ele>815.82</ele>
        <time>2020-07-13T11:10:02Z</time>
      </trkpt>
      <trkpt lat="45.97261" lon="4.44453">
        <ele>815.82</ele>
        <time>2020-07-13T11:10:24Z</time>
      </trkpt>
      <trkpt lat="45.97261" lon="4.4445">
        <ele>815.82</ele>
        <time>2020-07-13T11:10:50Z</time>
      </trkpt>
      <trkpt lat="45.97262" lon="4.4445">
        <ele>815.82</ele>
        <time>2020-07-13T11:11:22Z</time>
      </trkpt>
      <trkpt lat="45.97262" lon="4.44452">
        <ele>816.3</ele>
        <time>2020-07-13T11:11:45Z</time>
      </trkpt>
      <trkpt lat="45.97259" lon="4.44453">
        <ele>815.82</ele>
        <time>2020-07-13T11:12:09Z</time>
      </trkpt>
      <trkpt lat="45.97256" lon="4.44452">
        <ele>815.82</ele>
        <time>2020-07-13T11:12:33Z</time>
      </trkpt>
      <trkpt lat="45.97259" lon="4.44451">
        <ele>815.82</ele>
        <time>2020-07-13T11:13:03Z</time>
      </trkpt>
      <trkpt lat="45.97258" lon="4.44457">
        <ele>815.82</ele>
        <time>2020-07-13T11:13:24Z</time>
      </trkpt>
      <trkpt lat="45.9726" lon="4.4445">
        <ele>815.82</ele>
        <time>2020-07-13T11:13:44Z</time>
      </trkpt>
      <trkpt lat="45.97263" lon="4.4445">
        <ele>815.82</ele>
        <time>2020-07-13T11:14:10Z</time>
      </trkpt>
      <trkpt lat="45.97264" lon="4.44448">
        <ele>815.82</ele>
        <time>2020-07-13T11:14:35Z</time>
      </trkpt>
      <trkpt lat="45.97263" lon="4.44451">
        <ele>815.34</ele>
        <time>2020-07-13T11:14:53Z</time>
      </trkpt>
      <trkpt lat="45.97262" lon="4.44452">
        <ele>815.34</ele>
        <time>2020-07-13T11:15:18Z</time>
      </trkpt>
      <trkpt lat="45.97263" lon="4.44452">
        <ele>815.34</ele>
        <time>2020-07-13T11:15:41Z</time>
      </trkpt>
      <trkpt lat="45.97261" lon="4.44455">
        <ele>815.34</ele>
        <time>2020-07-13T11:16:01Z</time>
      </trkpt>
      <trkpt lat="45.97263" lon="4.44451">
        <ele>815.34</ele>
        <time>2020-07-13T11:16:26Z</time>
      </trkpt>
      <trkpt lat="45.97263" lon="4.44453">
        <ele>815.34</ele>
        <time>2020-07-13T11:16:48Z</time>
      </trkpt>
      <trkpt lat="45.97263" lon="4.44449">
        <ele>815.34</ele>
        <time>2020-07-13T11:17:13Z</time>
      </trkpt>
      <trkpt lat="45.97262" lon="4.44451">
        <ele>815.34</ele>
        <time>2020-07-13T11:17:35Z</time>
      </trkpt>
      <trkpt lat="45.97262" lon="4.44451">
        <ele>815.34</ele>
        <time>2020-07-13T11:18:07Z</time>
      </trkpt>
      <trkpt lat="45.97264" lon="4.4445">
        <ele>815.34</ele>
        <time>2020-07-13T11:18:33Z</time>
      </trkpt>
      <trkpt lat="45.97265" lon="4.44448">
        <ele>815.34</ele>
        <time>2020-07-13T11:18:52Z</time>
      </trkpt>
      <trkpt lat="45.97263" lon="4.4445">
        <ele>815.34</ele>
        <time>2020-07-13T11:19:11Z</time>
      </trkpt>
      <trkpt lat="45.9726" lon="4.44448">
        <ele>815.34</ele>
        <time>2020-07-13T11:19:35Z</time>
      </trkpt>
      <trkpt lat="45.9726" lon="4.44448">
        <ele>815.34</ele>
        <time>2020-07-13T11:19:55Z</time>
      </trkpt>
      <trkpt lat="45.9726" lon="4.44449">
        <ele>814.85</ele>
        <time>2020-07-13T11:20:17Z</time>
      </trkpt>
      <trkpt lat="45.9726" lon="4.4445">
        <ele>814.85</ele>
        <time>2020-07-13T11:20:43Z</time>
      </trkpt>
      <trkpt lat="45.97261" lon="4.44452">
        <ele>814.85</ele>
        <time>2020-07-13T11:21:15Z</time>
      </trkpt>
      <trkpt lat="45.97258" lon="4.44448">
        <ele>814.85</ele>
        <time>2020-07-13T11:21:38Z</time>
      </trkpt>
      <trkpt lat="45.97258" lon="4.44455">
        <ele>814.85</ele>
        <time>2020-07-13T11:22:07Z</time>
      </trkpt>
      <trkpt lat="45.97257" lon="4.44464">
        <ele>814.37</ele>
        <time>2020-07-13T11:22:34Z</time>
      </trkpt>
      <trkpt lat="45.97262" lon="4.44453">
        <ele>814.85</ele>
        <time>2020-07-13T11:23:04Z</time>
      </trkpt>
      <trkpt lat="45.97263" lon="4.44455">
        <ele>814.85</ele>
        <time>2020-07-13T11:23:27Z</time>
      </trkpt>
      <trkpt lat="45.97263" lon="4.4445">
        <ele>815.34</ele>
        <time>2020-07-13T11:23:57Z</time>
      </trkpt>
      <trkpt lat="45.97264" lon="4.4445">
        <ele>815.34</ele>
        <time>2020-07-13T11:24:27Z</time>
      </trkpt>
      <trkpt lat="45.97263" lon="4.44452">
        <ele>815.34</ele>
        <time>2020-07-13T11:24:59Z</time>
      </trkpt>
      <trkpt lat="45.97263" lon="4.44449">
        <ele>815.34</ele>
        <time>2020-07-13T11:25:26Z</time>
      </trkpt>
      <trkpt lat="45.97262" lon="4.44448">
        <ele>815.34</ele>
        <time>2020-07-13T11:25:55Z</time>
      </trkpt>
      <trkpt lat="45.97261" lon="4.44451">
        <ele>815.34</ele>
        <time>2020-07-13T11:26:24Z</time>
      </trkpt>
      <trkpt lat="45.9726" lon="4.44448">
        <ele>815.34</ele>
        <time>2020-07-13T11:26:50Z</time>
      </trkpt>
      <trkpt lat="45.97264" lon="4.44449">
        <ele>815.34</ele>
        <time>2020-07-13T11:27:25Z</time>
      </trkpt>
      <trkpt lat="45.97265" lon="4.44451">
        <ele>815.34</ele>
        <time>2020-07-13T11:27:49Z</time>
      </trkpt>
      <trkpt lat="45.97265" lon="4.44446">
        <ele>815.34</ele>
        <time>2020-07-13T11:28:18Z</time>
      </trkpt>
      <trkpt lat="45.97261" lon="4.4445">
        <ele>815.34</ele>
        <time>2020-07-13T11:28:49Z</time>
      </trkpt>
      <trkpt lat="45.97262" lon="4.44453">
        <ele>815.34</ele>
        <time>2020-07-13T11:29:19Z</time>
      </trkpt>
      <trkpt lat="45.9726" lon="4.44454">
        <ele>815.34</ele>
        <time>2020-07-13T11:29:48Z</time>
      </trkpt>
      <trkpt lat="45.97258" lon="4.44458">
        <ele>815.34</ele>
        <time>2020-07-13T11:30:14Z</time>
      </trkpt>
      <trkpt lat="45.97259" lon="4.44452">
        <ele>815.34</ele>
        <time>2020-07-13T11:30:44Z</time>
      </trkpt>
      <trkpt lat="45.97257" lon="4.44452">
        <ele>815.34</ele>
        <time>2020-07-13T11:31:08Z</time>
      </trkpt>
      <trkpt lat="45.97256" lon="4.44451">
        <ele>815.34</ele>
        <time>2020-07-13T11:31:33Z</time>
      </trkpt>
      <trkpt lat="45.97257" lon="4.44451">
        <ele>814.85</ele>
        <time>2020-07-13T11:31:55Z</time>
      </trkpt>
      <trkpt lat="45.97257" lon="4.44453">
        <ele>814.85</ele>
        <time>2020-07-13T11:32:16Z</time>
      </trkpt>
      <trkpt lat="45.97259" lon="4.44449">
        <ele>815.34</ele>
        <time>2020-07-13T11:32:43Z</time>
      </trkpt>
      <trkpt lat="45.97259" lon="4.44451">
        <ele>815.34</ele>
        <time>2020-07-13T11:33:11Z</time>
      </trkpt>
      <trkpt lat="45.97259" lon="4.4445">
        <ele>815.34</ele>
        <time>2020-07-13T11:33:35Z</time>
      </trkpt>
      <trkpt lat="45.97256" lon="4.4445">
        <ele>814.85</ele>
        <time>2020-07-13T11:33:56Z</time>
      </trkpt>
      <trkpt lat="45.97261" lon="4.44451">
        <ele>815.34</ele>
        <time>2020-07-13T11:34:22Z</time>
      </trkpt>
      <trkpt lat="45.97261" lon="4.44451">
        <ele>815.34</ele>
        <time>2020-07-13T11:34:47Z</time>
      </trkpt>
      <trkpt lat="45.97262" lon="4.44451">
        <ele>815.34</ele>
        <time>2020-07-13T11:35:11Z</time>
      </trkpt>
      <trkpt lat="45.97264" lon="4.44448">
        <ele>815.34</ele>
        <time>2020-07-13T11:35:39Z</time>
      </trkpt>
      <trkpt lat="45.97262" lon="4.44448">
        <ele>814.85</ele>
        <time>2020-07-13T11:36:05Z</time>
      </trkpt>
      <trkpt lat="45.9726" lon="4.44446">
        <ele>814.85</ele>
        <time>2020-07-13T11:36:26Z</time>
      </trkpt>
      <trkpt lat="45.9726" lon="4.44451">
        <ele>814.85</ele>
        <time>2020-07-13T11:36:54Z</time>
      </trkpt>
      <trkpt lat="45.97261" lon="4.44454">
        <ele>814.85</ele>
        <time>2020-07-13T11:37:38Z</time>
      </trkpt>
      <trkpt lat="45.9726" lon="4.44452">
        <ele>814.85</ele>
        <time>2020-07-13T11:38:01Z</time>
      </trkpt>
      <trkpt lat="45.97261" lon="4.4445">
        <ele>815.34</ele>
        <time>2020-07-13T11:38:24Z</time>
      </trkpt>
      <trkpt lat="45.97258" lon="4.44452">
        <ele>815.34</ele>
        <time>2020-07-13T11:38:50Z</time>
      </trkpt>
      <trkpt lat="45.97259" lon="4.44452">
        <ele>815.34</ele>
        <time>2020-07-13T11:39:22Z</time>
      </trkpt>
      <trkpt lat="45.97261" lon="4.44449">
        <ele>815.34</ele>
        <time>2020-07-13T11:39:41Z</time>
      </trkpt>
      <trkpt lat="45.97261" lon="4.44448">
        <ele>815.34</ele>
        <time>2020-07-13T11:40:05Z</time>
      </trkpt>
      <trkpt lat="45.97259" lon="4.4445">
        <ele>815.34</ele>
        <time>2020-07-13T11:40:23Z</time>
      </trkpt>
      <trkpt lat="45.97259" lon="4.4445">
        <ele>814.85</ele>
        <time>2020-07-13T11:40:50Z</time>
      </trkpt>
      <trkpt lat="45.9726" lon="4.4445">
        <ele>814.85</ele>
        <time>2020-07-13T11:41:08Z</time>
      </trkpt>
      <trkpt lat="45.9726" lon="4.44451">
        <ele>814.85</ele>
        <time>2020-07-13T11:41:30Z</time>
      </trkpt>
      <trkpt lat="45.9726" lon="4.44452">
        <ele>814.85</ele>
        <time>2020-07-13T11:41:49Z</time>
      </trkpt>
      <trkpt lat="45.97259" lon="4.44449">
        <ele>814.85</ele>
        <time>2020-07-13T11:42:18Z</time>
      </trkpt>
      <trkpt lat="45.97259" lon="4.44449">
        <ele>814.85</ele>
        <time>2020-07-13T11:42:43Z</time>
      </trkpt>
      <trkpt lat="45.9726" lon="4.44445">
        <ele>814.85</ele>
        <time>2020-07-13T11:43:17Z</time>
      </trkpt>
      <trkpt lat="45.97259" lon="4.4445">
        <ele>814.85</ele>
        <time>2020-07-13T11:43:44Z</time>
      </trkpt>
      <trkpt lat="45.97259" lon="4.4445">
        <ele>814.85</ele>
        <time>2020-07-13T11:44:11Z</time>
      </trkpt>
      <trkpt lat="45.97259" lon="4.4445">
        <ele>814.85</ele>
        <time>2020-07-13T11:44:38Z</time>
      </trkpt>
      <trkpt lat="45.97259" lon="4.44449">
        <ele>814.85</ele>
        <time>2020-07-13T11:44:59Z</time>
      </trkpt>
      <trkpt lat="45.97258" lon="4.44456">
        <ele>814.85</ele>
        <time>2020-07-13T11:45:28Z</time>
      </trkpt>
      <trkpt lat="45.97259" lon="4.44451">
        <ele>814.85</ele>
        <time>2020-07-13T11:46:00Z</time>
      </trkpt>
      <trkpt lat="45.97257" lon="4.44451">
        <ele>814.85</ele>
        <time>2020-07-13T11:46:23Z</time>
      </trkpt>
      <trkpt lat="45.97259" lon="4.4445">
        <ele>814.85</ele>
        <time>2020-07-13T11:46:50Z</time>
      </trkpt>
      <trkpt lat="45.9726" lon="4.44451">
        <ele>814.85</ele>
        <time>2020-07-13T11:47:13Z</time>
      </trkpt>
      <trkpt lat="45.9726" lon="4.44447">
        <ele>814.85</ele>
        <time>2020-07-13T11:47:45Z</time>
      </trkpt>
      <trkpt lat="45.9726" lon="4.44447">
        <ele>814.85</ele>
        <time>2020-07-13T11:48:16Z</time>
      </trkpt>
      <trkpt lat="45.97262" lon="4.4445">
        <ele>814.85</ele>
        <time>2020-07-13T11:48:32Z</time>
      </trkpt>
      <trkpt lat="45.97262" lon="4.44447">
        <ele>814.85</ele>
        <time>2020-07-13T11:48:57Z</time>
      </trkpt>
      <trkpt lat="45.97259" lon="4.44447">
        <ele>814.85</ele>
        <time>2020-07-13T11:49:19Z</time>
      </trkpt>
      <trkpt lat="45.97258" lon="4.44449">
        <ele>814.85</ele>
        <time>2020-07-13T11:49:47Z</time>
      </trkpt>
      <trkpt lat="45.97261" lon="4.44447">
        <ele>814.85</ele>
        <time>2020-07-13T11:50:10Z</time>
      </trkpt>
      <trkpt lat="45.97259" lon="4.44449">
        <ele>814.85</ele>
        <time>2020-07-13T11:50:34Z</time>
      </trkpt>
      <trkpt lat="45.97259" lon="4.44449">
        <ele>814.85</ele>
        <time>2020-07-13T11:50:57Z</time>
      </trkpt>
      <trkpt lat="45.97259" lon="4.44451">
        <ele>814.85</ele>
        <time>2020-07-13T11:51:16Z</time>
      </trkpt>
      <trkpt lat="45.97259" lon="4.44446">
        <ele>814.85</ele>
        <time>2020-07-13T11:51:47Z</time>
      </trkpt>
      <trkpt lat="45.97259" lon="4.44447">
        <ele>814.85</ele>
        <time>2020-07-13T11:52:08Z</time>
      </trkpt>
      <trkpt lat="45.97262" lon="4.44446">
        <ele>814.85</ele>
        <time>2020-07-13T11:52:32Z</time>
      </trkpt>
      <trkpt lat="45.97261" lon="4.44445">
        <ele>814.85</ele>
        <time>2020-07-13T11:52:58Z</time>
      </trkpt>
      <trkpt lat="45.97259" lon="4.44445">
        <ele>814.85</ele>
        <time>2020-07-13T11:53:23Z</time>
      </trkpt>
      <trkpt lat="45.97258" lon="4.44449">
        <ele>814.85</ele>
        <time>2020-07-13T11:53:55Z</time>
      </trkpt>
      <trkpt lat="45.97258" lon="4.44448">
        <ele>814.85</ele>
        <time>2020-07-13T11:54:21Z</time>
      </trkpt>
      <trkpt lat="45.97259" lon="4.44446">
        <ele>814.85</ele>
        <time>2020-07-13T11:54:48Z</time>
      </trkpt>
      <trkpt lat="45.97259" lon="4.4445">
        <ele>814.85</ele>
        <time>2020-07-13T11:55:25Z</time>
      </trkpt>
      <trkpt lat="45.97259" lon="4.44449">
        <ele>814.85</ele>
        <time>2020-07-13T11:55:50Z</time>
      </trkpt>
      <trkpt lat="45.9726" lon="4.44448">
        <ele>814.85</ele>
        <time>2020-07-13T11:56:15Z</time>
      </trkpt>
      <trkpt lat="45.9726" lon="4.44447">
        <ele>814.85</ele>
        <time>2020-07-13T11:56:35Z</time>
      </trkpt>
      <trkpt lat="45.9726" lon="4.44445">
        <ele>814.85</ele>
        <time>2020-07-13T11:57:02Z</time>
      </trkpt>
      <trkpt lat="45.9726" lon="4.4445">
        <ele>814.85</ele>
        <time>2020-07-13T11:57:38Z</time>
      </trkpt>
      <trkpt lat="45.97258" lon="4.4445">
        <ele>814.85</ele>
        <time>2020-07-13T11:58:10Z</time>
      </trkpt>
      <trkpt lat="45.97258" lon="4.4445">
        <ele>814.85</ele>
        <time>2020-07-13T11:58:33Z</time>
      </trkpt>
      <trkpt lat="45.97258" lon="4.44451">
        <ele>814.85</ele>
        <time>2020-07-13T11:58:54Z</time>
      </trkpt>
      <trkpt lat="45.97259" lon="4.44451">
        <ele>815.34</ele>
        <time>2020-07-13T11:59:22Z</time>
      </trkpt>
      <trkpt lat="45.97262" lon="4.4445">
        <ele>815.34</ele>
        <time>2020-07-13T11:59:47Z</time>
      </trkpt>
      <trkpt lat="45.97262" lon="4.4445">
        <ele>815.34</ele>
        <time>2020-07-13T12:00:11Z</time>
      </trkpt>
      <trkpt lat="45.97259" lon="4.44447">
        <ele>814.85</ele>
        <time>2020-07-13T12:00:43Z</time>
      </trkpt>
      <trkpt lat="45.97258" lon="4.4445">
        <ele>815.34</ele>
        <time>2020-07-13T12:01:19Z</time>
      </trkpt>
      <trkpt lat="45.97259" lon="4.4445">
        <ele>815.34</ele>
        <time>2020-07-13T12:01:45Z</time>
      </trkpt>
      <trkpt lat="45.9726" lon="4.44449">
        <ele>815.34</ele>
        <time>2020-07-13T12:02:22Z</time>
      </trkpt>
      <trkpt lat="45.97259" lon="4.44447">
        <ele>815.34</ele>
        <time>2020-07-13T12:02:57Z</time>
      </trkpt>
      <trkpt lat="45.9726" lon="4.44447">
        <ele>815.34</ele>
        <time>2020-07-13T12:03:18Z</time>
      </trkpt>
      <trkpt lat="45.97259" lon="4.44447">
        <ele>815.34</ele>
        <time>2020-07-13T12:03:40Z</time>
      </trkpt>
      <trkpt lat="45.97258" lon="4.44447">
        <ele>815.34</ele>
        <time>2020-07-13T12:04:08Z</time>
      </trkpt>
      <trkpt lat="45.97258" lon="4.44448">
        <ele>815.34</ele>
        <time>2020-07-13T12:04:32Z</time>
      </trkpt>
      <trkpt lat="45.97259" lon="4.44444">
        <ele>815.34</ele>
        <time>2020-07-13T12:04:50Z</time>
      </trkpt>
      <trkpt lat="45.97259" lon="4.44449">
        <ele>815.34</ele>
        <time>2020-07-13T12:05:11Z</time>
      </trkpt>
      <trkpt lat="45.97258" lon="4.4445">
        <ele>815.34</ele>
        <time>2020-07-13T12:05:34Z</time>
      </trkpt>
      <trkpt lat="45.97254" lon="4.44456">
        <ele>815.34</ele>
        <time>2020-07-13T12:05:53Z</time>
      </trkpt>
      <trkpt lat="45.97256" lon="4.44455">
        <ele>815.34</ele>
        <time>2020-07-13T12:06:11Z</time>
      </trkpt>
      <trkpt lat="45.97259" lon="4.44452">
        <ele>815.34</ele>
        <time>2020-07-13T12:06:36Z</time>
      </trkpt>
      <trkpt lat="45.97261" lon="4.4445">
        <ele>815.34</ele>
        <time>2020-07-13T12:06:57Z</time>
      </trkpt>
      <trkpt lat="45.97262" lon="4.44451">
        <ele>815.34</ele>
        <time>2020-07-13T12:07:14Z</time>
      </trkpt>
      <trkpt lat="45.97263" lon="4.44452">
        <ele>815.34</ele>
        <time>2020-07-13T12:07:35Z</time>
      </trkpt>
      <trkpt lat="45.97259" lon="4.44456">
        <ele>815.34</ele>
        <time>2020-07-13T12:08:00Z</time>
      </trkpt>
      <trkpt lat="45.97257" lon="4.44454">
        <ele>815.34</ele>
        <time>2020-07-13T12:08:21Z</time>
      </trkpt>
      <trkpt lat="45.97256" lon="4.44453">
        <ele>815.34</ele>
        <time>2020-07-13T12:08:36Z</time>
      </trkpt>
      <trkpt lat="45.97257" lon="4.44453">
        <ele>815.34</ele>
        <time>2020-07-13T12:08:53Z</time>
      </trkpt>
      <trkpt lat="45.97259" lon="4.44451">
        <ele>815.34</ele>
        <time>2020-07-13T12:09:10Z</time>
      </trkpt>
      <trkpt lat="45.97259" lon="4.44454">
        <ele>815.34</ele>
        <time>2020-07-13T12:09:28Z</time>
      </trkpt>
      <trkpt lat="45.9726" lon="4.44456">
        <ele>815.34</ele>
        <time>2020-07-13T12:09:51Z</time>
      </trkpt>
      <trkpt lat="45.97257" lon="4.44457">
        <ele>815.34</ele>
        <time>2020-07-13T12:10:11Z</time>
      </trkpt>
      <trkpt lat="45.9726" lon="4.44455">
        <ele>815.82</ele>
        <time>2020-07-13T12:10:33Z</time>
      </trkpt>
      <trkpt lat="45.97261" lon="4.44452">
        <ele>815.82</ele>
        <time>2020-07-13T12:10:47Z</time>
      </trkpt>
      <trkpt lat="45.97259" lon="4.44454">
        <ele>815.82</ele>
        <time>2020-07-13T12:11:06Z</time>
      </trkpt>
      <trkpt lat="45.97256" lon="4.44453">
        <ele>815.82</ele>
        <time>2020-07-13T12:11:30Z</time>
      </trkpt>
      <trkpt lat="45.97257" lon="4.44451">
        <ele>815.82</ele>
        <time>2020-07-13T12:11:45Z</time>
      </trkpt>
      <trkpt lat="45.97261" lon="4.44446">
        <ele>815.82</ele>
        <time>2020-07-13T12:12:03Z</time>
      </trkpt>
      <trkpt lat="45.97262" lon="4.44447">
        <ele>815.82</ele>
        <time>2020-07-13T12:12:31Z</time>
      </trkpt>
      <trkpt lat="45.97262" lon="4.4445">
        <ele>815.82</ele>
        <time>2020-07-13T12:12:58Z</time>
      </trkpt>
      <trkpt lat="45.97259" lon="4.44448">
        <ele>815.82</ele>
        <time>2020-07-13T12:13:18Z</time>
      </trkpt>
      <trkpt lat="45.97261" lon="4.44446">
        <ele>815.82</ele>
        <time>2020-07-13T12:13:32Z</time>
      </trkpt>
      <trkpt lat="45.9726" lon="4.44444">
        <ele>815.82</ele>
        <time>2020-07-13T12:13:47Z</time>
      </trkpt>
      <trkpt lat="45.97258" lon="4.44452">
        <ele>816.3</ele>
        <time>2020-07-13T12:14:09Z</time>
      </trkpt>
      <trkpt lat="45.97258" lon="4.44455">
        <ele>816.3</ele>
        <time>2020-07-13T12:14:26Z</time>
      </trkpt>
      <trkpt lat="45.97256" lon="4.44457">
        <ele>816.3</ele>
        <time>2020-07-13T12:14:58Z</time>
      </trkpt>
      <trkpt lat="45.97257" lon="4.44456">
        <ele>816.3</ele>
        <time>2020-07-13T12:15:20Z</time>
      </trkpt>
      <trkpt lat="45.97257" lon="4.44454">
        <ele>816.78</ele>
        <time>2020-07-13T12:15:42Z</time>
      </trkpt>
      <trkpt lat="45.97258" lon="4.44455">
        <ele>816.78</ele>
        <time>2020-07-13T12:16:00Z</time>
      </trkpt>
      <trkpt lat="45.97263" lon="4.44453">
        <ele>817.26</ele>
        <time>2020-07-13T12:16:25Z</time>
      </trkpt>
      <trkpt lat="45.97264" lon="4.44451">
        <ele>817.26</ele>
        <time>2020-07-13T12:16:44Z</time>
      </trkpt>
      <trkpt lat="45.97261" lon="4.4445">
        <ele>817.26</ele>
        <time>2020-07-13T12:17:03Z</time>
      </trkpt>
      <trkpt lat="45.97259" lon="4.44454">
        <ele>817.26</ele>
        <time>2020-07-13T12:17:25Z</time>
      </trkpt>
      <trkpt lat="45.97259" lon="4.44455">
        <ele>817.74</ele>
        <time>2020-07-13T12:17:43Z</time>
      </trkpt>
      <trkpt lat="45.9726" lon="4.44455">
        <ele>817.74</ele>
        <time>2020-07-13T12:18:09Z</time>
      </trkpt>
      <trkpt lat="45.97265" lon="4.44454">
        <ele>817.74</ele>
        <time>2020-07-13T12:18:37Z</time>
      </trkpt>
      <trkpt lat="45.97265" lon="4.44456">
        <ele>816.3</ele>
        <time>2020-07-13T12:18:51Z</time>
      </trkpt>
      <trkpt lat="45.97263" lon="4.44454">
        <ele>816.3</ele>
        <time>2020-07-13T12:19:16Z</time>
      </trkpt>
      <trkpt lat="45.97261" lon="4.44456">
        <ele>815.82</ele>
        <time>2020-07-13T12:19:26Z</time>
      </trkpt>
      <trkpt lat="45.97261" lon="4.44453">
        <ele>815.82</ele>
        <time>2020-07-13T12:19:50Z</time>
      </trkpt>
      <trkpt lat="45.97258" lon="4.44455">
        <ele>815.82</ele>
        <time>2020-07-13T12:20:16Z</time>
      </trkpt>
      <trkpt lat="45.97259" lon="4.44455">
        <ele>817.74</ele>
        <time>2020-07-13T12:20:22Z</time>
      </trkpt>
      <trkpt lat="45.9726" lon="4.44459">
        <ele>816.3</ele>
        <time>2020-07-13T12:20:38Z</time>
      </trkpt>
      <trkpt lat="45.97263" lon="4.4446">
        <ele>816.3</ele>
        <time>2020-07-13T12:21:03Z</time>
      </trkpt>
      <trkpt lat="45.97266" lon="4.44458">
        <ele>816.3</ele>
        <time>2020-07-13T12:21:24Z</time>
      </trkpt>
      <trkpt lat="45.97265" lon="4.44457">
        <ele>816.78</ele>
        <time>2020-07-13T12:21:50Z</time>
      </trkpt>
      <trkpt lat="45.97263" lon="4.44463">
        <ele>816.78</ele>
        <time>2020-07-13T12:22:15Z</time>
      </trkpt>
      <trkpt lat="45.97263" lon="4.44459">
        <ele>816.78</ele>
        <time>2020-07-13T12:22:34Z</time>
      </trkpt>
      <trkpt lat="45.97259" lon="4.44459">
        <ele>815.82</ele>
        <time>2020-07-13T12:22:47Z</time>
      </trkpt>
      <trkpt lat="45.97258" lon="4.44458">
        <ele>816.78</ele>
        <time>2020-07-13T12:23:00Z</time>
      </trkpt>
      <trkpt lat="45.97261" lon="4.44456">
        <ele>816.78</ele>
        <time>2020-07-13T12:23:28Z</time>
      </trkpt>
      <trkpt lat="45.97263" lon="4.44456">
        <ele>816.78</ele>
        <time>2020-07-13T12:23:50Z</time>
      </trkpt>
      <trkpt lat="45.97266" lon="4.44456">
        <ele>816.3</ele>
        <time>2020-07-13T12:24:14Z</time>
      </trkpt>
      <trkpt lat="45.9726" lon="4.44451">
        <ele>816.3</ele>
        <time>2020-07-13T12:24:36Z</time>
      </trkpt>
      <trkpt lat="45.97262" lon="4.4445">
        <ele>816.3</ele>
        <time>2020-07-13T12:24:52Z</time>
      </trkpt>
      <trkpt lat="45.97264" lon="4.4445">
        <ele>816.3</ele>
        <time>2020-07-13T12:25:09Z</time>
      </trkpt>
      <trkpt lat="45.97263" lon="4.44451">
        <ele>816.3</ele>
        <time>2020-07-13T12:25:31Z</time>
      </trkpt>
      <trkpt lat="45.97261" lon="4.44459">
        <ele>816.3</ele>
        <time>2020-07-13T12:25:49Z</time>
      </trkpt>
      <trkpt lat="45.97262" lon="4.44461">
        <ele>816.3</ele>
        <time>2020-07-13T12:26:05Z</time>
      </trkpt>
      <trkpt lat="45.97266" lon="4.4446">
        <ele>816.3</ele>
        <time>2020-07-13T12:26:18Z</time>
      </trkpt>
      <trkpt lat="45.97267" lon="4.4446">
        <ele>817.74</ele>
        <time>2020-07-13T12:26:21Z</time>
      </trkpt>
      <trkpt lat="45.97271" lon="4.44459">
        <ele>817.74</ele>
        <time>2020-07-13T12:26:34Z</time>
      </trkpt>
      <trkpt lat="45.97275" lon="4.44453">
        <ele>818.22</ele>
        <time>2020-07-13T12:26:48Z</time>
      </trkpt>
      <trkpt lat="45.97275" lon="4.4445">
        <ele>818.22</ele>
        <time>2020-07-13T12:27:10Z</time>
      </trkpt>
      <trkpt lat="45.97276" lon="4.44452">
        <ele>818.22</ele>
        <time>2020-07-13T12:27:31Z</time>
      </trkpt>
      <trkpt lat="45.97277" lon="4.44449">
        <ele>818.22</ele>
        <time>2020-07-13T12:27:55Z</time>
      </trkpt>
      <trkpt lat="45.97277" lon="4.44451">
        <ele>818.22</ele>
        <time>2020-07-13T12:28:15Z</time>
      </trkpt>
      <trkpt lat="45.97277" lon="4.44449">
        <ele>818.22</ele>
        <time>2020-07-13T12:28:37Z</time>
      </trkpt>
      <trkpt lat="45.97278" lon="4.4445">
        <ele>818.7</ele>
        <time>2020-07-13T12:29:03Z</time>
      </trkpt>
      <trkpt lat="45.97278" lon="4.44444">
        <ele>818.7</ele>
        <time>2020-07-13T12:29:22Z</time>
      </trkpt>
      <trkpt lat="45.97278" lon="4.44446">
        <ele>818.7</ele>
        <time>2020-07-13T12:29:49Z</time>
      </trkpt>
      <trkpt lat="45.97279" lon="4.44445">
        <ele>818.7</ele>
        <time>2020-07-13T12:30:08Z</time>
      </trkpt>
      <trkpt lat="45.97276" lon="4.44447">
        <ele>818.7</ele>
        <time>2020-07-13T12:30:31Z</time>
      </trkpt>
      <trkpt lat="45.97276" lon="4.44446">
        <ele>818.7</ele>
        <time>2020-07-13T12:30:49Z</time>
      </trkpt>
      <trkpt lat="45.97274" lon="4.44453">
        <ele>818.7</ele>
        <time>2020-07-13T12:31:09Z</time>
      </trkpt>
      <trkpt lat="45.97271" lon="4.44461">
        <ele>818.7</ele>
        <time>2020-07-13T12:31:31Z</time>
      </trkpt>
      <trkpt lat="45.97281" lon="4.44452">
        <ele>819.18</ele>
        <time>2020-07-13T12:31:51Z</time>
      </trkpt>
      <trkpt lat="45.97283" lon="4.44449">
        <ele>819.18</ele>
        <time>2020-07-13T12:31:54Z</time>
      </trkpt>
      <trkpt lat="45.9729" lon="4.44437">
        <ele>820.14</ele>
        <time>2020-07-13T12:32:07Z</time>
      </trkpt>
      <trkpt lat="45.97302" lon="4.44419">
        <ele>820.62</ele>
        <time>2020-07-13T12:32:24Z</time>
      </trkpt>
      <trkpt lat="45.97307" lon="4.44407">
        <ele>820.62</ele>
        <time>2020-07-13T12:32:37Z</time>
      </trkpt>
      <trkpt lat="45.97313" lon="4.44392">
        <ele>821.58</ele>
        <time>2020-07-13T12:32:50Z</time>
      </trkpt>
      <trkpt lat="45.97321" lon="4.44376">
        <ele>821.58</ele>
        <time>2020-07-13T12:33:03Z</time>
      </trkpt>
      <trkpt lat="45.97324" lon="4.44365">
        <ele>821.58</ele>
        <time>2020-07-13T12:33:13Z</time>
      </trkpt>
      <trkpt lat="45.97331" lon="4.4435">
        <ele>821.58</ele>
        <time>2020-07-13T12:33:26Z</time>
      </trkpt>
      <trkpt lat="45.97332" lon="4.44347">
        <ele>821.58</ele>
        <time>2020-07-13T12:33:29Z</time>
      </trkpt>
      <trkpt lat="45.97338" lon="4.44327">
        <ele>821.58</ele>
        <time>2020-07-13T12:33:43Z</time>
      </trkpt>
      <trkpt lat="45.97341" lon="4.44314">
        <ele>820.14</ele>
        <time>2020-07-13T12:33:56Z</time>
      </trkpt>
      <trkpt lat="45.97338" lon="4.44312">
        <ele>820.14</ele>
        <time>2020-07-13T12:34:13Z</time>
      </trkpt>
      <trkpt lat="45.9733" lon="4.4431">
        <ele>820.14</ele>
        <time>2020-07-13T12:34:39Z</time>
      </trkpt>
      <trkpt lat="45.97327" lon="4.443">
        <ele>820.14</ele>
        <time>2020-07-13T12:35:09Z</time>
      </trkpt>
      <trkpt lat="45.97331" lon="4.44301">
        <ele>819.66</ele>
        <time>2020-07-13T12:35:25Z</time>
      </trkpt>
      <trkpt lat="45.97334" lon="4.44297">
        <ele>819.66</ele>
        <time>2020-07-13T12:35:42Z</time>
      </trkpt>
      <trkpt lat="45.97334" lon="4.44295">
        <ele>819.66</ele>
        <time>2020-07-13T12:36:07Z</time>
      </trkpt>
      <trkpt lat="45.97343" lon="4.44281">
        <ele>819.66</ele>
        <time>2020-07-13T12:36:25Z</time>
      </trkpt>
      <trkpt lat="45.97348" lon="4.44267">
        <ele>818.7</ele>
        <time>2020-07-13T12:36:39Z</time>
      </trkpt>
      <trkpt lat="45.97353" lon="4.44251">
        <ele>817.26</ele>
        <time>2020-07-13T12:36:57Z</time>
      </trkpt>
      <trkpt lat="45.97353" lon="4.44241">
        <ele>816.3</ele>
        <time>2020-07-13T12:37:08Z</time>
      </trkpt>
      <trkpt lat="45.97359" lon="4.44217">
        <ele>815.82</ele>
        <time>2020-07-13T12:37:23Z</time>
      </trkpt>
      <trkpt lat="45.97359" lon="4.44204">
        <ele>814.37</ele>
        <time>2020-07-13T12:37:38Z</time>
      </trkpt>
      <trkpt lat="45.97357" lon="4.44201">
        <ele>814.37</ele>
        <time>2020-07-13T12:38:03Z</time>
      </trkpt>
      <trkpt lat="45.97356" lon="4.44192">
        <ele>813.41</ele>
        <time>2020-07-13T12:38:17Z</time>
      </trkpt>
      <trkpt lat="45.97356" lon="4.44181">
        <ele>811.97</ele>
        <time>2020-07-13T12:38:34Z</time>
      </trkpt>
      <trkpt lat="45.97355" lon="4.44164">
        <ele>809.57</ele>
        <time>2020-07-13T12:38:51Z</time>
      </trkpt>
      <trkpt lat="45.97358" lon="4.44147">
        <ele>806.68</ele>
        <time>2020-07-13T12:39:06Z</time>
      </trkpt>
      <trkpt lat="45.97357" lon="4.44135">
        <ele>803.8</ele>
        <time>2020-07-13T12:39:20Z</time>
      </trkpt>
      <trkpt lat="45.97356" lon="4.44119">
        <ele>800.92</ele>
        <time>2020-07-13T12:39:36Z</time>
      </trkpt>
      <trkpt lat="45.97353" lon="4.44097">
        <ele>797.55</ele>
        <time>2020-07-13T12:39:53Z</time>
      </trkpt>
      <trkpt lat="45.97348" lon="4.44081">
        <ele>795.15</ele>
        <time>2020-07-13T12:40:06Z</time>
      </trkpt>
      <trkpt lat="45.97347" lon="4.44068">
        <ele>791.78</ele>
        <time>2020-07-13T12:40:18Z</time>
      </trkpt>
      <trkpt lat="45.97353" lon="4.4405">
        <ele>788.9</ele>
        <time>2020-07-13T12:40:33Z</time>
      </trkpt>
      <trkpt lat="45.97354" lon="4.44032">
        <ele>786.02</ele>
        <time>2020-07-13T12:40:48Z</time>
      </trkpt>
      <trkpt lat="45.97354" lon="4.44016">
        <ele>783.61</ele>
        <time>2020-07-13T12:41:02Z</time>
      </trkpt>
      <trkpt lat="45.97348" lon="4.44003">
        <ele>780.73</ele>
        <time>2020-07-13T12:41:16Z</time>
      </trkpt>
      <trkpt lat="45.97346" lon="4.43999">
        <ele>780.25</ele>
        <time>2020-07-13T12:41:21Z</time>
      </trkpt>
      <trkpt lat="45.97346" lon="4.43982">
        <ele>777.36</ele>
        <time>2020-07-13T12:41:37Z</time>
      </trkpt>
      <trkpt lat="45.97347" lon="4.43965">
        <ele>774</ele>
        <time>2020-07-13T12:41:53Z</time>
      </trkpt>
      <trkpt lat="45.97348" lon="4.43949">
        <ele>771.11</ele>
        <time>2020-07-13T12:42:07Z</time>
      </trkpt>
      <trkpt lat="45.97346" lon="4.43934">
        <ele>768.71</ele>
        <time>2020-07-13T12:42:21Z</time>
      </trkpt>
      <trkpt lat="45.97348" lon="4.43922">
        <ele>766.79</ele>
        <time>2020-07-13T12:42:34Z</time>
      </trkpt>
      <trkpt lat="45.97346" lon="4.43911">
        <ele>764.39</ele>
        <time>2020-07-13T12:42:45Z</time>
      </trkpt>
      <trkpt lat="45.97351" lon="4.43895">
        <ele>762.46</ele>
        <time>2020-07-13T12:42:57Z</time>
      </trkpt>
      <trkpt lat="45.97352" lon="4.4388">
        <ele>760.54</ele>
        <time>2020-07-13T12:43:10Z</time>
      </trkpt>
      <trkpt lat="45.97356" lon="4.43861">
        <ele>758.14</ele>
        <time>2020-07-13T12:43:28Z</time>
      </trkpt>
      <trkpt lat="45.97358" lon="4.43852">
        <ele>756.69</ele>
        <time>2020-07-13T12:43:36Z</time>
      </trkpt>
      <trkpt lat="45.97364" lon="4.43834">
        <ele>753.81</ele>
        <time>2020-07-13T12:43:51Z</time>
      </trkpt>
      <trkpt lat="45.97365" lon="4.4382">
        <ele>751.41</ele>
        <time>2020-07-13T12:44:03Z</time>
      </trkpt>
      <trkpt lat="45.97365" lon="4.43811">
        <ele>749.49</ele>
        <time>2020-07-13T12:44:11Z</time>
      </trkpt>
      <trkpt lat="45.97368" lon="4.43795">
        <ele>747.08</ele>
        <time>2020-07-13T12:44:25Z</time>
      </trkpt>
      <trkpt lat="45.9737" lon="4.43778">
        <ele>745.64</ele>
        <time>2020-07-13T12:44:39Z</time>
      </trkpt>
      <trkpt lat="45.97372" lon="4.43762">
        <ele>742.76</ele>
        <time>2020-07-13T12:44:53Z</time>
      </trkpt>
      <trkpt lat="45.97375" lon="4.43755">
        <ele>740.35</ele>
        <time>2020-07-13T12:45:05Z</time>
      </trkpt>
      <trkpt lat="45.97377" lon="4.43743">
        <ele>737.95</ele>
        <time>2020-07-13T12:45:20Z</time>
      </trkpt>
      <trkpt lat="45.97377" lon="4.43742">
        <ele>737.47</ele>
        <time>2020-07-13T12:45:22Z</time>
      </trkpt>
      <trkpt lat="45.97384" lon="4.4373">
        <ele>734.58</ele>
        <time>2020-07-13T12:45:36Z</time>
      </trkpt>
      <trkpt lat="45.9739" lon="4.43713">
        <ele>733.62</ele>
        <time>2020-07-13T12:45:50Z</time>
      </trkpt>
      <trkpt lat="45.9738" lon="4.43717">
        <ele>733.62</ele>
        <time>2020-07-13T12:46:05Z</time>
      </trkpt>
      <trkpt lat="45.9738" lon="4.43715">
        <ele>733.14</ele>
        <time>2020-07-13T12:46:20Z</time>
      </trkpt>
      <trkpt lat="45.9738" lon="4.4371">
        <ele>731.7</ele>
        <time>2020-07-13T12:46:36Z</time>
      </trkpt>
      <trkpt lat="45.97378" lon="4.43706">
        <ele>731.7</ele>
        <time>2020-07-13T12:47:00Z</time>
      </trkpt>
      <trkpt lat="45.97379" lon="4.43712">
        <ele>731.7</ele>
        <time>2020-07-13T12:47:17Z</time>
      </trkpt>
      <trkpt lat="45.97382" lon="4.4371">
        <ele>731.7</ele>
        <time>2020-07-13T12:47:31Z</time>
      </trkpt>
      <trkpt lat="45.97384" lon="4.43705">
        <ele>733.14</ele>
        <time>2020-07-13T12:47:39Z</time>
      </trkpt>
      <trkpt lat="45.97379" lon="4.43701">
        <ele>733.14</ele>
        <time>2020-07-13T12:47:59Z</time>
      </trkpt>
      <trkpt lat="45.97377" lon="4.43695">
        <ele>732.66</ele>
        <time>2020-07-13T12:48:30Z</time>
      </trkpt>
      <trkpt lat="45.97377" lon="4.4369">
        <ele>732.66</ele>
        <time>2020-07-13T12:49:06Z</time>
      </trkpt>
      <trkpt lat="45.97376" lon="4.43697">
        <ele>732.66</ele>
        <time>2020-07-13T12:49:33Z</time>
      </trkpt>
      <trkpt lat="45.97373" lon="4.43702">
        <ele>731.22</ele>
        <time>2020-07-13T12:49:54Z</time>
      </trkpt>
      <trkpt lat="45.9737" lon="4.43704">
        <ele>732.66</ele>
        <time>2020-07-13T12:49:59Z</time>
      </trkpt>
      <trkpt lat="45.97361" lon="4.43706">
        <ele>733.14</ele>
        <time>2020-07-13T12:50:12Z</time>
      </trkpt>
      <trkpt lat="45.97357" lon="4.43702">
        <ele>733.62</ele>
        <time>2020-07-13T12:50:24Z</time>
      </trkpt>
      <trkpt lat="45.97348" lon="4.43697">
        <ele>734.58</ele>
        <time>2020-07-13T12:50:36Z</time>
      </trkpt>
      <trkpt lat="45.97342" lon="4.43694">
        <ele>736.51</ele>
        <time>2020-07-13T12:50:51Z</time>
      </trkpt>
      <trkpt lat="45.97333" lon="4.43692">
        <ele>736.99</ele>
        <time>2020-07-13T12:51:04Z</time>
      </trkpt>
      <trkpt lat="45.9732" lon="4.43691">
        <ele>738.43</ele>
        <time>2020-07-13T12:51:19Z</time>
      </trkpt>
      <trkpt lat="45.97309" lon="4.43686">
        <ele>740.35</ele>
        <time>2020-07-13T12:51:36Z</time>
      </trkpt>
      <trkpt lat="45.97302" lon="4.43682">
        <ele>741.31</ele>
        <time>2020-07-13T12:51:50Z</time>
      </trkpt>
      <trkpt lat="45.97288" lon="4.4368">
        <ele>742.28</ele>
        <time>2020-07-13T12:52:02Z</time>
      </trkpt>
      <trkpt lat="45.9728" lon="4.4368">
        <ele>743.24</ele>
        <time>2020-07-13T12:52:14Z</time>
      </trkpt>
      <trkpt lat="45.97273" lon="4.43682">
        <ele>744.68</ele>
        <time>2020-07-13T12:52:24Z</time>
      </trkpt>
      <trkpt lat="45.97261" lon="4.43682">
        <ele>745.64</ele>
        <time>2020-07-13T12:52:40Z</time>
      </trkpt>
      <trkpt lat="45.97251" lon="4.43682">
        <ele>746.6</ele>
        <time>2020-07-13T12:52:53Z</time>
      </trkpt>
      <trkpt lat="45.9725" lon="4.43682">
        <ele>747.56</ele>
        <time>2020-07-13T12:52:54Z</time>
      </trkpt>
      <trkpt lat="45.9724" lon="4.43683">
        <ele>747.56</ele>
        <time>2020-07-13T12:53:07Z</time>
      </trkpt>
      <trkpt lat="45.97239" lon="4.43684">
        <ele>748.04</ele>
        <time>2020-07-13T12:53:08Z</time>
      </trkpt>
      <trkpt lat="45.97228" lon="4.43684">
        <ele>749.49</ele>
        <time>2020-07-13T12:53:22Z</time>
      </trkpt>
      <trkpt lat="45.97218" lon="4.43684">
        <ele>750.45</ele>
        <time>2020-07-13T12:53:34Z</time>
      </trkpt>
      <trkpt lat="45.97212" lon="4.43684">
        <ele>751.41</ele>
        <time>2020-07-13T12:53:42Z</time>
      </trkpt>
      <trkpt lat="45.97204" lon="4.43684">
        <ele>751.41</ele>
        <time>2020-07-13T12:53:51Z</time>
      </trkpt>
      <trkpt lat="45.97193" lon="4.43683">
        <ele>752.85</ele>
        <time>2020-07-13T12:54:05Z</time>
      </trkpt>
      <trkpt lat="45.97186" lon="4.43683">
        <ele>753.33</ele>
        <time>2020-07-13T12:54:13Z</time>
      </trkpt>
      <trkpt lat="45.97174" lon="4.43683">
        <ele>754.29</ele>
        <time>2020-07-13T12:54:29Z</time>
      </trkpt>
      <trkpt lat="45.97163" lon="4.43681">
        <ele>755.25</ele>
        <time>2020-07-13T12:54:43Z</time>
      </trkpt>
      <trkpt lat="45.97152" lon="4.4368">
        <ele>756.21</ele>
        <time>2020-07-13T12:54:56Z</time>
      </trkpt>
      <trkpt lat="45.97139" lon="4.43677">
        <ele>758.14</ele>
        <time>2020-07-13T12:55:11Z</time>
      </trkpt>
      <trkpt lat="45.97129" lon="4.43673">
        <ele>759.1</ele>
        <time>2020-07-13T12:55:24Z</time>
      </trkpt>
      <trkpt lat="45.97118" lon="4.43672">
        <ele>760.06</ele>
        <time>2020-07-13T12:55:38Z</time>
      </trkpt>
      <trkpt lat="45.9711" lon="4.43668">
        <ele>761.98</ele>
        <time>2020-07-13T12:55:52Z</time>
      </trkpt>
      <trkpt lat="45.971" lon="4.43664">
        <ele>763.42</ele>
        <time>2020-07-13T12:56:07Z</time>
      </trkpt>
      <trkpt lat="45.97096" lon="4.43658">
        <ele>763.9</ele>
        <time>2020-07-13T12:56:20Z</time>
      </trkpt>
      <trkpt lat="45.97096" lon="4.43651">
        <ele>762.94</ele>
        <time>2020-07-13T12:56:29Z</time>
      </trkpt>
      <trkpt lat="45.97095" lon="4.43641">
        <ele>762.46</ele>
        <time>2020-07-13T12:56:41Z</time>
      </trkpt>
      <trkpt lat="45.97098" lon="4.43628">
        <ele>761.5</ele>
        <time>2020-07-13T12:56:54Z</time>
      </trkpt>
      <trkpt lat="45.97103" lon="4.43616">
        <ele>761.02</ele>
        <time>2020-07-13T12:57:07Z</time>
      </trkpt>
      <trkpt lat="45.97109" lon="4.43603">
        <ele>760.54</ele>
        <time>2020-07-13T12:57:20Z</time>
      </trkpt>
      <trkpt lat="45.97113" lon="4.4359">
        <ele>759.58</ele>
        <time>2020-07-13T12:57:31Z</time>
      </trkpt>
      <trkpt lat="45.97119" lon="4.43576">
        <ele>759.1</ele>
        <time>2020-07-13T12:57:44Z</time>
      </trkpt>
      <trkpt lat="45.97122" lon="4.43567">
        <ele>757.66</ele>
        <time>2020-07-13T12:57:56Z</time>
      </trkpt>
      <trkpt lat="45.97125" lon="4.43555">
        <ele>757.66</ele>
        <time>2020-07-13T12:58:07Z</time>
      </trkpt>
      <trkpt lat="45.97128" lon="4.43539">
        <ele>757.18</ele>
        <time>2020-07-13T12:58:22Z</time>
      </trkpt>
      <trkpt lat="45.97128" lon="4.4353">
        <ele>756.69</ele>
        <time>2020-07-13T12:58:35Z</time>
      </trkpt>
      <trkpt lat="45.97124" lon="4.43529">
        <ele>756.21</ele>
        <time>2020-07-13T12:58:53Z</time>
      </trkpt>
      <trkpt lat="45.97119" lon="4.4353">
        <ele>756.21</ele>
        <time>2020-07-13T12:59:13Z</time>
      </trkpt>
      <trkpt lat="45.97127" lon="4.43526">
        <ele>756.21</ele>
        <time>2020-07-13T12:59:30Z</time>
      </trkpt>
      <trkpt lat="45.97129" lon="4.43519">
        <ele>757.66</ele>
        <time>2020-07-13T12:59:48Z</time>
      </trkpt>
      <trkpt lat="45.97127" lon="4.43509">
        <ele>759.1</ele>
        <time>2020-07-13T13:00:03Z</time>
      </trkpt>
      <trkpt lat="45.97123" lon="4.43497">
        <ele>760.54</ele>
        <time>2020-07-13T13:00:17Z</time>
      </trkpt>
      <trkpt lat="45.97119" lon="4.43484">
        <ele>761.98</ele>
        <time>2020-07-13T13:00:31Z</time>
      </trkpt>
      <trkpt lat="45.97115" lon="4.43473">
        <ele>763.42</ele>
        <time>2020-07-13T13:00:43Z</time>
      </trkpt>
      <trkpt lat="45.97108" lon="4.4346">
        <ele>764.87</ele>
        <time>2020-07-13T13:00:57Z</time>
      </trkpt>
      <trkpt lat="45.97106" lon="4.43449">
        <ele>767.27</ele>
        <time>2020-07-13T13:01:10Z</time>
      </trkpt>
      <trkpt lat="45.97099" lon="4.43439">
        <ele>768.71</ele>
        <time>2020-07-13T13:01:24Z</time>
      </trkpt>
      <trkpt lat="45.97098" lon="4.4343">
        <ele>770.15</ele>
        <time>2020-07-13T13:01:36Z</time>
      </trkpt>
      <trkpt lat="45.97098" lon="4.43416">
        <ele>771.11</ele>
        <time>2020-07-13T13:01:48Z</time>
      </trkpt>
      <trkpt lat="45.97093" lon="4.43405">
        <ele>773.04</ele>
        <time>2020-07-13T13:01:59Z</time>
      </trkpt>
      <trkpt lat="45.97093" lon="4.43397">
        <ele>774</ele>
        <time>2020-07-13T13:02:14Z</time>
      </trkpt>
      <trkpt lat="45.971" lon="4.43381">
        <ele>774</ele>
        <time>2020-07-13T13:02:28Z</time>
      </trkpt>
      <trkpt lat="45.97106" lon="4.43367">
        <ele>774</ele>
        <time>2020-07-13T13:02:39Z</time>
      </trkpt>
      <trkpt lat="45.97109" lon="4.4336">
        <ele>774.96</ele>
        <time>2020-07-13T13:02:45Z</time>
      </trkpt>
      <trkpt lat="45.97114" lon="4.43346">
        <ele>775.44</ele>
        <time>2020-07-13T13:02:58Z</time>
      </trkpt>
      <trkpt lat="45.97118" lon="4.43335">
        <ele>775.44</ele>
        <time>2020-07-13T13:03:10Z</time>
      </trkpt>
      <trkpt lat="45.97124" lon="4.43317">
        <ele>775.44</ele>
        <time>2020-07-13T13:03:25Z</time>
      </trkpt>
      <trkpt lat="45.97127" lon="4.43311">
        <ele>774</ele>
        <time>2020-07-13T13:03:28Z</time>
      </trkpt>
      <trkpt lat="45.97128" lon="4.43307">
        <ele>774</ele>
        <time>2020-07-13T13:03:31Z</time>
      </trkpt>
      <trkpt lat="45.9713" lon="4.43292">
        <ele>774</ele>
        <time>2020-07-13T13:03:38Z</time>
      </trkpt>
      <trkpt lat="45.97132" lon="4.4328">
        <ele>774</ele>
        <time>2020-07-13T13:03:46Z</time>
      </trkpt>
      <trkpt lat="45.97133" lon="4.43275">
        <ele>774</ele>
        <time>2020-07-13T13:03:49Z</time>
      </trkpt>
      <trkpt lat="45.97133" lon="4.43266">
        <ele>774</ele>
        <time>2020-07-13T13:03:54Z</time>
      </trkpt>
      <trkpt lat="45.97131" lon="4.43259">
        <ele>774</ele>
        <time>2020-07-13T13:03:58Z</time>
      </trkpt>
      <trkpt lat="45.97133" lon="4.43253">
        <ele>774</ele>
        <time>2020-07-13T13:04:02Z</time>
      </trkpt>
      <trkpt lat="45.97127" lon="4.43231">
        <ele>774</ele>
        <time>2020-07-13T13:04:16Z</time>
      </trkpt>
      <trkpt lat="45.97123" lon="4.43224">
        <ele>774.96</ele>
        <time>2020-07-13T13:04:22Z</time>
      </trkpt>
      <trkpt lat="45.97122" lon="4.43221">
        <ele>774.96</ele>
        <time>2020-07-13T13:04:24Z</time>
      </trkpt>
      <trkpt lat="45.9712" lon="4.43215">
        <ele>774.96</ele>
        <time>2020-07-13T13:04:27Z</time>
      </trkpt>
      <trkpt lat="45.97121" lon="4.43207">
        <ele>774.96</ele>
        <time>2020-07-13T13:04:32Z</time>
      </trkpt>
      <trkpt lat="45.97117" lon="4.43191">
        <ele>774.96</ele>
        <time>2020-07-13T13:04:44Z</time>
      </trkpt>
      <trkpt lat="45.97115" lon="4.43189">
        <ele>774.96</ele>
        <time>2020-07-13T13:04:46Z</time>
      </trkpt>
      <trkpt lat="45.97109" lon="4.43183">
        <ele>774.96</ele>
        <time>2020-07-13T13:04:52Z</time>
      </trkpt>
      <trkpt lat="45.97101" lon="4.43168">
        <ele>774</ele>
        <time>2020-07-13T13:05:04Z</time>
      </trkpt>
      <trkpt lat="45.97089" lon="4.43151">
        <ele>773.52</ele>
        <time>2020-07-13T13:05:16Z</time>
      </trkpt>
      <trkpt lat="45.97079" lon="4.4314">
        <ele>771.6</ele>
        <time>2020-07-13T13:05:30Z</time>
      </trkpt>
      <trkpt lat="45.97068" lon="4.43128">
        <ele>770.63</ele>
        <time>2020-07-13T13:05:44Z</time>
      </trkpt>
      <trkpt lat="45.97054" lon="4.43116">
        <ele>768.71</ele>
        <time>2020-07-13T13:05:58Z</time>
      </trkpt>
      <trkpt lat="45.97036" lon="4.43113">
        <ele>767.75</ele>
        <time>2020-07-13T13:06:11Z</time>
      </trkpt>
      <trkpt lat="45.9702" lon="4.43114">
        <ele>767.75</ele>
        <time>2020-07-13T13:06:25Z</time>
      </trkpt>
      <trkpt lat="45.97015" lon="4.43114">
        <ele>767.75</ele>
        <time>2020-07-13T13:06:31Z</time>
      </trkpt>
      <trkpt lat="45.97" lon="4.43115">
        <ele>767.75</ele>
        <time>2020-07-13T13:06:43Z</time>
      </trkpt>
      <trkpt lat="45.96986" lon="4.4312">
        <ele>768.71</ele>
        <time>2020-07-13T13:06:56Z</time>
      </trkpt>
      <trkpt lat="45.96975" lon="4.43123">
        <ele>769.19</ele>
        <time>2020-07-13T13:07:08Z</time>
      </trkpt>
      <trkpt lat="45.96959" lon="4.43128">
        <ele>769.19</ele>
        <time>2020-07-13T13:07:23Z</time>
      </trkpt>
      <trkpt lat="45.96943" lon="4.43138">
        <ele>770.63</ele>
        <time>2020-07-13T13:07:39Z</time>
      </trkpt>
      <trkpt lat="45.9693" lon="4.43149">
        <ele>771.11</ele>
        <time>2020-07-13T13:07:52Z</time>
      </trkpt>
      <trkpt lat="45.96918" lon="4.43161">
        <ele>771.6</ele>
        <time>2020-07-13T13:08:02Z</time>
      </trkpt>
      <trkpt lat="45.96911" lon="4.43167">
        <ele>772.08</ele>
        <time>2020-07-13T13:08:10Z</time>
      </trkpt>
      <trkpt lat="45.969" lon="4.43178">
        <ele>772.56</ele>
        <time>2020-07-13T13:08:26Z</time>
      </trkpt>
      <trkpt lat="45.96897" lon="4.4319">
        <ele>771.11</ele>
        <time>2020-07-13T13:08:32Z</time>
      </trkpt>
      <trkpt lat="45.96875" lon="4.43197">
        <ele>767.75</ele>
        <time>2020-07-13T13:08:50Z</time>
      </trkpt>
      <trkpt lat="45.96858" lon="4.43201">
        <ele>764.87</ele>
        <time>2020-07-13T13:09:07Z</time>
      </trkpt>
      <trkpt lat="45.9684" lon="4.43205">
        <ele>762.46</ele>
        <time>2020-07-13T13:09:26Z</time>
      </trkpt>
      <trkpt lat="45.96818" lon="4.43215">
        <ele>759.58</ele>
        <time>2020-07-13T13:09:45Z</time>
      </trkpt>
      <trkpt lat="45.96803" lon="4.43222">
        <ele>758.14</ele>
        <time>2020-07-13T13:10:03Z</time>
      </trkpt>
      <trkpt lat="45.96801" lon="4.43222">
        <ele>757.66</ele>
        <time>2020-07-13T13:10:04Z</time>
      </trkpt>
      <trkpt lat="45.96778" lon="4.43226">
        <ele>755.25</ele>
        <time>2020-07-13T13:10:25Z</time>
      </trkpt>
      <trkpt lat="45.96758" lon="4.43232">
        <ele>754.29</ele>
        <time>2020-07-13T13:10:43Z</time>
      </trkpt>
      <trkpt lat="45.96744" lon="4.43236">
        <ele>751.41</ele>
        <time>2020-07-13T13:10:59Z</time>
      </trkpt>
      <trkpt lat="45.96726" lon="4.43232">
        <ele>750.45</ele>
        <time>2020-07-13T13:11:15Z</time>
      </trkpt>
      <trkpt lat="45.96722" lon="4.43222">
        <ele>749.49</ele>
        <time>2020-07-13T13:11:33Z</time>
      </trkpt>
      <trkpt lat="45.9671" lon="4.43197">
        <ele>747.56</ele>
        <time>2020-07-13T13:11:53Z</time>
      </trkpt>
      <trkpt lat="45.96707" lon="4.43167">
        <ele>745.16</ele>
        <time>2020-07-13T13:12:11Z</time>
      </trkpt>
      <trkpt lat="45.96702" lon="4.43137">
        <ele>743.24</ele>
        <time>2020-07-13T13:12:32Z</time>
      </trkpt>
      <trkpt lat="45.96695" lon="4.43113">
        <ele>740.83</ele>
        <time>2020-07-13T13:12:50Z</time>
      </trkpt>
      <trkpt lat="45.96691" lon="4.43089">
        <ele>738.43</ele>
        <time>2020-07-13T13:13:06Z</time>
      </trkpt>
      <trkpt lat="45.96688" lon="4.43065">
        <ele>736.51</ele>
        <time>2020-07-13T13:13:22Z</time>
      </trkpt>
      <trkpt lat="45.96684" lon="4.43037">
        <ele>734.1</ele>
        <time>2020-07-13T13:13:42Z</time>
      </trkpt>
      <trkpt lat="45.9668" lon="4.43012">
        <ele>731.7</ele>
        <time>2020-07-13T13:13:59Z</time>
      </trkpt>
      <trkpt lat="45.96675" lon="4.42982">
        <ele>730.26</ele>
        <time>2020-07-13T13:14:19Z</time>
      </trkpt>
      <trkpt lat="45.96672" lon="4.42947">
        <ele>727.86</ele>
        <time>2020-07-13T13:14:43Z</time>
      </trkpt>
      <trkpt lat="45.96672" lon="4.42921">
        <ele>724.97</ele>
        <time>2020-07-13T13:15:02Z</time>
      </trkpt>
      <trkpt lat="45.96669" lon="4.42897">
        <ele>722.57</ele>
        <time>2020-07-13T13:15:19Z</time>
      </trkpt>
      <trkpt lat="45.96671" lon="4.4288">
        <ele>721.61</ele>
        <time>2020-07-13T13:15:33Z</time>
      </trkpt>
      <trkpt lat="45.96672" lon="4.42861">
        <ele>720.65</ele>
        <time>2020-07-13T13:15:48Z</time>
      </trkpt>
      <trkpt lat="45.96679" lon="4.42839">
        <ele>718.24</ele>
        <time>2020-07-13T13:16:04Z</time>
      </trkpt>
      <trkpt lat="45.9668" lon="4.4282">
        <ele>716.8</ele>
        <time>2020-07-13T13:16:19Z</time>
      </trkpt>
      <trkpt lat="45.96684" lon="4.42801">
        <ele>715.36</ele>
        <time>2020-07-13T13:16:34Z</time>
      </trkpt>
      <trkpt lat="45.96688" lon="4.42772">
        <ele>713.92</ele>
        <time>2020-07-13T13:16:52Z</time>
      </trkpt>
      <trkpt lat="45.96689" lon="4.42767">
        <ele>713.44</ele>
        <time>2020-07-13T13:16:56Z</time>
      </trkpt>
      <trkpt lat="45.96694" lon="4.42751">
        <ele>712.95</ele>
        <time>2020-07-13T13:17:11Z</time>
      </trkpt>
      <trkpt lat="45.967" lon="4.4273">
        <ele>710.55</ele>
        <time>2020-07-13T13:17:29Z</time>
      </trkpt>
      <trkpt lat="45.96708" lon="4.42718">
        <ele>709.59</ele>
        <time>2020-07-13T13:17:43Z</time>
      </trkpt>
      <trkpt lat="45.96713" lon="4.42711">
        <ele>708.63</ele>
        <time>2020-07-13T13:17:51Z</time>
      </trkpt>
      <trkpt lat="45.96723" lon="4.42691">
        <ele>707.19</ele>
        <time>2020-07-13T13:18:07Z</time>
      </trkpt>
      <trkpt lat="45.96732" lon="4.42677">
        <ele>706.23</ele>
        <time>2020-07-13T13:18:18Z</time>
      </trkpt>
      <trkpt lat="45.96741" lon="4.42665">
        <ele>705.75</ele>
        <time>2020-07-13T13:18:29Z</time>
      </trkpt>
      <trkpt lat="45.96748" lon="4.42655">
        <ele>704.3</ele>
        <time>2020-07-13T13:18:40Z</time>
      </trkpt>
      <trkpt lat="45.96755" lon="4.4264">
        <ele>704.3</ele>
        <time>2020-07-13T13:18:55Z</time>
      </trkpt>
      <trkpt lat="45.96769" lon="4.42617">
        <ele>701.9</ele>
        <time>2020-07-13T13:19:12Z</time>
      </trkpt>
      <trkpt lat="45.96774" lon="4.42611">
        <ele>701.42</ele>
        <time>2020-07-13T13:19:19Z</time>
      </trkpt>
      <trkpt lat="45.96782" lon="4.42594">
        <ele>699.98</ele>
        <time>2020-07-13T13:19:32Z</time>
      </trkpt>
      <trkpt lat="45.96788" lon="4.42578">
        <ele>698.05</ele>
        <time>2020-07-13T13:19:47Z</time>
      </trkpt>
      <trkpt lat="45.96795" lon="4.42565">
        <ele>696.13</ele>
        <time>2020-07-13T13:20:02Z</time>
      </trkpt>
      <trkpt lat="45.96801" lon="4.42554">
        <ele>693.25</ele>
        <time>2020-07-13T13:20:17Z</time>
      </trkpt>
      <trkpt lat="45.96807" lon="4.42541">
        <ele>690.36</ele>
        <time>2020-07-13T13:20:32Z</time>
      </trkpt>
      <trkpt lat="45.96817" lon="4.42537">
        <ele>688.44</ele>
        <time>2020-07-13T13:20:48Z</time>
      </trkpt>
      <trkpt lat="45.96823" lon="4.42542">
        <ele>686.52</ele>
        <time>2020-07-13T13:21:05Z</time>
      </trkpt>
      <trkpt lat="45.96818" lon="4.42572">
        <ele>685.08</ele>
        <time>2020-07-13T13:21:23Z</time>
      </trkpt>
      <trkpt lat="45.96817" lon="4.42585">
        <ele>684.12</ele>
        <time>2020-07-13T13:21:31Z</time>
      </trkpt>
      <trkpt lat="45.96813" lon="4.42594">
        <ele>683.15</ele>
        <time>2020-07-13T13:21:39Z</time>
      </trkpt>
      <trkpt lat="45.96809" lon="4.42607">
        <ele>681.23</ele>
        <time>2020-07-13T13:21:51Z</time>
      </trkpt>
      <trkpt lat="45.96808" lon="4.42615">
        <ele>680.75</ele>
        <time>2020-07-13T13:21:58Z</time>
      </trkpt>
      <trkpt lat="45.96808" lon="4.42637">
        <ele>678.83</ele>
        <time>2020-07-13T13:22:13Z</time>
      </trkpt>
      <trkpt lat="45.96808" lon="4.42639">
        <ele>678.83</ele>
        <time>2020-07-13T13:22:14Z</time>
      </trkpt>
      <trkpt lat="45.96804" lon="4.42643">
        <ele>678.83</ele>
        <time>2020-07-13T13:22:19Z</time>
      </trkpt>
      <trkpt lat="45.96804" lon="4.4265">
        <ele>678.83</ele>
        <time>2020-07-13T13:22:23Z</time>
      </trkpt>
      <trkpt lat="45.96806" lon="4.42669">
        <ele>677.39</ele>
        <time>2020-07-13T13:22:36Z</time>
      </trkpt>
      <trkpt lat="45.96815" lon="4.42692">
        <ele>675.94</ele>
        <time>2020-07-13T13:22:50Z</time>
      </trkpt>
      <trkpt lat="45.96831" lon="4.42717">
        <ele>674.02</ele>
        <time>2020-07-13T13:23:08Z</time>
      </trkpt>
      <trkpt lat="45.9684" lon="4.42738">
        <ele>672.58</ele>
        <time>2020-07-13T13:23:24Z</time>
      </trkpt>
      <trkpt lat="45.96849" lon="4.42756">
        <ele>672.58</ele>
        <time>2020-07-13T13:23:39Z</time>
      </trkpt>
      <trkpt lat="45.96856" lon="4.42773">
        <ele>671.62</ele>
        <time>2020-07-13T13:23:53Z</time>
      </trkpt>
      <trkpt lat="45.96866" lon="4.42799">
        <ele>670.66</ele>
        <time>2020-07-13T13:24:12Z</time>
      </trkpt>
      <trkpt lat="45.9688" lon="4.42819">
        <ele>669.7</ele>
        <time>2020-07-13T13:24:30Z</time>
      </trkpt>
      <trkpt lat="45.96896" lon="4.42828">
        <ele>669.22</ele>
        <time>2020-07-13T13:24:42Z</time>
      </trkpt>
      <trkpt lat="45.96906" lon="4.42828">
        <ele>667.77</ele>
        <time>2020-07-13T13:24:56Z</time>
      </trkpt>
      <trkpt lat="45.96907" lon="4.42828">
        <ele>667.77</ele>
        <time>2020-07-13T13:24:57Z</time>
      </trkpt>
      <trkpt lat="45.96918" lon="4.42822">
        <ele>667.29</ele>
        <time>2020-07-13T13:25:12Z</time>
      </trkpt>
      <trkpt lat="45.96938" lon="4.42808">
        <ele>665.37</ele>
        <time>2020-07-13T13:25:32Z</time>
      </trkpt>
      <trkpt lat="45.96957" lon="4.42796">
        <ele>663.93</ele>
        <time>2020-07-13T13:25:53Z</time>
      </trkpt>
      <trkpt lat="45.96979" lon="4.42788">
        <ele>663.45</ele>
        <time>2020-07-13T13:26:11Z</time>
      </trkpt>
      <trkpt lat="45.96989" lon="4.42782">
        <ele>664.89</ele>
        <time>2020-07-13T13:26:24Z</time>
      </trkpt>
      <trkpt lat="45.97009" lon="4.42771">
        <ele>667.29</ele>
        <time>2020-07-13T13:26:47Z</time>
      </trkpt>
      <trkpt lat="45.97029" lon="4.42765">
        <ele>668.73</ele>
        <time>2020-07-13T13:27:09Z</time>
      </trkpt>
      <trkpt lat="45.97043" lon="4.42763">
        <ele>670.18</ele>
        <time>2020-07-13T13:27:28Z</time>
      </trkpt>
      <trkpt lat="45.97054" lon="4.42766">
        <ele>671.14</ele>
        <time>2020-07-13T13:27:45Z</time>
      </trkpt>
      <trkpt lat="45.9708" lon="4.42764">
        <ele>673.06</ele>
        <time>2020-07-13T13:28:04Z</time>
      </trkpt>
      <trkpt lat="45.97091" lon="4.42769">
        <ele>674.02</ele>
        <time>2020-07-13T13:28:17Z</time>
      </trkpt>
      <trkpt lat="45.97103" lon="4.42773">
        <ele>674.5</ele>
        <time>2020-07-13T13:28:28Z</time>
      </trkpt>
      <trkpt lat="45.97116" lon="4.4278">
        <ele>674.5</ele>
        <time>2020-07-13T13:28:44Z</time>
      </trkpt>
      <trkpt lat="45.97128" lon="4.42783">
        <ele>673.54</ele>
        <time>2020-07-13T13:28:59Z</time>
      </trkpt>
      <trkpt lat="45.97145" lon="4.42789">
        <ele>671.62</ele>
        <time>2020-07-13T13:29:18Z</time>
      </trkpt>
      <trkpt lat="45.97162" lon="4.42795">
        <ele>669.7</ele>
        <time>2020-07-13T13:29:35Z</time>
      </trkpt>
      <trkpt lat="45.9718" lon="4.428">
        <ele>668.25</ele>
        <time>2020-07-13T13:29:53Z</time>
      </trkpt>
      <trkpt lat="45.97198" lon="4.42813">
        <ele>665.85</ele>
        <time>2020-07-13T13:30:13Z</time>
      </trkpt>
      <trkpt lat="45.97209" lon="4.42833">
        <ele>664.41</ele>
        <time>2020-07-13T13:30:32Z</time>
      </trkpt>
      <trkpt lat="45.97208" lon="4.42852">
        <ele>663.45</ele>
        <time>2020-07-13T13:30:50Z</time>
      </trkpt>
      <trkpt lat="45.97209" lon="4.42855">
        <ele>662.49</ele>
        <time>2020-07-13T13:30:53Z</time>
      </trkpt>
      <trkpt lat="45.97217" lon="4.42878">
        <ele>661.52</ele>
        <time>2020-07-13T13:31:10Z</time>
      </trkpt>
      <trkpt lat="45.97225" lon="4.429">
        <ele>661.04</ele>
        <time>2020-07-13T13:31:26Z</time>
      </trkpt>
      <trkpt lat="45.97235" lon="4.42922">
        <ele>659.6</ele>
        <time>2020-07-13T13:31:41Z</time>
      </trkpt>
      <trkpt lat="45.97247" lon="4.42943">
        <ele>657.2</ele>
        <time>2020-07-13T13:31:58Z</time>
      </trkpt>
      <trkpt lat="45.9725" lon="4.42948">
        <ele>655.76</ele>
        <time>2020-07-13T13:32:02Z</time>
      </trkpt>
      <trkpt lat="45.97259" lon="4.42967">
        <ele>654.31</ele>
        <time>2020-07-13T13:32:19Z</time>
      </trkpt>
      <trkpt lat="45.97268" lon="4.42987">
        <ele>652.39</ele>
        <time>2020-07-13T13:32:40Z</time>
      </trkpt>
      <trkpt lat="45.97279" lon="4.43">
        <ele>650.95</ele>
        <time>2020-07-13T13:32:56Z</time>
      </trkpt>
      <trkpt lat="45.97293" lon="4.43008">
        <ele>649.99</ele>
        <time>2020-07-13T13:33:13Z</time>
      </trkpt>
      <trkpt lat="45.97294" lon="4.43007">
        <ele>649.99</ele>
        <time>2020-07-13T13:33:41Z</time>
      </trkpt>
      <trkpt lat="45.97296" lon="4.43008">
        <ele>649.51</ele>
        <time>2020-07-13T13:33:56Z</time>
      </trkpt>
      <trkpt lat="45.97294" lon="4.43009">
        <ele>650.95</ele>
        <time>2020-07-13T13:34:07Z</time>
      </trkpt>
      <trkpt lat="45.97289" lon="4.43008">
        <ele>650.95</ele>
        <time>2020-07-13T13:34:39Z</time>
      </trkpt>
      <trkpt lat="45.9729" lon="4.43009">
        <ele>650.95</ele>
        <time>2020-07-13T13:34:56Z</time>
      </trkpt>
      <trkpt lat="45.9729" lon="4.4301">
        <ele>651.43</ele>
        <time>2020-07-13T13:35:26Z</time>
      </trkpt>
      <trkpt lat="45.97295" lon="4.43009">
        <ele>651.43</ele>
        <time>2020-07-13T13:35:51Z</time>
      </trkpt>
      <trkpt lat="45.97294" lon="4.43011">
        <ele>651.43</ele>
        <time>2020-07-13T13:36:24Z</time>
      </trkpt>
      <trkpt lat="45.97294" lon="4.43007">
        <ele>650.95</ele>
        <time>2020-07-13T13:36:55Z</time>
      </trkpt>
      <trkpt lat="45.97289" lon="4.43008">
        <ele>650.95</ele>
        <time>2020-07-13T13:37:14Z</time>
      </trkpt>
      <trkpt lat="45.97289" lon="4.43011">
        <ele>650.95</ele>
        <time>2020-07-13T13:37:48Z</time>
      </trkpt>
      <trkpt lat="45.97293" lon="4.43008">
        <ele>650.95</ele>
        <time>2020-07-13T13:38:14Z</time>
      </trkpt>
      <trkpt lat="45.97289" lon="4.4301">
        <ele>650.47</ele>
        <time>2020-07-13T13:38:44Z</time>
      </trkpt>
      <trkpt lat="45.97288" lon="4.43008">
        <ele>650.47</ele>
        <time>2020-07-13T13:39:07Z</time>
      </trkpt>
      <trkpt lat="45.9729" lon="4.43007">
        <ele>649.99</ele>
        <time>2020-07-13T13:39:29Z</time>
      </trkpt>
      <trkpt lat="45.9729" lon="4.43005">
        <ele>649.99</ele>
        <time>2020-07-13T13:39:49Z</time>
      </trkpt>
      <trkpt lat="45.97291" lon="4.43007">
        <ele>649.99</ele>
        <time>2020-07-13T13:40:19Z</time>
      </trkpt>
      <trkpt lat="45.97294" lon="4.43007">
        <ele>649.99</ele>
        <time>2020-07-13T13:40:46Z</time>
      </trkpt>
      <trkpt lat="45.9729" lon="4.43006">
        <ele>649.99</ele>
        <time>2020-07-13T13:41:18Z</time>
      </trkpt>
      <trkpt lat="45.9729" lon="4.43003">
        <ele>649.99</ele>
        <time>2020-07-13T13:41:44Z</time>
      </trkpt>
      <trkpt lat="45.97288" lon="4.43004">
        <ele>649.99</ele>
        <time>2020-07-13T13:42:13Z</time>
      </trkpt>
      <trkpt lat="45.97295" lon="4.43005">
        <ele>648.55</ele>
        <time>2020-07-13T13:42:49Z</time>
      </trkpt>
      <trkpt lat="45.97293" lon="4.43007">
        <ele>648.07</ele>
        <time>2020-07-13T13:43:22Z</time>
      </trkpt>
      <trkpt lat="45.9729" lon="4.43006">
        <ele>648.07</ele>
        <time>2020-07-13T13:43:56Z</time>
      </trkpt>
      <trkpt lat="45.97289" lon="4.43003">
        <ele>648.07</ele>
        <time>2020-07-13T13:44:24Z</time>
      </trkpt>
      <trkpt lat="45.97292" lon="4.43001">
        <ele>649.51</ele>
        <time>2020-07-13T13:44:49Z</time>
      </trkpt>
      <trkpt lat="45.97289" lon="4.43008">
        <ele>649.03</ele>
        <time>2020-07-13T13:45:16Z</time>
      </trkpt>
      <trkpt lat="45.97295" lon="4.42992">
        <ele>648.07</ele>
        <time>2020-07-13T13:45:26Z</time>
      </trkpt>
      <trkpt lat="45.97296" lon="4.42977">
        <ele>647.59</ele>
        <time>2020-07-13T13:45:39Z</time>
      </trkpt>
      <trkpt lat="45.97301" lon="4.4296">
        <ele>646.14</ele>
        <time>2020-07-13T13:45:54Z</time>
      </trkpt>
      <trkpt lat="45.97307" lon="4.42943">
        <ele>645.18</ele>
        <time>2020-07-13T13:46:08Z</time>
      </trkpt>
      <trkpt lat="45.97308" lon="4.42935">
        <ele>644.22</ele>
        <time>2020-07-13T13:46:15Z</time>
      </trkpt>
      <trkpt lat="45.97308" lon="4.42931">
        <ele>643.74</ele>
        <time>2020-07-13T13:46:17Z</time>
      </trkpt>
      <trkpt lat="45.97311" lon="4.42912">
        <ele>642.3</ele>
        <time>2020-07-13T13:46:32Z</time>
      </trkpt>
      <trkpt lat="45.97318" lon="4.42896">
        <ele>641.82</ele>
        <time>2020-07-13T13:46:46Z</time>
      </trkpt>
      <trkpt lat="45.97326" lon="4.42877">
        <ele>640.38</ele>
        <time>2020-07-13T13:47:01Z</time>
      </trkpt>
      <trkpt lat="45.97338" lon="4.42861">
        <ele>639.41</ele>
        <time>2020-07-13T13:47:17Z</time>
      </trkpt>
      <trkpt lat="45.97347" lon="4.42853">
        <ele>637.49</ele>
        <time>2020-07-13T13:47:28Z</time>
      </trkpt>
      <trkpt lat="45.97361" lon="4.42844">
        <ele>636.05</ele>
        <time>2020-07-13T13:47:43Z</time>
      </trkpt>
      <trkpt lat="45.97371" lon="4.42837">
        <ele>634.13</ele>
        <time>2020-07-13T13:47:55Z</time>
      </trkpt>
      <trkpt lat="45.97379" lon="4.42833">
        <ele>634.13</ele>
        <time>2020-07-13T13:48:04Z</time>
      </trkpt>
      <trkpt lat="45.97393" lon="4.42829">
        <ele>632.68</ele>
        <time>2020-07-13T13:48:18Z</time>
      </trkpt>
      <trkpt lat="45.97394" lon="4.42829">
        <ele>632.68</ele>
        <time>2020-07-13T13:48:20Z</time>
      </trkpt>
      <trkpt lat="45.97406" lon="4.42827">
        <ele>631.24</ele>
        <time>2020-07-13T13:48:35Z</time>
      </trkpt>
      <trkpt lat="45.97411" lon="4.42826">
        <ele>631.24</ele>
        <time>2020-07-13T13:48:40Z</time>
      </trkpt>
      <trkpt lat="45.97421" lon="4.42822">
        <ele>630.28</ele>
        <time>2020-07-13T13:48:51Z</time>
      </trkpt>
      <trkpt lat="45.97429" lon="4.42815">
        <ele>629.8</ele>
        <time>2020-07-13T13:48:59Z</time>
      </trkpt>
      <trkpt lat="45.97445" lon="4.42801">
        <ele>629.8</ele>
        <time>2020-07-13T13:49:15Z</time>
      </trkpt>
      <trkpt lat="45.97458" lon="4.42785">
        <ele>627.88</ele>
        <time>2020-07-13T13:49:32Z</time>
      </trkpt>
      <trkpt lat="45.9746" lon="4.42781">
        <ele>627.4</ele>
        <time>2020-07-13T13:49:35Z</time>
      </trkpt>
      <trkpt lat="45.97471" lon="4.42768">
        <ele>625.96</ele>
        <time>2020-07-13T13:49:47Z</time>
      </trkpt>
      <trkpt lat="45.97478" lon="4.42746">
        <ele>624.99</ele>
        <time>2020-07-13T13:50:03Z</time>
      </trkpt>
      <trkpt lat="45.97466" lon="4.42733">
        <ele>623.55</ele>
        <time>2020-07-13T13:50:21Z</time>
      </trkpt>
      <trkpt lat="45.97453" lon="4.42727">
        <ele>623.55</ele>
        <time>2020-07-13T13:50:40Z</time>
      </trkpt>
      <trkpt lat="45.97441" lon="4.42727">
        <ele>622.11</ele>
        <time>2020-07-13T13:50:56Z</time>
      </trkpt>
      <trkpt lat="45.97432" lon="4.42738">
        <ele>620.67</ele>
        <time>2020-07-13T13:51:14Z</time>
      </trkpt>
      <trkpt lat="45.97416" lon="4.42744">
        <ele>619.23</ele>
        <time>2020-07-13T13:51:35Z</time>
      </trkpt>
      <trkpt lat="45.97402" lon="4.42747">
        <ele>617.3</ele>
        <time>2020-07-13T13:51:52Z</time>
      </trkpt>
      <trkpt lat="45.97391" lon="4.42744">
        <ele>616.82</ele>
        <time>2020-07-13T13:52:07Z</time>
      </trkpt>
      <trkpt lat="45.97374" lon="4.42747">
        <ele>615.38</ele>
        <time>2020-07-13T13:52:26Z</time>
      </trkpt>
      <trkpt lat="45.97362" lon="4.42747">
        <ele>614.42</ele>
        <time>2020-07-13T13:52:36Z</time>
      </trkpt>
      <trkpt lat="45.97344" lon="4.42741">
        <ele>613.46</ele>
        <time>2020-07-13T13:52:54Z</time>
      </trkpt>
      <trkpt lat="45.97328" lon="4.42737">
        <ele>613.46</ele>
        <time>2020-07-13T13:53:09Z</time>
      </trkpt>
      <trkpt lat="45.97326" lon="4.42734">
        <ele>615.38</ele>
        <time>2020-07-13T13:53:13Z</time>
      </trkpt>
      <trkpt lat="45.97319" lon="4.42717">
        <ele>614.9</ele>
        <time>2020-07-13T13:53:28Z</time>
      </trkpt>
      <trkpt lat="45.9731" lon="4.42703">
        <ele>613.94</ele>
        <time>2020-07-13T13:53:41Z</time>
      </trkpt>
      <trkpt lat="45.97289" lon="4.42699">
        <ele>613.94</ele>
        <time>2020-07-13T13:53:55Z</time>
      </trkpt>
      <trkpt lat="45.97277" lon="4.42692">
        <ele>613.46</ele>
        <time>2020-07-13T13:54:05Z</time>
      </trkpt>
      <trkpt lat="45.97262" lon="4.42673">
        <ele>611.54</ele>
        <time>2020-07-13T13:54:23Z</time>
      </trkpt>
      <trkpt lat="45.97252" lon="4.42662">
        <ele>609.61</ele>
        <time>2020-07-13T13:54:45Z</time>
      </trkpt>
      <trkpt lat="45.97246" lon="4.42652">
        <ele>608.17</ele>
        <time>2020-07-13T13:55:07Z</time>
      </trkpt>
      <trkpt lat="45.97235" lon="4.42629">
        <ele>605.29</ele>
        <time>2020-07-13T13:55:27Z</time>
      </trkpt>
      <trkpt lat="45.97231" lon="4.42622">
        <ele>605.29</ele>
        <time>2020-07-13T13:55:34Z</time>
      </trkpt>
      <trkpt lat="45.97218" lon="4.42604">
        <ele>602.88</ele>
        <time>2020-07-13T13:55:54Z</time>
      </trkpt>
      <trkpt lat="45.97209" lon="4.42596">
        <ele>602.4</ele>
        <time>2020-07-13T13:56:04Z</time>
      </trkpt>
      <trkpt lat="45.97195" lon="4.42573">
        <ele>601.44</ele>
        <time>2020-07-13T13:56:24Z</time>
      </trkpt>
      <trkpt lat="45.97177" lon="4.42555">
        <ele>600</ele>
        <time>2020-07-13T13:56:42Z</time>
      </trkpt>
      <trkpt lat="45.97168" lon="4.42537">
        <ele>598.56</ele>
        <time>2020-07-13T13:56:56Z</time>
      </trkpt>
      <trkpt lat="45.97151" lon="4.42522">
        <ele>597.6</ele>
        <time>2020-07-13T13:57:14Z</time>
      </trkpt>
      <trkpt lat="45.97139" lon="4.42502">
        <ele>596.64</ele>
        <time>2020-07-13T13:57:31Z</time>
      </trkpt>
      <trkpt lat="45.97128" lon="4.42483">
        <ele>595.19</ele>
        <time>2020-07-13T13:57:45Z</time>
      </trkpt>
      <trkpt lat="45.97117" lon="4.42463">
        <ele>593.75</ele>
        <time>2020-07-13T13:58:01Z</time>
      </trkpt>
      <trkpt lat="45.97104" lon="4.42446">
        <ele>592.31</ele>
        <time>2020-07-13T13:58:17Z</time>
      </trkpt>
      <trkpt lat="45.97094" lon="4.42438">
        <ele>589.91</ele>
        <time>2020-07-13T13:58:33Z</time>
      </trkpt>
      <trkpt lat="45.97105" lon="4.42439">
        <ele>588.95</ele>
        <time>2020-07-13T13:58:46Z</time>
      </trkpt>
      <trkpt lat="45.97123" lon="4.42422">
        <ele>587.98</ele>
        <time>2020-07-13T13:59:05Z</time>
      </trkpt>
      <trkpt lat="45.97129" lon="4.4242">
        <ele>587.98</ele>
        <time>2020-07-13T13:59:12Z</time>
      </trkpt>
      <trkpt lat="45.97137" lon="4.42417">
        <ele>589.91</ele>
        <time>2020-07-13T13:59:21Z</time>
      </trkpt>
      <trkpt lat="45.97153" lon="4.42408">
        <ele>592.31</ele>
        <time>2020-07-13T13:59:40Z</time>
      </trkpt>
      <trkpt lat="45.97164" lon="4.42391">
        <ele>594.23</ele>
        <time>2020-07-13T14:00:00Z</time>
      </trkpt>
      <trkpt lat="45.97173" lon="4.42379">
        <ele>596.64</ele>
        <time>2020-07-13T14:00:20Z</time>
      </trkpt>
      <trkpt lat="45.9718" lon="4.42368">
        <ele>599.04</ele>
        <time>2020-07-13T14:00:38Z</time>
      </trkpt>
      <trkpt lat="45.97187" lon="4.42359">
        <ele>600.48</ele>
        <time>2020-07-13T14:00:54Z</time>
      </trkpt>
      <trkpt lat="45.97191" lon="4.42347">
        <ele>602.4</ele>
        <time>2020-07-13T14:01:12Z</time>
      </trkpt>
      <trkpt lat="45.97199" lon="4.42341">
        <ele>604.81</ele>
        <time>2020-07-13T14:01:30Z</time>
      </trkpt>
      <trkpt lat="45.97211" lon="4.42337">
        <ele>606.73</ele>
        <time>2020-07-13T14:01:50Z</time>
      </trkpt>
      <trkpt lat="45.97222" lon="4.42335">
        <ele>608.65</ele>
        <time>2020-07-13T14:02:11Z</time>
      </trkpt>
      <trkpt lat="45.97232" lon="4.42327">
        <ele>610.57</ele>
        <time>2020-07-13T14:02:32Z</time>
      </trkpt>
      <trkpt lat="45.97246" lon="4.42326">
        <ele>612.98</ele>
        <time>2020-07-13T14:02:55Z</time>
      </trkpt>
      <trkpt lat="45.97258" lon="4.42325">
        <ele>614.9</ele>
        <time>2020-07-13T14:03:13Z</time>
      </trkpt>
      <trkpt lat="45.97272" lon="4.42314">
        <ele>617.3</ele>
        <time>2020-07-13T14:03:38Z</time>
      </trkpt>
      <trkpt lat="45.97289" lon="4.42306">
        <ele>619.71</ele>
        <time>2020-07-13T14:04:03Z</time>
      </trkpt>
      <trkpt lat="45.97308" lon="4.42292">
        <ele>622.59</ele>
        <time>2020-07-13T14:04:30Z</time>
      </trkpt>
      <trkpt lat="45.97319" lon="4.42286">
        <ele>624.51</ele>
        <time>2020-07-13T14:04:52Z</time>
      </trkpt>
      <trkpt lat="45.97332" lon="4.42286">
        <ele>626.92</ele>
        <time>2020-07-13T14:05:15Z</time>
      </trkpt>
      <trkpt lat="45.97351" lon="4.42287">
        <ele>630.28</ele>
        <time>2020-07-13T14:05:38Z</time>
      </trkpt>
      <trkpt lat="45.97361" lon="4.42299">
        <ele>633.17</ele>
        <time>2020-07-13T14:06:00Z</time>
      </trkpt>
      <trkpt lat="45.97362" lon="4.42304">
        <ele>635.57</ele>
        <time>2020-07-13T14:06:17Z</time>
      </trkpt>
      <trkpt lat="45.97352" lon="4.42311">
        <ele>636.53</ele>
        <time>2020-07-13T14:06:35Z</time>
      </trkpt>
      <trkpt lat="45.9734" lon="4.42331">
        <ele>639.89</ele>
        <time>2020-07-13T14:06:57Z</time>
      </trkpt>
      <trkpt lat="45.97327" lon="4.42349">
        <ele>641.34</ele>
        <time>2020-07-13T14:07:18Z</time>
      </trkpt>
      <trkpt lat="45.97316" lon="4.42377">
        <ele>643.26</ele>
        <time>2020-07-13T14:07:38Z</time>
      </trkpt>
      <trkpt lat="45.97308" lon="4.42394">
        <ele>645.66</ele>
        <time>2020-07-13T14:07:55Z</time>
      </trkpt>
      <trkpt lat="45.97304" lon="4.42416">
        <ele>647.1</ele>
        <time>2020-07-13T14:08:16Z</time>
      </trkpt>
      <trkpt lat="45.97308" lon="4.42433">
        <ele>649.99</ele>
        <time>2020-07-13T14:08:34Z</time>
      </trkpt>
      <trkpt lat="45.97317" lon="4.42441">
        <ele>653.83</ele>
        <time>2020-07-13T14:08:58Z</time>
      </trkpt>
      <trkpt lat="45.9733" lon="4.4245">
        <ele>656.24</ele>
        <time>2020-07-13T14:09:21Z</time>
      </trkpt>
      <trkpt lat="45.97347" lon="4.42457">
        <ele>660.08</ele>
        <time>2020-07-13T14:09:44Z</time>
      </trkpt>
      <trkpt lat="45.97362" lon="4.42446">
        <ele>662.49</ele>
        <time>2020-07-13T14:10:02Z</time>
      </trkpt>
      <trkpt lat="45.97377" lon="4.42449">
        <ele>664.89</ele>
        <time>2020-07-13T14:10:25Z</time>
      </trkpt>
      <trkpt lat="45.9739" lon="4.42453">
        <ele>668.25</ele>
        <time>2020-07-13T14:10:47Z</time>
      </trkpt>
      <trkpt lat="45.97405" lon="4.42457">
        <ele>671.62</ele>
        <time>2020-07-13T14:11:09Z</time>
      </trkpt>
      <trkpt lat="45.97419" lon="4.4246">
        <ele>674.5</ele>
        <time>2020-07-13T14:11:31Z</time>
      </trkpt>
      <trkpt lat="45.97432" lon="4.4246">
        <ele>677.87</ele>
        <time>2020-07-13T14:11:52Z</time>
      </trkpt>
      <trkpt lat="45.97444" lon="4.42456">
        <ele>680.27</ele>
        <time>2020-07-13T14:12:13Z</time>
      </trkpt>
      <trkpt lat="45.9746" lon="4.4245">
        <ele>683.15</ele>
        <time>2020-07-13T14:12:33Z</time>
      </trkpt>
      <trkpt lat="45.97475" lon="4.42447">
        <ele>685.56</ele>
        <time>2020-07-13T14:12:54Z</time>
      </trkpt>
      <trkpt lat="45.97488" lon="4.42441">
        <ele>688.44</ele>
        <time>2020-07-13T14:13:15Z</time>
      </trkpt>
      <trkpt lat="45.97498" lon="4.42436">
        <ele>690.36</ele>
        <time>2020-07-13T14:13:27Z</time>
      </trkpt>
      <trkpt lat="45.97509" lon="4.42432">
        <ele>692.29</ele>
        <time>2020-07-13T14:13:47Z</time>
      </trkpt>
      <trkpt lat="45.97523" lon="4.4243">
        <ele>694.21</ele>
        <time>2020-07-13T14:14:08Z</time>
      </trkpt>
      <trkpt lat="45.97541" lon="4.42429">
        <ele>697.09</ele>
        <time>2020-07-13T14:14:30Z</time>
      </trkpt>
      <trkpt lat="45.97558" lon="4.42428">
        <ele>699.5</ele>
        <time>2020-07-13T14:14:53Z</time>
      </trkpt>
      <trkpt lat="45.97572" lon="4.42428">
        <ele>701.9</ele>
        <time>2020-07-13T14:15:13Z</time>
      </trkpt>
      <trkpt lat="45.97585" lon="4.42429">
        <ele>703.34</ele>
        <time>2020-07-13T14:15:32Z</time>
      </trkpt>
      <trkpt lat="45.97603" lon="4.4243">
        <ele>703.34</ele>
        <time>2020-07-13T14:15:55Z</time>
      </trkpt>
      <trkpt lat="45.97612" lon="4.4242">
        <ele>703.34</ele>
        <time>2020-07-13T14:16:11Z</time>
      </trkpt>
      <trkpt lat="45.97612" lon="4.42422">
        <ele>703.82</ele>
        <time>2020-07-13T14:16:20Z</time>
      </trkpt>
      <trkpt lat="45.97617" lon="4.42407">
        <ele>703.82</ele>
        <time>2020-07-13T14:16:42Z</time>
      </trkpt>
      <trkpt lat="45.97616" lon="4.42412">
        <ele>703.82</ele>
        <time>2020-07-13T14:17:04Z</time>
      </trkpt>
      <trkpt lat="45.97605" lon="4.42397">
        <ele>703.82</ele>
        <time>2020-07-13T14:17:27Z</time>
      </trkpt>
      <trkpt lat="45.97596" lon="4.42388">
        <ele>703.82</ele>
        <time>2020-07-13T14:17:50Z</time>
      </trkpt>
      <trkpt lat="45.976" lon="4.42408">
        <ele>704.3</ele>
        <time>2020-07-13T14:18:12Z</time>
      </trkpt>
      <trkpt lat="45.97602" lon="4.42423">
        <ele>704.3</ele>
        <time>2020-07-13T14:18:37Z</time>
      </trkpt>
      <trkpt lat="45.97612" lon="4.42417">
        <ele>703.82</ele>
        <time>2020-07-13T14:18:57Z</time>
      </trkpt>
      <trkpt lat="45.9761" lon="4.42433">
        <ele>703.82</ele>
        <time>2020-07-13T14:19:17Z</time>
      </trkpt>
      <trkpt lat="45.97611" lon="4.42426">
        <ele>703.82</ele>
        <time>2020-07-13T14:19:36Z</time>
      </trkpt>
      <trkpt lat="45.97613" lon="4.42419">
        <ele>703.82</ele>
        <time>2020-07-13T14:20:02Z</time>
      </trkpt>
      <trkpt lat="45.97618" lon="4.42415">
        <ele>702.38</ele>
        <time>2020-07-13T14:20:23Z</time>
      </trkpt>
      <trkpt lat="45.97615" lon="4.42414">
        <ele>703.82</ele>
        <time>2020-07-13T14:20:38Z</time>
      </trkpt>
      <trkpt lat="45.97623" lon="4.42416">
        <ele>702.86</ele>
        <time>2020-07-13T14:21:07Z</time>
      </trkpt>
      <trkpt lat="45.9762" lon="4.42416">
        <ele>702.86</ele>
        <time>2020-07-13T14:21:32Z</time>
      </trkpt>
      <trkpt lat="45.97618" lon="4.42416">
        <ele>702.86</ele>
        <time>2020-07-13T14:21:47Z</time>
      </trkpt>
      <trkpt lat="45.97619" lon="4.42415">
        <ele>702.38</ele>
        <time>2020-07-13T14:22:11Z</time>
      </trkpt>
      <trkpt lat="45.97619" lon="4.42417">
        <ele>703.34</ele>
        <time>2020-07-13T14:22:34Z</time>
      </trkpt>
      <trkpt lat="45.97617" lon="4.42416">
        <ele>703.34</ele>
        <time>2020-07-13T14:22:58Z</time>
      </trkpt>
      <trkpt lat="45.97617" lon="4.42418">
        <ele>703.34</ele>
        <time>2020-07-13T14:23:25Z</time>
      </trkpt>
      <trkpt lat="45.97619" lon="4.42417">
        <ele>703.34</ele>
        <time>2020-07-13T14:23:51Z</time>
      </trkpt>
      <trkpt lat="45.9762" lon="4.42414">
        <ele>703.34</ele>
        <time>2020-07-13T14:24:10Z</time>
      </trkpt>
      <trkpt lat="45.97627" lon="4.42409">
        <ele>703.34</ele>
        <time>2020-07-13T14:24:24Z</time>
      </trkpt>
      <trkpt lat="45.97629" lon="4.42405">
        <ele>701.9</ele>
        <time>2020-07-13T14:24:29Z</time>
      </trkpt>
      <trkpt lat="45.97634" lon="4.42401">
        <ele>701.9</ele>
        <time>2020-07-13T14:24:46Z</time>
      </trkpt>
      <trkpt lat="45.97637" lon="4.42407">
        <ele>701.9</ele>
        <time>2020-07-13T14:25:22Z</time>
      </trkpt>
      <trkpt lat="45.97634" lon="4.42407">
        <ele>701.42</ele>
        <time>2020-07-13T14:25:48Z</time>
      </trkpt>
      <trkpt lat="45.97634" lon="4.42408">
        <ele>701.42</ele>
        <time>2020-07-13T14:26:07Z</time>
      </trkpt>
      <trkpt lat="45.97633" lon="4.42406">
        <ele>701.42</ele>
        <time>2020-07-13T14:26:40Z</time>
      </trkpt>
      <trkpt lat="45.97628" lon="4.42409">
        <ele>701.42</ele>
        <time>2020-07-13T14:26:58Z</time>
      </trkpt>
      <trkpt lat="45.97621" lon="4.42409">
        <ele>702.38</ele>
        <time>2020-07-13T14:27:19Z</time>
      </trkpt>
      <trkpt lat="45.97619" lon="4.4241">
        <ele>703.34</ele>
        <time>2020-07-13T14:27:43Z</time>
      </trkpt>
      <trkpt lat="45.97618" lon="4.42411">
        <ele>703.34</ele>
        <time>2020-07-13T14:28:00Z</time>
      </trkpt>
      <trkpt lat="45.97616" lon="4.42412">
        <ele>703.34</ele>
        <time>2020-07-13T14:28:18Z</time>
      </trkpt>
      <trkpt lat="45.97608" lon="4.42416">
        <ele>703.34</ele>
        <time>2020-07-13T14:28:37Z</time>
      </trkpt>
      <trkpt lat="45.97605" lon="4.42424">
        <ele>702.86</ele>
        <time>2020-07-13T14:28:54Z</time>
      </trkpt>
      <trkpt lat="45.97609" lon="4.42421">
        <ele>702.86</ele>
        <time>2020-07-13T14:29:12Z</time>
      </trkpt>
      <trkpt lat="45.97611" lon="4.42419">
        <ele>703.34</ele>
        <time>2020-07-13T14:29:16Z</time>
      </trkpt>
      <trkpt lat="45.97616" lon="4.42415">
        <ele>703.34</ele>
        <time>2020-07-13T14:29:30Z</time>
      </trkpt>
      <trkpt lat="45.97616" lon="4.42415">
        <ele>701.9</ele>
        <time>2020-07-13T14:29:32Z</time>
      </trkpt>
      <trkpt lat="45.97617" lon="4.42415">
        <ele>702.86</ele>
        <time>2020-07-13T14:29:54Z</time>
      </trkpt>
      <trkpt lat="45.97612" lon="4.42417">
        <ele>701.9</ele>
        <time>2020-07-13T14:30:13Z</time>
      </trkpt>
      <trkpt lat="45.9761" lon="4.42431">
        <ele>695.65</ele>
        <time>2020-07-13T14:30:39Z</time>
      </trkpt>
      <trkpt lat="45.97611" lon="4.42431">
        <ele>700.46</ele>
        <time>2020-07-13T14:30:40Z</time>
      </trkpt>
      <trkpt lat="45.97612" lon="4.42432">
        <ele>709.59</ele>
        <time>2020-07-13T14:30:42Z</time>
      </trkpt>
      <trkpt lat="45.97612" lon="4.42432">
        <ele>703.34</ele>
        <time>2020-07-13T14:30:43Z</time>
      </trkpt>
      <trkpt lat="45.97613" lon="4.42431">
        <ele>702.38</ele>
        <time>2020-07-13T14:30:45Z</time>
      </trkpt>
      <trkpt lat="45.97611" lon="4.42425">
        <ele>702.38</ele>
        <time>2020-07-13T14:31:04Z</time>
      </trkpt>
      <trkpt lat="45.97613" lon="4.42422">
        <ele>702.38</ele>
        <time>2020-07-13T14:31:20Z</time>
      </trkpt>
      <trkpt lat="45.97617" lon="4.42427">
        <ele>701.9</ele>
        <time>2020-07-13T14:31:36Z</time>
      </trkpt>
      <trkpt lat="45.97615" lon="4.42414">
        <ele>700.94</ele>
        <time>2020-07-13T14:32:06Z</time>
      </trkpt>
      <trkpt lat="45.97614" lon="4.42414">
        <ele>701.9</ele>
        <time>2020-07-13T14:32:29Z</time>
      </trkpt>
      <trkpt lat="45.97621" lon="4.42403">
        <ele>700.94</ele>
        <time>2020-07-13T14:32:44Z</time>
      </trkpt>
      <trkpt lat="45.97638" lon="4.42408">
        <ele>699.02</ele>
        <time>2020-07-13T14:33:01Z</time>
      </trkpt>
      <trkpt lat="45.97647" lon="4.42407">
        <ele>698.53</ele>
        <time>2020-07-13T14:33:14Z</time>
      </trkpt>
      <trkpt lat="45.97662" lon="4.4239">
        <ele>697.09</ele>
        <time>2020-07-13T14:33:29Z</time>
      </trkpt>
      <trkpt lat="45.97677" lon="4.42372">
        <ele>696.61</ele>
        <time>2020-07-13T14:33:46Z</time>
      </trkpt>
      <trkpt lat="45.97679" lon="4.42371">
        <ele>696.61</ele>
        <time>2020-07-13T14:33:47Z</time>
      </trkpt>
      <trkpt lat="45.97682" lon="4.42367">
        <ele>696.61</ele>
        <time>2020-07-13T14:33:50Z</time>
      </trkpt>
      <trkpt lat="45.97688" lon="4.42351">
        <ele>695.65</ele>
        <time>2020-07-13T14:34:07Z</time>
      </trkpt>
      <trkpt lat="45.97686" lon="4.42336">
        <ele>695.17</ele>
        <time>2020-07-13T14:34:24Z</time>
      </trkpt>
      <trkpt lat="45.97689" lon="4.42337">
        <ele>695.17</ele>
        <time>2020-07-13T14:34:51Z</time>
      </trkpt>
      <trkpt lat="45.97692" lon="4.42339">
        <ele>695.17</ele>
        <time>2020-07-13T14:35:09Z</time>
      </trkpt>
      <trkpt lat="45.97696" lon="4.42342">
        <ele>696.13</ele>
        <time>2020-07-13T14:35:16Z</time>
      </trkpt>
      <trkpt lat="45.97703" lon="4.4233">
        <ele>697.09</ele>
        <time>2020-07-13T14:35:33Z</time>
      </trkpt>
      <trkpt lat="45.9771" lon="4.42311">
        <ele>699.02</ele>
        <time>2020-07-13T14:35:50Z</time>
      </trkpt>
      <trkpt lat="45.9771" lon="4.4231">
        <ele>699.5</ele>
        <time>2020-07-13T14:35:51Z</time>
      </trkpt>
      <trkpt lat="45.9772" lon="4.42294">
        <ele>699.98</ele>
        <time>2020-07-13T14:36:06Z</time>
      </trkpt>
      <trkpt lat="45.9772" lon="4.42291">
        <ele>700.46</ele>
        <time>2020-07-13T14:36:09Z</time>
      </trkpt>
      <trkpt lat="45.9772" lon="4.42286">
        <ele>700.46</ele>
        <time>2020-07-13T14:36:13Z</time>
      </trkpt>
      <trkpt lat="45.97719" lon="4.42282">
        <ele>701.42</ele>
        <time>2020-07-13T14:36:16Z</time>
      </trkpt>
      <trkpt lat="45.97719" lon="4.4228">
        <ele>701.42</ele>
        <time>2020-07-13T14:36:17Z</time>
      </trkpt>
      <trkpt lat="45.97718" lon="4.42268">
        <ele>702.38</ele>
        <time>2020-07-13T14:36:27Z</time>
      </trkpt>
      <trkpt lat="45.97712" lon="4.42254">
        <ele>700.94</ele>
        <time>2020-07-13T14:36:39Z</time>
      </trkpt>
      <trkpt lat="45.9771" lon="4.42249">
        <ele>700.94</ele>
        <time>2020-07-13T14:36:43Z</time>
      </trkpt>
      <trkpt lat="45.97708" lon="4.42245">
        <ele>702.38</ele>
        <time>2020-07-13T14:36:47Z</time>
      </trkpt>
      <trkpt lat="45.97707" lon="4.42238">
        <ele>702.38</ele>
        <time>2020-07-13T14:36:53Z</time>
      </trkpt>
      <trkpt lat="45.97696" lon="4.42213">
        <ele>702.86</ele>
        <time>2020-07-13T14:37:14Z</time>
      </trkpt>
      <trkpt lat="45.97689" lon="4.42192">
        <ele>704.3</ele>
        <time>2020-07-13T14:37:31Z</time>
      </trkpt>
      <trkpt lat="45.97682" lon="4.4217">
        <ele>705.26</ele>
        <time>2020-07-13T14:37:49Z</time>
      </trkpt>
      <trkpt lat="45.97678" lon="4.42155">
        <ele>704.3</ele>
        <time>2020-07-13T14:38:05Z</time>
      </trkpt>
      <trkpt lat="45.97677" lon="4.4215">
        <ele>705.26</ele>
        <time>2020-07-13T14:38:09Z</time>
      </trkpt>
      <trkpt lat="45.97676" lon="4.42134">
        <ele>706.71</ele>
        <time>2020-07-13T14:38:28Z</time>
      </trkpt>
      <trkpt lat="45.97674" lon="4.42114">
        <ele>707.19</ele>
        <time>2020-07-13T14:38:43Z</time>
      </trkpt>
      <trkpt lat="45.97674" lon="4.42111">
        <ele>707.67</ele>
        <time>2020-07-13T14:38:45Z</time>
      </trkpt>
      <trkpt lat="45.97675" lon="4.42108">
        <ele>707.67</ele>
        <time>2020-07-13T14:38:47Z</time>
      </trkpt>
      <trkpt lat="45.97675" lon="4.42087">
        <ele>708.63</ele>
        <time>2020-07-13T14:39:02Z</time>
      </trkpt>
      <trkpt lat="45.97675" lon="4.42086">
        <ele>708.63</ele>
        <time>2020-07-13T14:39:03Z</time>
      </trkpt>
      <trkpt lat="45.97675" lon="4.42073">
        <ele>709.59</ele>
        <time>2020-07-13T14:39:12Z</time>
      </trkpt>
      <trkpt lat="45.97675" lon="4.4207">
        <ele>710.07</ele>
        <time>2020-07-13T14:39:14Z</time>
      </trkpt>
      <trkpt lat="45.97674" lon="4.42059">
        <ele>710.07</ele>
        <time>2020-07-13T14:39:22Z</time>
      </trkpt>
      <trkpt lat="45.97673" lon="4.42053">
        <ele>710.07</ele>
        <time>2020-07-13T14:39:26Z</time>
      </trkpt>
      <trkpt lat="45.97673" lon="4.42048">
        <ele>710.07</ele>
        <time>2020-07-13T14:39:30Z</time>
      </trkpt>
      <trkpt lat="45.97673" lon="4.42045">
        <ele>711.03</ele>
        <time>2020-07-13T14:39:32Z</time>
      </trkpt>
      <trkpt lat="45.97673" lon="4.42024">
        <ele>711.51</ele>
        <time>2020-07-13T14:39:47Z</time>
      </trkpt>
      <trkpt lat="45.97674" lon="4.42003">
        <ele>712.47</ele>
        <time>2020-07-13T14:40:02Z</time>
      </trkpt>
      <trkpt lat="45.97676" lon="4.41983">
        <ele>713.44</ele>
        <time>2020-07-13T14:40:16Z</time>
      </trkpt>
      <trkpt lat="45.97676" lon="4.41982">
        <ele>713.44</ele>
        <time>2020-07-13T14:40:17Z</time>
      </trkpt>
      <trkpt lat="45.97679" lon="4.4196">
        <ele>713.92</ele>
        <time>2020-07-13T14:40:32Z</time>
      </trkpt>
      <trkpt lat="45.9768" lon="4.41946">
        <ele>714.88</ele>
        <time>2020-07-13T14:40:42Z</time>
      </trkpt>
      <trkpt lat="45.97681" lon="4.41943">
        <ele>714.88</ele>
        <time>2020-07-13T14:40:44Z</time>
      </trkpt>
      <trkpt lat="45.97683" lon="4.41932">
        <ele>715.36</ele>
        <time>2020-07-13T14:40:52Z</time>
      </trkpt>
      <trkpt lat="45.97683" lon="4.41925">
        <ele>715.84</ele>
        <time>2020-07-13T14:40:57Z</time>
      </trkpt>
      <trkpt lat="45.97684" lon="4.41912">
        <ele>716.8</ele>
        <time>2020-07-13T14:41:07Z</time>
      </trkpt>
      <trkpt lat="45.97689" lon="4.41892">
        <ele>717.28</ele>
        <time>2020-07-13T14:41:21Z</time>
      </trkpt>
      <trkpt lat="45.97691" lon="4.41878">
        <ele>718.24</ele>
        <time>2020-07-13T14:41:40Z</time>
      </trkpt>
      <trkpt lat="45.97692" lon="4.41874">
        <ele>718.24</ele>
        <time>2020-07-13T14:41:43Z</time>
      </trkpt>
      <trkpt lat="45.97694" lon="4.41861">
        <ele>718.72</ele>
        <time>2020-07-13T14:41:53Z</time>
      </trkpt>
      <trkpt lat="45.97695" lon="4.41853">
        <ele>718.72</ele>
        <time>2020-07-13T14:41:59Z</time>
      </trkpt>
      <trkpt lat="45.97699" lon="4.41843">
        <ele>719.2</ele>
        <time>2020-07-13T14:42:08Z</time>
      </trkpt>
      <trkpt lat="45.97707" lon="4.41822">
        <ele>720.16</ele>
        <time>2020-07-13T14:42:23Z</time>
      </trkpt>
      <trkpt lat="45.97708" lon="4.41817">
        <ele>720.65</ele>
        <time>2020-07-13T14:42:27Z</time>
      </trkpt>
      <trkpt lat="45.97715" lon="4.41797">
        <ele>721.61</ele>
        <time>2020-07-13T14:42:43Z</time>
      </trkpt>
      <trkpt lat="45.97724" lon="4.41775">
        <ele>722.09</ele>
        <time>2020-07-13T14:43:00Z</time>
      </trkpt>
      <trkpt lat="45.97727" lon="4.41767">
        <ele>722.57</ele>
        <time>2020-07-13T14:43:07Z</time>
      </trkpt>
      <trkpt lat="45.97729" lon="4.41761">
        <ele>723.05</ele>
        <time>2020-07-13T14:43:11Z</time>
      </trkpt>
      <trkpt lat="45.97731" lon="4.41753">
        <ele>723.05</ele>
        <time>2020-07-13T14:43:16Z</time>
      </trkpt>
      <trkpt lat="45.97734" lon="4.41738">
        <ele>724.01</ele>
        <time>2020-07-13T14:43:27Z</time>
      </trkpt>
      <trkpt lat="45.97734" lon="4.41735">
        <ele>724.01</ele>
        <time>2020-07-13T14:43:29Z</time>
      </trkpt>
      <trkpt lat="45.97736" lon="4.41706">
        <ele>725.45</ele>
        <time>2020-07-13T14:43:48Z</time>
      </trkpt>
      <trkpt lat="45.97737" lon="4.41689">
        <ele>725.45</ele>
        <time>2020-07-13T14:44:00Z</time>
      </trkpt>
      <trkpt lat="45.9773" lon="4.41667">
        <ele>727.37</ele>
        <time>2020-07-13T14:44:15Z</time>
      </trkpt>
      <trkpt lat="45.97724" lon="4.41662">
        <ele>727.37</ele>
        <time>2020-07-13T14:44:21Z</time>
      </trkpt>
      <trkpt lat="45.97706" lon="4.41649">
        <ele>728.34</ele>
        <time>2020-07-13T14:44:40Z</time>
      </trkpt>
      <trkpt lat="45.97699" lon="4.41646">
        <ele>728.82</ele>
        <time>2020-07-13T14:44:49Z</time>
      </trkpt>
      <trkpt lat="45.97689" lon="4.41645">
        <ele>728.82</ele>
        <time>2020-07-13T14:45:08Z</time>
      </trkpt>
      <trkpt lat="45.97672" lon="4.41636">
        <ele>729.3</ele>
        <time>2020-07-13T14:45:27Z</time>
      </trkpt>
      <trkpt lat="45.9767" lon="4.41633">
        <ele>729.3</ele>
        <time>2020-07-13T14:45:31Z</time>
      </trkpt>
      <trkpt lat="45.97658" lon="4.41618">
        <ele>729.78</ele>
        <time>2020-07-13T14:45:46Z</time>
      </trkpt>
      <trkpt lat="45.97651" lon="4.41601">
        <ele>730.26</ele>
        <time>2020-07-13T14:46:02Z</time>
      </trkpt>
      <trkpt lat="45.9764" lon="4.41585">
        <ele>730.74</ele>
        <time>2020-07-13T14:46:17Z</time>
      </trkpt>
      <trkpt lat="45.97635" lon="4.41578">
        <ele>730.26</ele>
        <time>2020-07-13T14:46:25Z</time>
      </trkpt>
      <trkpt lat="45.97633" lon="4.41575">
        <ele>730.26</ele>
        <time>2020-07-13T14:46:28Z</time>
      </trkpt>
      <trkpt lat="45.9763" lon="4.41572">
        <ele>730.26</ele>
        <time>2020-07-13T14:46:31Z</time>
      </trkpt>
      <trkpt lat="45.97615" lon="4.41555">
        <ele>731.22</ele>
        <time>2020-07-13T14:46:49Z</time>
      </trkpt>
      <trkpt lat="45.976" lon="4.4154">
        <ele>732.66</ele>
        <time>2020-07-13T14:47:04Z</time>
      </trkpt>
      <trkpt lat="45.97592" lon="4.41532">
        <ele>733.14</ele>
        <time>2020-07-13T14:47:13Z</time>
      </trkpt>
      <trkpt lat="45.97573" lon="4.41526">
        <ele>734.1</ele>
        <time>2020-07-13T14:47:31Z</time>
      </trkpt>
      <trkpt lat="45.97547" lon="4.41521">
        <ele>735.55</ele>
        <time>2020-07-13T14:47:53Z</time>
      </trkpt>
      <trkpt lat="45.97544" lon="4.4152">
        <ele>734.1</ele>
        <time>2020-07-13T14:47:56Z</time>
      </trkpt>
      <trkpt lat="45.97529" lon="4.41515">
        <ele>733.14</ele>
        <time>2020-07-13T14:48:12Z</time>
      </trkpt>
      <trkpt lat="45.97511" lon="4.41509">
        <ele>733.62</ele>
        <time>2020-07-13T14:48:31Z</time>
      </trkpt>
      <trkpt lat="45.97493" lon="4.41502">
        <ele>733.62</ele>
        <time>2020-07-13T14:48:50Z</time>
      </trkpt>
      <trkpt lat="45.97476" lon="4.41498">
        <ele>733.62</ele>
        <time>2020-07-13T14:49:06Z</time>
      </trkpt>
      <trkpt lat="45.9745" lon="4.41489">
        <ele>733.62</ele>
        <time>2020-07-13T14:49:27Z</time>
      </trkpt>
      <trkpt lat="45.97429" lon="4.41483">
        <ele>733.62</ele>
        <time>2020-07-13T14:49:48Z</time>
      </trkpt>
      <trkpt lat="45.97407" lon="4.41479">
        <ele>733.14</ele>
        <time>2020-07-13T14:50:10Z</time>
      </trkpt>
      <trkpt lat="45.9739" lon="4.41472">
        <ele>732.18</ele>
        <time>2020-07-13T14:50:29Z</time>
      </trkpt>
      <trkpt lat="45.97377" lon="4.41461">
        <ele>731.7</ele>
        <time>2020-07-13T14:50:49Z</time>
      </trkpt>
      <trkpt lat="45.97367" lon="4.41451">
        <ele>731.7</ele>
        <time>2020-07-13T14:50:59Z</time>
      </trkpt>
      <trkpt lat="45.9735" lon="4.41433">
        <ele>731.7</ele>
        <time>2020-07-13T14:51:18Z</time>
      </trkpt>
      <trkpt lat="45.97332" lon="4.41419">
        <ele>731.7</ele>
        <time>2020-07-13T14:51:36Z</time>
      </trkpt>
      <trkpt lat="45.97314" lon="4.41404">
        <ele>731.7</ele>
        <time>2020-07-13T14:51:54Z</time>
      </trkpt>
      <trkpt lat="45.97302" lon="4.41393">
        <ele>731.22</ele>
        <time>2020-07-13T14:52:10Z</time>
      </trkpt>
      <trkpt lat="45.97284" lon="4.4138">
        <ele>731.22</ele>
        <time>2020-07-13T14:52:27Z</time>
      </trkpt>
      <trkpt lat="45.97278" lon="4.41374">
        <ele>731.22</ele>
        <time>2020-07-13T14:52:45Z</time>
      </trkpt>
      <trkpt lat="45.97277" lon="4.41367">
        <ele>731.22</ele>
        <time>2020-07-13T14:53:14Z</time>
      </trkpt>
      <trkpt lat="45.97265" lon="4.41363">
        <ele>731.22</ele>
        <time>2020-07-13T14:53:35Z</time>
      </trkpt>
      <trkpt lat="45.97247" lon="4.41357">
        <ele>731.22</ele>
        <time>2020-07-13T14:53:52Z</time>
      </trkpt>
      <trkpt lat="45.9723" lon="4.41343">
        <ele>731.7</ele>
        <time>2020-07-13T14:54:10Z</time>
      </trkpt>
      <trkpt lat="45.9722" lon="4.41325">
        <ele>730.74</ele>
        <time>2020-07-13T14:54:27Z</time>
      </trkpt>
      <trkpt lat="45.97205" lon="4.413">
        <ele>729.78</ele>
        <time>2020-07-13T14:54:47Z</time>
      </trkpt>
      <trkpt lat="45.97194" lon="4.41266">
        <ele>728.82</ele>
        <time>2020-07-13T14:55:07Z</time>
      </trkpt>
      <trkpt lat="45.9718" lon="4.41243">
        <ele>727.86</ele>
        <time>2020-07-13T14:55:25Z</time>
      </trkpt>
      <trkpt lat="45.97165" lon="4.41227">
        <ele>726.89</ele>
        <time>2020-07-13T14:55:44Z</time>
      </trkpt>
      <trkpt lat="45.97159" lon="4.41219">
        <ele>726.89</ele>
        <time>2020-07-13T14:55:50Z</time>
      </trkpt>
      <trkpt lat="45.97144" lon="4.41196">
        <ele>725.93</ele>
        <time>2020-07-13T14:56:09Z</time>
      </trkpt>
      <trkpt lat="45.97139" lon="4.41181">
        <ele>724.49</ele>
        <time>2020-07-13T14:56:28Z</time>
      </trkpt>
      <trkpt lat="45.97135" lon="4.41174">
        <ele>724.49</ele>
        <time>2020-07-13T14:56:47Z</time>
      </trkpt>
      <trkpt lat="45.97137" lon="4.4116">
        <ele>724.49</ele>
        <time>2020-07-13T14:57:09Z</time>
      </trkpt>
      <trkpt lat="45.97155" lon="4.41148">
        <ele>723.53</ele>
        <time>2020-07-13T14:57:30Z</time>
      </trkpt>
      <trkpt lat="45.97175" lon="4.41136">
        <ele>723.53</ele>
        <time>2020-07-13T14:57:50Z</time>
      </trkpt>
      <trkpt lat="45.972" lon="4.41124">
        <ele>725.45</ele>
        <time>2020-07-13T14:58:13Z</time>
      </trkpt>
      <trkpt lat="45.97215" lon="4.4111">
        <ele>726.89</ele>
        <time>2020-07-13T14:58:34Z</time>
      </trkpt>
      <trkpt lat="45.97236" lon="4.41094">
        <ele>728.82</ele>
        <time>2020-07-13T14:58:57Z</time>
      </trkpt>
      <trkpt lat="45.97258" lon="4.41071">
        <ele>729.78</ele>
        <time>2020-07-13T14:59:19Z</time>
      </trkpt>
      <trkpt lat="45.97274" lon="4.41062">
        <ele>731.7</ele>
        <time>2020-07-13T14:59:40Z</time>
      </trkpt>
      <trkpt lat="45.97295" lon="4.41044">
        <ele>733.14</ele>
        <time>2020-07-13T15:00:04Z</time>
      </trkpt>
      <trkpt lat="45.97314" lon="4.41019">
        <ele>734.58</ele>
        <time>2020-07-13T15:00:28Z</time>
      </trkpt>
      <trkpt lat="45.97333" lon="4.40993">
        <ele>736.03</ele>
        <time>2020-07-13T15:00:50Z</time>
      </trkpt>
      <trkpt lat="45.97351" lon="4.40978">
        <ele>736.99</ele>
        <time>2020-07-13T15:01:11Z</time>
      </trkpt>
      <trkpt lat="45.9737" lon="4.40961">
        <ele>737.95</ele>
        <time>2020-07-13T15:01:33Z</time>
      </trkpt>
      <trkpt lat="45.97388" lon="4.40949">
        <ele>740.35</ele>
        <time>2020-07-13T15:01:57Z</time>
      </trkpt>
      <trkpt lat="45.97398" lon="4.40949">
        <ele>743.72</ele>
        <time>2020-07-13T15:02:13Z</time>
      </trkpt>
      <trkpt lat="45.97415" lon="4.40943">
        <ele>745.64</ele>
        <time>2020-07-13T15:02:36Z</time>
      </trkpt>
      <trkpt lat="45.97431" lon="4.40941">
        <ele>749</ele>
        <time>2020-07-13T15:02:58Z</time>
      </trkpt>
      <trkpt lat="45.97449" lon="4.40939">
        <ele>751.41</ele>
        <time>2020-07-13T15:03:18Z</time>
      </trkpt>
      <trkpt lat="45.97464" lon="4.40936">
        <ele>752.85</ele>
        <time>2020-07-13T15:03:41Z</time>
      </trkpt>
      <trkpt lat="45.97485" lon="4.40937">
        <ele>754.29</ele>
        <time>2020-07-13T15:04:03Z</time>
      </trkpt>
      <trkpt lat="45.97497" lon="4.40943">
        <ele>757.66</ele>
        <time>2020-07-13T15:04:22Z</time>
      </trkpt>
      <trkpt lat="45.97511" lon="4.40949">
        <ele>759.58</ele>
        <time>2020-07-13T15:04:43Z</time>
      </trkpt>
      <trkpt lat="45.97521" lon="4.40952">
        <ele>763.42</ele>
        <time>2020-07-13T15:05:00Z</time>
      </trkpt>
      <trkpt lat="45.97522" lon="4.40952">
        <ele>763.42</ele>
        <time>2020-07-13T15:05:01Z</time>
      </trkpt>
      <trkpt lat="45.97534" lon="4.40957">
        <ele>764.87</ele>
        <time>2020-07-13T15:05:20Z</time>
      </trkpt>
      <trkpt lat="45.97549" lon="4.40964">
        <ele>767.75</ele>
        <time>2020-07-13T15:05:37Z</time>
      </trkpt>
      <trkpt lat="45.97561" lon="4.40956">
        <ele>768.71</ele>
        <time>2020-07-13T15:05:53Z</time>
      </trkpt>
      <trkpt lat="45.9757" lon="4.40937">
        <ele>767.27</ele>
        <time>2020-07-13T15:06:09Z</time>
      </trkpt>
      <trkpt lat="45.97578" lon="4.40917">
        <ele>767.27</ele>
        <time>2020-07-13T15:06:28Z</time>
      </trkpt>
      <trkpt lat="45.97586" lon="4.409">
        <ele>766.79</ele>
        <time>2020-07-13T15:06:43Z</time>
      </trkpt>
      <trkpt lat="45.97591" lon="4.40876">
        <ele>766.79</ele>
        <time>2020-07-13T15:07:02Z</time>
      </trkpt>
      <trkpt lat="45.97596" lon="4.40866">
        <ele>766.79</ele>
        <time>2020-07-13T15:07:18Z</time>
      </trkpt>
      <trkpt lat="45.97596" lon="4.40868">
        <ele>767.75</ele>
        <time>2020-07-13T15:07:42Z</time>
      </trkpt>
      <trkpt lat="45.97593" lon="4.40865">
        <ele>767.75</ele>
        <time>2020-07-13T15:08:07Z</time>
      </trkpt>
      <trkpt lat="45.9759" lon="4.40862">
        <ele>767.75</ele>
        <time>2020-07-13T15:08:24Z</time>
      </trkpt>
      <trkpt lat="45.97589" lon="4.40855">
        <ele>766.31</ele>
        <time>2020-07-13T15:08:34Z</time>
      </trkpt>
      <trkpt lat="45.97589" lon="4.40848">
        <ele>766.31</ele>
        <time>2020-07-13T15:08:39Z</time>
      </trkpt>
      <trkpt lat="45.97584" lon="4.40837">
        <ele>766.31</ele>
        <time>2020-07-13T15:08:52Z</time>
      </trkpt>
      <trkpt lat="45.97583" lon="4.40829">
        <ele>766.31</ele>
        <time>2020-07-13T15:08:58Z</time>
      </trkpt>
      <trkpt lat="45.97579" lon="4.4081">
        <ele>766.31</ele>
        <time>2020-07-13T15:09:13Z</time>
      </trkpt>
      <trkpt lat="45.97575" lon="4.40777">
        <ele>766.31</ele>
        <time>2020-07-13T15:09:33Z</time>
      </trkpt>
      <trkpt lat="45.9757" lon="4.40743">
        <ele>765.83</ele>
        <time>2020-07-13T15:09:54Z</time>
      </trkpt>
      <trkpt lat="45.97569" lon="4.40711">
        <ele>765.35</ele>
        <time>2020-07-13T15:10:14Z</time>
      </trkpt>
      <trkpt lat="45.97571" lon="4.40678">
        <ele>764.39</ele>
        <time>2020-07-13T15:10:36Z</time>
      </trkpt>
      <trkpt lat="45.97576" lon="4.40649">
        <ele>762.94</ele>
        <time>2020-07-13T15:10:54Z</time>
      </trkpt>
      <trkpt lat="45.97581" lon="4.40622">
        <ele>761.5</ele>
        <time>2020-07-13T15:11:13Z</time>
      </trkpt>
      <trkpt lat="45.97595" lon="4.40602">
        <ele>760.54</ele>
        <time>2020-07-13T15:11:34Z</time>
      </trkpt>
      <trkpt lat="45.9761" lon="4.40572">
        <ele>757.18</ele>
        <time>2020-07-13T15:11:55Z</time>
      </trkpt>
      <trkpt lat="45.97623" lon="4.40553">
        <ele>755.73</ele>
        <time>2020-07-13T15:12:12Z</time>
      </trkpt>
      <trkpt lat="45.97636" lon="4.40528">
        <ele>754.77</ele>
        <time>2020-07-13T15:12:30Z</time>
      </trkpt>
      <trkpt lat="45.97649" lon="4.40508">
        <ele>754.29</ele>
        <time>2020-07-13T15:12:48Z</time>
      </trkpt>
      <trkpt lat="45.97662" lon="4.40484">
        <ele>752.37</ele>
        <time>2020-07-13T15:13:07Z</time>
      </trkpt>
      <trkpt lat="45.97674" lon="4.4046">
        <ele>750.93</ele>
        <time>2020-07-13T15:13:25Z</time>
      </trkpt>
      <trkpt lat="45.97687" lon="4.40437">
        <ele>750.45</ele>
        <time>2020-07-13T15:13:43Z</time>
      </trkpt>
      <trkpt lat="45.977" lon="4.40412">
        <ele>749</ele>
        <time>2020-07-13T15:14:03Z</time>
      </trkpt>
      <trkpt lat="45.97715" lon="4.40388">
        <ele>749</ele>
        <time>2020-07-13T15:14:22Z</time>
      </trkpt>
      <trkpt lat="45.9773" lon="4.40365">
        <ele>748.04</ele>
        <time>2020-07-13T15:14:42Z</time>
      </trkpt>
      <trkpt lat="45.97743" lon="4.40339">
        <ele>747.56</ele>
        <time>2020-07-13T15:15:02Z</time>
      </trkpt>
      <trkpt lat="45.97762" lon="4.40309">
        <ele>746.12</ele>
        <time>2020-07-13T15:15:25Z</time>
      </trkpt>
      <trkpt lat="45.97773" lon="4.40283">
        <ele>745.16</ele>
        <time>2020-07-13T15:15:45Z</time>
      </trkpt>
      <trkpt lat="45.97786" lon="4.40259">
        <ele>744.2</ele>
        <time>2020-07-13T15:16:04Z</time>
      </trkpt>
      <trkpt lat="45.978" lon="4.40239">
        <ele>743.72</ele>
        <time>2020-07-13T15:16:22Z</time>
      </trkpt>
      <trkpt lat="45.97813" lon="4.40221">
        <ele>742.76</ele>
        <time>2020-07-13T15:16:38Z</time>
      </trkpt>
      <trkpt lat="45.97824" lon="4.40189">
        <ele>741.79</ele>
        <time>2020-07-13T15:16:58Z</time>
      </trkpt>
      <trkpt lat="45.97837" lon="4.40165">
        <ele>741.31</ele>
        <time>2020-07-13T15:17:15Z</time>
      </trkpt>
      <trkpt lat="45.97849" lon="4.40137">
        <ele>740.83</ele>
        <time>2020-07-13T15:17:35Z</time>
      </trkpt>
      <trkpt lat="45.97862" lon="4.40106">
        <ele>739.39</ele>
        <time>2020-07-13T15:17:57Z</time>
      </trkpt>
      <trkpt lat="45.97867" lon="4.40085">
        <ele>738.43</ele>
        <time>2020-07-13T15:18:14Z</time>
      </trkpt>
      <trkpt lat="45.97875" lon="4.40056">
        <ele>736.51</ele>
        <time>2020-07-13T15:18:33Z</time>
      </trkpt>
      <trkpt lat="45.97889" lon="4.40062">
        <ele>736.03</ele>
        <time>2020-07-13T15:18:49Z</time>
      </trkpt>
      <trkpt lat="45.97907" lon="4.40085">
        <ele>736.03</ele>
        <time>2020-07-13T15:19:10Z</time>
      </trkpt>
      <trkpt lat="45.97915" lon="4.40095">
        <ele>735.55</ele>
        <time>2020-07-13T15:19:18Z</time>
      </trkpt>
      <trkpt lat="45.97924" lon="4.40113">
        <ele>733.14</ele>
        <time>2020-07-13T15:19:33Z</time>
      </trkpt>
      <trkpt lat="45.97932" lon="4.40129">
        <ele>730.74</ele>
        <time>2020-07-13T15:19:50Z</time>
      </trkpt>
      <trkpt lat="45.97941" lon="4.40149">
        <ele>728.82</ele>
        <time>2020-07-13T15:20:08Z</time>
      </trkpt>
      <trkpt lat="45.97954" lon="4.40164">
        <ele>727.37</ele>
        <time>2020-07-13T15:20:28Z</time>
      </trkpt>
      <trkpt lat="45.97968" lon="4.40173">
        <ele>726.89</ele>
        <time>2020-07-13T15:20:44Z</time>
      </trkpt>
      <trkpt lat="45.97988" lon="4.4017">
        <ele>727.86</ele>
        <time>2020-07-13T15:21:06Z</time>
      </trkpt>
      <trkpt lat="45.98003" lon="4.40153">
        <ele>728.82</ele>
        <time>2020-07-13T15:21:24Z</time>
      </trkpt>
      <trkpt lat="45.98018" lon="4.40136">
        <ele>731.7</ele>
        <time>2020-07-13T15:21:44Z</time>
      </trkpt>
      <trkpt lat="45.98031" lon="4.40118">
        <ele>733.62</ele>
        <time>2020-07-13T15:22:05Z</time>
      </trkpt>
      <trkpt lat="45.98041" lon="4.40105">
        <ele>735.55</ele>
        <time>2020-07-13T15:22:23Z</time>
      </trkpt>
      <trkpt lat="45.9805" lon="4.40096">
        <ele>736.03</ele>
        <time>2020-07-13T15:22:35Z</time>
      </trkpt>
      <trkpt lat="45.9805" lon="4.40095">
        <ele>736.03</ele>
        <time>2020-07-13T15:22:38Z</time>
      </trkpt>
      <trkpt lat="45.98057" lon="4.40087">
        <ele>738.91</ele>
        <time>2020-07-13T15:22:48Z</time>
      </trkpt>
      <trkpt lat="45.98064" lon="4.4008">
        <ele>739.39</ele>
        <time>2020-07-13T15:22:57Z</time>
      </trkpt>
      <trkpt lat="45.98069" lon="4.40071">
        <ele>737.95</ele>
        <time>2020-07-13T15:23:06Z</time>
      </trkpt>
      <trkpt lat="45.9808" lon="4.40062">
        <ele>736.99</ele>
        <time>2020-07-13T15:23:22Z</time>
      </trkpt>
      <trkpt lat="45.98078" lon="4.40032">
        <ele>734.1</ele>
        <time>2020-07-13T15:23:41Z</time>
      </trkpt>
      <trkpt lat="45.98078" lon="4.4003">
        <ele>733.62</ele>
        <time>2020-07-13T15:23:42Z</time>
      </trkpt>
      <trkpt lat="45.98077" lon="4.40026">
        <ele>733.62</ele>
        <time>2020-07-13T15:23:45Z</time>
      </trkpt>
      <trkpt lat="45.98073" lon="4.4">
        <ele>731.22</ele>
        <time>2020-07-13T15:24:04Z</time>
      </trkpt>
      <trkpt lat="45.9807" lon="4.39979">
        <ele>729.3</ele>
        <time>2020-07-13T15:24:22Z</time>
      </trkpt>
      <trkpt lat="45.98067" lon="4.39957">
        <ele>727.86</ele>
        <time>2020-07-13T15:24:39Z</time>
      </trkpt>
      <trkpt lat="45.98063" lon="4.39936">
        <ele>726.89</ele>
        <time>2020-07-13T15:24:54Z</time>
      </trkpt>
      <trkpt lat="45.98057" lon="4.39913">
        <ele>725.45</ele>
        <time>2020-07-13T15:25:13Z</time>
      </trkpt>
      <trkpt lat="45.98054" lon="4.39895">
        <ele>724.01</ele>
        <time>2020-07-13T15:25:37Z</time>
      </trkpt>
      <trkpt lat="45.98049" lon="4.39889">
        <ele>723.05</ele>
        <time>2020-07-13T15:25:56Z</time>
      </trkpt>
      <trkpt lat="45.98046" lon="4.39903">
        <ele>723.05</ele>
        <time>2020-07-13T15:26:12Z</time>
      </trkpt>
      <trkpt lat="45.98045" lon="4.39899">
        <ele>724.01</ele>
        <time>2020-07-13T15:26:36Z</time>
      </trkpt>
      <trkpt lat="45.98047" lon="4.39896">
        <ele>724.01</ele>
        <time>2020-07-13T15:26:37Z</time>
      </trkpt>
      <trkpt lat="45.98047" lon="4.39902">
        <ele>724.01</ele>
        <time>2020-07-13T15:27:02Z</time>
      </trkpt>
      <trkpt lat="45.98051" lon="4.39893">
        <ele>724.01</ele>
        <time>2020-07-13T15:27:26Z</time>
      </trkpt>
      <trkpt lat="45.98059" lon="4.39895">
        <ele>724.01</ele>
        <time>2020-07-13T15:27:51Z</time>
      </trkpt>
      <trkpt lat="45.98046" lon="4.39904">
        <ele>724.01</ele>
        <time>2020-07-13T15:28:14Z</time>
      </trkpt>
      <trkpt lat="45.98047" lon="4.39907">
        <ele>724.01</ele>
        <time>2020-07-13T15:28:38Z</time>
      </trkpt>
      <trkpt lat="45.9805" lon="4.39896">
        <ele>724.01</ele>
        <time>2020-07-13T15:29:01Z</time>
      </trkpt>
      <trkpt lat="45.98051" lon="4.39886">
        <ele>723.05</ele>
        <time>2020-07-13T15:29:10Z</time>
      </trkpt>
      <trkpt lat="45.98044" lon="4.39875">
        <ele>720.16</ele>
        <time>2020-07-13T15:29:30Z</time>
      </trkpt>
      <trkpt lat="45.9803" lon="4.39863">
        <ele>717.76</ele>
        <time>2020-07-13T15:29:51Z</time>
      </trkpt>
      <trkpt lat="45.98014" lon="4.39857">
        <ele>714.88</ele>
        <time>2020-07-13T15:30:10Z</time>
      </trkpt>
      <trkpt lat="45.98007" lon="4.39848">
        <ele>712.95</ele>
        <time>2020-07-13T15:30:27Z</time>
      </trkpt>
      <trkpt lat="45.97998" lon="4.39828">
        <ele>709.59</ele>
        <time>2020-07-13T15:30:46Z</time>
      </trkpt>
      <trkpt lat="45.97988" lon="4.3981">
        <ele>706.23</ele>
        <time>2020-07-13T15:31:05Z</time>
      </trkpt>
      <trkpt lat="45.97981" lon="4.39791">
        <ele>704.3</ele>
        <time>2020-07-13T15:31:24Z</time>
      </trkpt>
      <trkpt lat="45.97981" lon="4.39778">
        <ele>703.34</ele>
        <time>2020-07-13T15:31:33Z</time>
      </trkpt>
      <trkpt lat="45.97986" lon="4.39755">
        <ele>701.9</ele>
        <time>2020-07-13T15:31:50Z</time>
      </trkpt>
      <trkpt lat="45.97989" lon="4.39733">
        <ele>699.02</ele>
        <time>2020-07-13T15:32:10Z</time>
      </trkpt>
      <trkpt lat="45.97989" lon="4.39707">
        <ele>697.09</ele>
        <time>2020-07-13T15:32:29Z</time>
      </trkpt>
      <trkpt lat="45.9799" lon="4.39703">
        <ele>697.09</ele>
        <time>2020-07-13T15:32:32Z</time>
      </trkpt>
      <trkpt lat="45.97993" lon="4.39688">
        <ele>695.65</ele>
        <time>2020-07-13T15:32:43Z</time>
      </trkpt>
      <trkpt lat="45.97996" lon="4.39668">
        <ele>694.21</ele>
        <time>2020-07-13T15:32:58Z</time>
      </trkpt>
      <trkpt lat="45.98" lon="4.39643">
        <ele>691.81</ele>
        <time>2020-07-13T15:33:16Z</time>
      </trkpt>
      <trkpt lat="45.98007" lon="4.39625">
        <ele>688.44</ele>
        <time>2020-07-13T15:33:35Z</time>
      </trkpt>
      <trkpt lat="45.98018" lon="4.39603">
        <ele>685.56</ele>
        <time>2020-07-13T15:33:55Z</time>
      </trkpt>
      <trkpt lat="45.98032" lon="4.39589">
        <ele>684.12</ele>
        <time>2020-07-13T15:34:13Z</time>
      </trkpt>
      <trkpt lat="45.98042" lon="4.39579">
        <ele>681.23</ele>
        <time>2020-07-13T15:34:27Z</time>
      </trkpt>
      <trkpt lat="45.98045" lon="4.39577">
        <ele>681.23</ele>
        <time>2020-07-13T15:34:30Z</time>
      </trkpt>
      <trkpt lat="45.98064" lon="4.39565">
        <ele>678.83</ele>
        <time>2020-07-13T15:34:50Z</time>
      </trkpt>
      <trkpt lat="45.98078" lon="4.39551">
        <ele>675.94</ele>
        <time>2020-07-13T15:35:09Z</time>
      </trkpt>
      <trkpt lat="45.9809" lon="4.39543">
        <ele>672.58</ele>
        <time>2020-07-13T15:35:25Z</time>
      </trkpt>
      <trkpt lat="45.98105" lon="4.39532">
        <ele>670.18</ele>
        <time>2020-07-13T15:35:45Z</time>
      </trkpt>
      <trkpt lat="45.98116" lon="4.39522">
        <ele>667.77</ele>
        <time>2020-07-13T15:36:02Z</time>
      </trkpt>
      <trkpt lat="45.98118" lon="4.39503">
        <ele>665.37</ele>
        <time>2020-07-13T15:36:19Z</time>
      </trkpt>
      <trkpt lat="45.98116" lon="4.39491">
        <ele>664.41</ele>
        <time>2020-07-13T15:36:31Z</time>
      </trkpt>
      <trkpt lat="45.98119" lon="4.39473">
        <ele>662.97</ele>
        <time>2020-07-13T15:36:45Z</time>
      </trkpt>
      <trkpt lat="45.98119" lon="4.39459">
        <ele>661.52</ele>
        <time>2020-07-13T15:36:57Z</time>
      </trkpt>
      <trkpt lat="45.98122" lon="4.39443">
        <ele>659.6</ele>
        <time>2020-07-13T15:37:12Z</time>
      </trkpt>
      <trkpt lat="45.98129" lon="4.39436">
        <ele>657.2</ele>
        <time>2020-07-13T15:37:28Z</time>
      </trkpt>
      <trkpt lat="45.98132" lon="4.3944">
        <ele>658.16</ele>
        <time>2020-07-13T15:37:43Z</time>
      </trkpt>
      <trkpt lat="45.98133" lon="4.39439">
        <ele>658.64</ele>
        <time>2020-07-13T15:38:06Z</time>
      </trkpt>
      <trkpt lat="45.98136" lon="4.39449">
        <ele>658.64</ele>
        <time>2020-07-13T15:38:21Z</time>
      </trkpt>
      <trkpt lat="45.98132" lon="4.39447">
        <ele>658.64</ele>
        <time>2020-07-13T15:38:33Z</time>
      </trkpt>
    </trkseg>
  </trk>
</gpx>